<?xml version="1.0" encoding="UTF-8" standalone="no" ?><gpx xmlns="http://www.topografix.com/GPX/1/1" xmlns:gpxx="http://www.garmin.com/xmlschemas/GpxExtensions/v3" xmlns:wptx1="http://www.garmin.com/xmlschemas/WaypointExtension/v1" xmlns:gpxtpx="http://www.garmin.com/xmlschemas/TrackPointExtension/v1" creator="Astro 320" version="1.1" xmlns:xsi="http://www.w3.org/2001/XMLSchema-instance" xsi:schemaLocation="http://www.topografix.com/GPX/1/1 http://www.topografix.com/GPX/1/1/gpx.xsd http://www.garmin.com/xmlschemas/GpxExtensions/v3 http://www8.garmin.com/xmlschemas/GpxExtensionsv3.xsd http://www.garmin.com/xmlschemas/WaypointExtension/v1 http://www8.garmin.com/xmlschemas/WaypointExtensionv1.xsd http://www.garmin.com/xmlschemas/TrackPointExtension/v1 http://www.garmin.com/xmlschemas/TrackPointExtensionv1.xsd"><metadata><link href="http://www.garmin.com"><text>Garmin International</text></link><time>2026-08-21T16:42:41Z</time></metadata><trk><name>2026-08-21 19:42:38</name><extensions><gpxx:TrackExtension><gpxx:DisplayColor>Blue</gpxx:DisplayColor></gpxx:TrackExtension></extensions><trkseg><trkpt lat="59.3505393248" lon="34.6993385442"><ele>172.21</ele><time>2026-08-21T07:30:02Z</time></trkpt><trkpt lat="59.3505450245" lon="34.6993601695"><ele>169.33</ele><time>2026-08-21T07:30:11Z</time></trkpt><trkpt lat="59.3505415879" lon="34.6993474290"><ele>165.96</ele><time>2026-08-21T07:30:24Z</time></trkpt><trkpt lat="59.3505565915" lon="34.6993725747"><ele>164.52</ele><time>2026-08-21T07:30:39Z</time></trkpt><trkpt lat="59.3505618721" lon="34.6993839741"><ele>162.12</ele><time>2026-08-21T07:31:01Z</time></trkpt><trkpt lat="59.3505640514" lon="34.6993893385"><ele>162.12</ele><time>2026-08-21T07:31:15Z</time></trkpt><trkpt lat="59.3505643867" lon="34.6993878298"><ele>162.12</ele><time>2026-08-21T07:31:25Z</time></trkpt><trkpt lat="59.3505658954" lon="34.6993922722"><ele>163.08</ele><time>2026-08-21T07:31:47Z</time></trkpt><trkpt lat="59.3505652249" lon="34.6993924398"><ele>163.08</ele><time>2026-08-21T07:32:08Z</time></trkpt><trkpt lat="59.3505668174" lon="34.6993860696"><ele>163.08</ele><time>2026-08-21T07:32:27Z</time></trkpt><trkpt lat="59.3505665660" lon="34.6993828006"><ele>163.08</ele><time>2026-08-21T07:32:43Z</time></trkpt><trkpt lat="59.3505637161" lon="34.6993793640"><ele>163.08</ele><time>2026-08-21T07:32:55Z</time></trkpt><trkpt lat="59.3505684100" lon="34.6993804537"><ele>163.08</ele><time>2026-08-21T07:33:09Z</time></trkpt><trkpt lat="59.3505783845" lon="34.6993831359"><ele>163.08</ele><time>2026-08-21T07:33:22Z</time></trkpt><trkpt lat="59.3505817372" lon="34.6993804537"><ele>163.08</ele><time>2026-08-21T07:33:46Z</time></trkpt><trkpt lat="59.3505777977" lon="34.6993755084"><ele>163.08</ele><time>2026-08-21T07:34:03Z</time></trkpt><trkpt lat="59.3505808990" lon="34.6993739158"><ele>163.08</ele><time>2026-08-21T07:34:18Z</time></trkpt><trkpt lat="59.3505805638" lon="34.6992838942"><ele>163.08</ele><time>2026-08-21T07:34:37Z</time></trkpt><trkpt lat="59.3505459465" lon="34.6989826486"><ele>163.08</ele><time>2026-08-21T07:34:54Z</time></trkpt><trkpt lat="59.3505218904" lon="34.6989062894"><ele>163.08</ele><time>2026-08-21T07:34:56Z</time></trkpt><trkpt lat="59.3504660670" lon="34.6985077299"><ele>163.08</ele><time>2026-08-21T07:35:14Z</time></trkpt><trkpt lat="59.3504147697" lon="34.6981446259"><ele>163.08</ele><time>2026-08-21T07:35:31Z</time></trkpt><trkpt lat="59.3503823318" lon="34.6978885587"><ele>163.08</ele><time>2026-08-21T07:35:44Z</time></trkpt><trkpt lat="59.3503201380" lon="34.6975116245"><ele>163.08</ele><time>2026-08-21T07:36:02Z</time></trkpt><trkpt lat="59.3502638955" lon="34.6972165816"><ele>163.08</ele><time>2026-08-21T07:36:16Z</time></trkpt><trkpt lat="59.3502066471" lon="34.6969542280"><ele>163.08</ele><time>2026-08-21T07:36:31Z</time></trkpt><trkpt lat="59.3501416035" lon="34.6967585105"><ele>163.08</ele><time>2026-08-21T07:36:46Z</time></trkpt><trkpt lat="59.3500968441" lon="34.6966121625"><ele>163.08</ele><time>2026-08-21T07:36:55Z</time></trkpt><trkpt lat="59.3500002008" lon="34.6963013615"><ele>163.08</ele><time>2026-08-21T07:37:11Z</time></trkpt><trkpt lat="59.3499613088" lon="34.6959635708"><ele>163.08</ele><time>2026-08-21T07:37:25Z</time></trkpt><trkpt lat="59.3499598838" lon="34.6958183125"><ele>163.08</ele><time>2026-08-21T07:37:31Z</time></trkpt><trkpt lat="59.3499547709" lon="34.6955382731"><ele>163.08</ele><time>2026-08-21T07:37:44Z</time></trkpt><trkpt lat="59.3499689363" lon="34.6955313161"><ele>163.08</ele><time>2026-08-21T07:38:04Z</time></trkpt><trkpt lat="59.3499722052" lon="34.6955355071"><ele>161.64</ele><time>2026-08-21T07:38:27Z</time></trkpt><trkpt lat="59.3499774858" lon="34.6954143886"><ele>161.64</ele><time>2026-08-21T07:38:45Z</time></trkpt><trkpt lat="59.3499501608" lon="34.6950512007"><ele>161.64</ele><time>2026-08-21T07:39:00Z</time></trkpt><trkpt lat="59.3499410246" lon="34.6947574150"><ele>161.64</ele><time>2026-08-21T07:39:16Z</time></trkpt><trkpt lat="59.3499421142" lon="34.6946675610"><ele>161.64</ele><time>2026-08-21T07:39:21Z</time></trkpt><trkpt lat="59.3498895597" lon="34.6942375693"><ele>161.64</ele><time>2026-08-21T07:39:35Z</time></trkpt><trkpt lat="59.3498827703" lon="34.6940799896"><ele>161.64</ele><time>2026-08-21T07:39:41Z</time></trkpt><trkpt lat="59.3498654198" lon="34.6938938275"><ele>161.64</ele><time>2026-08-21T07:39:49Z</time></trkpt><trkpt lat="59.3498324789" lon="34.6935951803"><ele>160.68</ele><time>2026-08-21T07:40:01Z</time></trkpt><trkpt lat="59.3498108536" lon="34.6933751553"><ele>160.68</ele><time>2026-08-21T07:40:12Z</time></trkpt><trkpt lat="59.3497813493" lon="34.6931404620"><ele>160.68</ele><time>2026-08-21T07:40:20Z</time></trkpt><trkpt lat="59.3497732189" lon="34.6928983927"><ele>160.68</ele><time>2026-08-21T07:40:30Z</time></trkpt><trkpt lat="59.3497683574" lon="34.6928092092"><ele>160.68</ele><time>2026-08-21T07:40:34Z</time></trkpt><trkpt lat="59.3497421220" lon="34.6925544832"><ele>161.64</ele><time>2026-08-21T07:40:44Z</time></trkpt><trkpt lat="59.3497287948" lon="34.6924628690"><ele>162.12</ele><time>2026-08-21T07:40:48Z</time></trkpt><trkpt lat="59.3497503363" lon="34.6922477055"><ele>162.12</ele><time>2026-08-21T07:40:57Z</time></trkpt><trkpt lat="59.3497345783" lon="34.6919560991"><ele>162.12</ele><time>2026-08-21T07:41:09Z</time></trkpt><trkpt lat="59.3497309741" lon="34.6919296123"><ele>162.12</ele><time>2026-08-21T07:41:10Z</time></trkpt><trkpt lat="59.3497176468" lon="34.6917229984"><ele>162.12</ele><time>2026-08-21T07:41:18Z</time></trkpt><trkpt lat="59.3497123662" lon="34.6914318949"><ele>162.12</ele><time>2026-08-21T07:41:33Z</time></trkpt><trkpt lat="59.3497022241" lon="34.6912184078"><ele>162.12</ele><time>2026-08-21T07:41:44Z</time></trkpt><trkpt lat="59.3497116957" lon="34.6912597306"><ele>162.60</ele><time>2026-08-21T07:42:01Z</time></trkpt><trkpt lat="59.3497138750" lon="34.6912669390"><ele>163.08</ele><time>2026-08-21T07:42:22Z</time></trkpt><trkpt lat="59.3497132044" lon="34.6912670229"><ele>163.08</ele><time>2026-08-21T07:42:45Z</time></trkpt><trkpt lat="59.3497172277" lon="34.6912650112"><ele>163.08</ele><time>2026-08-21T07:43:04Z</time></trkpt><trkpt lat="59.3497306388" lon="34.6911997162"><ele>163.08</ele><time>2026-08-21T07:43:19Z</time></trkpt><trkpt lat="59.3497205805" lon="34.6909841336"><ele>163.08</ele><time>2026-08-21T07:43:29Z</time></trkpt><trkpt lat="59.3496359233" lon="34.6906170063"><ele>163.08</ele><time>2026-08-21T07:43:42Z</time></trkpt><trkpt lat="59.3495516013" lon="34.6903232206"><ele>163.08</ele><time>2026-08-21T07:43:57Z</time></trkpt><trkpt lat="59.3494795170" lon="34.6900815703"><ele>163.08</ele><time>2026-08-21T07:44:12Z</time></trkpt><trkpt lat="59.3494213466" lon="34.6898438595"><ele>163.08</ele><time>2026-08-21T07:44:23Z</time></trkpt><trkpt lat="59.3494070135" lon="34.6897529997"><ele>162.12</ele><time>2026-08-21T07:44:27Z</time></trkpt><trkpt lat="59.3493817840" lon="34.6895754710"><ele>162.12</ele><time>2026-08-21T07:44:34Z</time></trkpt><trkpt lat="59.3493448198" lon="34.6892854571"><ele>162.12</ele><time>2026-08-21T07:44:46Z</time></trkpt><trkpt lat="59.3493428081" lon="34.6892165579"><ele>162.12</ele><time>2026-08-21T07:44:49Z</time></trkpt><trkpt lat="59.3493286427" lon="34.6890954394"><ele>162.12</ele><time>2026-08-21T07:45:06Z</time></trkpt><trkpt lat="59.3493334204" lon="34.6890821122"><ele>162.12</ele><time>2026-08-21T07:45:34Z</time></trkpt><trkpt lat="59.3493140582" lon="34.6888396237"><ele>162.12</ele><time>2026-08-21T07:45:48Z</time></trkpt><trkpt lat="59.3492952827" lon="34.6886070259"><ele>162.12</ele><time>2026-08-21T07:46:01Z</time></trkpt><trkpt lat="59.3492789380" lon="34.6882784553"><ele>162.12</ele><time>2026-08-21T07:46:14Z</time></trkpt><trkpt lat="59.3492760044" lon="34.6881408244"><ele>162.12</ele><time>2026-08-21T07:46:28Z</time></trkpt><trkpt lat="59.3492549658" lon="34.6878553368"><ele>162.60</ele><time>2026-08-21T07:46:43Z</time></trkpt><trkpt lat="59.3492497690" lon="34.6875882056"><ele>162.12</ele><time>2026-08-21T07:46:56Z</time></trkpt><trkpt lat="59.3492490984" lon="34.6873846930"><ele>162.12</ele><time>2026-08-21T07:47:08Z</time></trkpt><trkpt lat="59.3492740765" lon="34.6871044859"><ele>162.12</ele><time>2026-08-21T07:47:25Z</time></trkpt><trkpt lat="59.3492310774" lon="34.6866063494"><ele>162.12</ele><time>2026-08-21T07:47:41Z</time></trkpt><trkpt lat="59.3492218573" lon="34.6864620131"><ele>162.12</ele><time>2026-08-21T07:47:57Z</time></trkpt><trkpt lat="59.3492334243" lon="34.6863723267"><ele>162.12</ele><time>2026-08-21T07:48:10Z</time></trkpt><trkpt lat="59.3492392078" lon="34.6862403955"><ele>162.12</ele><time>2026-08-21T07:48:30Z</time></trkpt><trkpt lat="59.3492876552" lon="34.6859121602"><ele>162.12</ele><time>2026-08-21T07:48:45Z</time></trkpt><trkpt lat="59.3493114598" lon="34.6858562529"><ele>162.12</ele><time>2026-08-21T07:49:02Z</time></trkpt><trkpt lat="59.3493158184" lon="34.6858611144"><ele>162.12</ele><time>2026-08-21T07:49:31Z</time></trkpt><trkpt lat="59.3493154831" lon="34.6858631261"><ele>162.12</ele><time>2026-08-21T07:49:57Z</time></trkpt><trkpt lat="59.3493255414" lon="34.6857790556"><ele>162.12</ele><time>2026-08-21T07:50:13Z</time></trkpt><trkpt lat="59.3493382819" lon="34.6855452005"><ele>162.12</ele><time>2026-08-21T07:50:26Z</time></trkpt><trkpt lat="59.3493379466" lon="34.6855317056"><ele>162.12</ele><time>2026-08-21T07:50:56Z</time></trkpt><trkpt lat="59.3493449874" lon="34.6855157800"><ele>162.12</ele><time>2026-08-21T07:51:15Z</time></trkpt><trkpt lat="59.3493592367" lon="34.6851349901"><ele>162.12</ele><time>2026-08-21T07:51:30Z</time></trkpt><trkpt lat="59.3493902497" lon="34.6848510113"><ele>162.12</ele><time>2026-08-21T07:51:43Z</time></trkpt><trkpt lat="59.3493730668" lon="34.6845528670"><ele>162.12</ele><time>2026-08-21T07:51:57Z</time></trkpt><trkpt lat="59.3493889924" lon="34.6843084507"><ele>161.64</ele><time>2026-08-21T07:52:10Z</time></trkpt><trkpt lat="59.3493978772" lon="34.6841542237"><ele>161.64</ele><time>2026-08-21T07:52:22Z</time></trkpt><trkpt lat="59.3493941054" lon="34.6841449197"><ele>161.64</ele><time>2026-08-21T07:52:48Z</time></trkpt><trkpt lat="59.3494183291" lon="34.6841092128"><ele>161.64</ele><time>2026-08-21T07:52:57Z</time></trkpt><trkpt lat="59.3494335003" lon="34.6838794649"><ele>161.64</ele><time>2026-08-21T07:53:09Z</time></trkpt><trkpt lat="59.3494731467" lon="34.6836224757"><ele>161.64</ele><time>2026-08-21T07:53:22Z</time></trkpt><trkpt lat="59.3495022319" lon="34.6833438613"><ele>161.64</ele><time>2026-08-21T07:53:34Z</time></trkpt><trkpt lat="59.3495248631" lon="34.6832136065"><ele>161.64</ele><time>2026-08-21T07:53:40Z</time></trkpt><trkpt lat="59.3495852966" lon="34.6829512529"><ele>161.64</ele><time>2026-08-21T07:53:53Z</time></trkpt><trkpt lat="59.3496424612" lon="34.6827201638"><ele>161.64</ele><time>2026-08-21T07:54:05Z</time></trkpt><trkpt lat="59.3496445566" lon="34.6826861333"><ele>163.08</ele><time>2026-08-21T07:54:14Z</time></trkpt><trkpt lat="59.3497314770" lon="34.6823164076"><ele>163.08</ele><time>2026-08-21T07:54:28Z</time></trkpt><trkpt lat="59.3497484084" lon="34.6822000667"><ele>163.08</ele><time>2026-08-21T07:54:41Z</time></trkpt><trkpt lat="59.3497466482" lon="34.6821677964"><ele>163.08</ele><time>2026-08-21T07:54:55Z</time></trkpt><trkpt lat="59.3497436307" lon="34.6821841411"><ele>162.60</ele><time>2026-08-21T07:55:20Z</time></trkpt><trkpt lat="59.3497347459" lon="34.6821860690"><ele>162.60</ele><time>2026-08-21T07:55:43Z</time></trkpt><trkpt lat="59.3497343268" lon="34.6821843088"><ele>162.60</ele><time>2026-08-21T07:56:06Z</time></trkpt><trkpt lat="59.3497953471" lon="34.6821570676"><ele>162.60</ele><time>2026-08-21T07:56:29Z</time></trkpt><trkpt lat="59.3498232588" lon="34.6821149066"><ele>162.12</ele><time>2026-08-21T07:56:51Z</time></trkpt><trkpt lat="59.3498005439" lon="34.6818750165"><ele>162.12</ele><time>2026-08-21T07:57:08Z</time></trkpt><trkpt lat="59.3498132005" lon="34.6816709172"><ele>161.16</ele><time>2026-08-21T07:57:23Z</time></trkpt><trkpt lat="59.3498456385" lon="34.6815362200"><ele>161.16</ele><time>2026-08-21T07:57:40Z</time></trkpt><trkpt lat="59.3498819321" lon="34.6813814063"><ele>161.16</ele><time>2026-08-21T07:57:56Z</time></trkpt><trkpt lat="59.3498756457" lon="34.6812288556"><ele>161.16</ele><time>2026-08-21T07:58:07Z</time></trkpt><trkpt lat="59.3499404378" lon="34.6809210721"><ele>161.16</ele><time>2026-08-21T07:58:26Z</time></trkpt><trkpt lat="59.3499473948" lon="34.6808266919"><ele>161.16</ele><time>2026-08-21T07:58:40Z</time></trkpt><trkpt lat="59.3499617279" lon="34.6805955190"><ele>160.68</ele><time>2026-08-21T07:58:59Z</time></trkpt><trkpt lat="59.3499573693" lon="34.6804578044"><ele>160.68</ele><time>2026-08-21T07:59:16Z</time></trkpt><trkpt lat="59.3499768153" lon="34.6801589057"><ele>160.68</ele><time>2026-08-21T07:59:30Z</time></trkpt><trkpt lat="59.3500117678" lon="34.6800030861"><ele>160.68</ele><time>2026-08-21T07:59:43Z</time></trkpt><trkpt lat="59.3500153720" lon="34.6797228791"><ele>160.68</ele><time>2026-08-21T07:59:57Z</time></trkpt><trkpt lat="59.3500391766" lon="34.6794660576"><ele>160.68</ele><time>2026-08-21T08:00:09Z</time></trkpt><trkpt lat="59.3500158750" lon="34.6791980043"><ele>160.68</ele><time>2026-08-21T08:00:25Z</time></trkpt><trkpt lat="59.3499748036" lon="34.6790081542"><ele>160.68</ele><time>2026-08-21T08:00:39Z</time></trkpt><trkpt lat="59.3499906454" lon="34.6787412744"><ele>160.68</ele><time>2026-08-21T08:00:53Z</time></trkpt><trkpt lat="59.3499820121" lon="34.6782531962"><ele>160.68</ele><time>2026-08-21T08:01:09Z</time></trkpt><trkpt lat="59.3500293698" lon="34.6779434849"><ele>160.68</ele><time>2026-08-21T08:01:26Z</time></trkpt><trkpt lat="59.3500558566" lon="34.6776785329"><ele>160.68</ele><time>2026-08-21T08:01:40Z</time></trkpt><trkpt lat="59.3500745483" lon="34.6773799695"><ele>160.68</ele><time>2026-08-21T08:01:55Z</time></trkpt><trkpt lat="59.3501330540" lon="34.6771108266"><ele>160.20</ele><time>2026-08-21T08:02:15Z</time></trkpt><trkpt lat="59.3502225727" lon="34.6767946612"><ele>161.64</ele><time>2026-08-21T08:02:30Z</time></trkpt><trkpt lat="59.3502419349" lon="34.6765676793"><ele>161.16</ele><time>2026-08-21T08:02:46Z</time></trkpt><trkpt lat="59.3502301164" lon="34.6765437070"><ele>161.16</ele><time>2026-08-21T08:03:10Z</time></trkpt><trkpt lat="59.3501952477" lon="34.6765618958"><ele>160.68</ele><time>2026-08-21T08:03:37Z</time></trkpt><trkpt lat="59.3501780648" lon="34.6765546035"><ele>160.68</ele><time>2026-08-21T08:04:01Z</time></trkpt><trkpt lat="59.3501914758" lon="34.6763557848"><ele>160.68</ele><time>2026-08-21T08:04:18Z</time></trkpt><trkpt lat="59.3503433559" lon="34.6759835444"><ele>160.20</ele><time>2026-08-21T08:04:35Z</time></trkpt><trkpt lat="59.3504044600" lon="34.6757353563"><ele>160.20</ele><time>2026-08-21T08:04:51Z</time></trkpt><trkpt lat="59.3504320364" lon="34.6754542273"><ele>160.20</ele><time>2026-08-21T08:05:10Z</time></trkpt><trkpt lat="59.3505476229" lon="34.6752233058"><ele>160.20</ele><time>2026-08-21T08:05:26Z</time></trkpt><trkpt lat="59.3505740259" lon="34.6750556678"><ele>160.20</ele><time>2026-08-21T08:05:43Z</time></trkpt><trkpt lat="59.3505903706" lon="34.6748842578"><ele>160.20</ele><time>2026-08-21T08:05:55Z</time></trkpt><trkpt lat="59.3506777938" lon="34.6746641491"><ele>159.24</ele><time>2026-08-21T08:06:09Z</time></trkpt><trkpt lat="59.3507791311" lon="34.6744133625"><ele>159.24</ele><time>2026-08-21T08:06:23Z</time></trkpt><trkpt lat="59.3508020137" lon="34.6743026376"><ele>159.24</ele><time>2026-08-21T08:06:36Z</time></trkpt><trkpt lat="59.3507549912" lon="34.6739143878"><ele>159.24</ele><time>2026-08-21T08:06:50Z</time></trkpt><trkpt lat="59.3507439271" lon="34.6736695524"><ele>159.24</ele><time>2026-08-21T08:07:09Z</time></trkpt><trkpt lat="59.3506817333" lon="34.6732717473"><ele>159.24</ele><time>2026-08-21T08:07:27Z</time></trkpt><trkpt lat="59.3506651372" lon="34.6730875131"><ele>159.24</ele><time>2026-08-21T08:07:41Z</time></trkpt><trkpt lat="59.3507199548" lon="34.6729652211"><ele>159.24</ele><time>2026-08-21T08:08:02Z</time></trkpt><trkpt lat="59.3507419154" lon="34.6729129180"><ele>159.24</ele><time>2026-08-21T08:08:05Z</time></trkpt><trkpt lat="59.3506297655" lon="34.6722212434"><ele>159.24</ele><time>2026-08-21T08:08:22Z</time></trkpt><trkpt lat="59.3506074697" lon="34.6719321515"><ele>159.24</ele><time>2026-08-21T08:08:38Z</time></trkpt><trkpt lat="59.3505770434" lon="34.6716063470"><ele>159.24</ele><time>2026-08-21T08:08:57Z</time></trkpt><trkpt lat="59.3505664822" lon="34.6715751663"><ele>160.20</ele><time>2026-08-21T08:08:59Z</time></trkpt><trkpt lat="59.3505282607" lon="34.6713830531"><ele>160.20</ele><time>2026-08-21T08:09:17Z</time></trkpt><trkpt lat="59.3505275901" lon="34.6713847294"><ele>160.20</ele><time>2026-08-21T08:09:36Z</time></trkpt><trkpt lat="59.3505469523" lon="34.6713906806"><ele>160.20</ele><time>2026-08-21T08:10:00Z</time></trkpt><trkpt lat="59.3505410850" lon="34.6713791974"><ele>160.20</ele><time>2026-08-21T08:10:31Z</time></trkpt><trkpt lat="59.3505316135" lon="34.6713039279"><ele>160.20</ele><time>2026-08-21T08:11:01Z</time></trkpt><trkpt lat="59.3504954036" lon="34.6711042710"><ele>160.20</ele><time>2026-08-21T08:11:15Z</time></trkpt><trkpt lat="59.3504262529" lon="34.6706586052"><ele>160.20</ele><time>2026-08-21T08:11:32Z</time></trkpt><trkpt lat="59.3504334614" lon="34.6704807412"><ele>160.20</ele><time>2026-08-21T08:11:49Z</time></trkpt><trkpt lat="59.3504935596" lon="34.6703518275"><ele>160.20</ele><time>2026-08-21T08:11:59Z</time></trkpt><trkpt lat="59.3504612893" lon="34.6698898170"><ele>160.20</ele><time>2026-08-21T08:12:14Z</time></trkpt><trkpt lat="59.3504970800" lon="34.6697299741"><ele>160.20</ele><time>2026-08-21T08:12:29Z</time></trkpt><trkpt lat="59.3505381513" lon="34.6694729850"><ele>160.20</ele><time>2026-08-21T08:12:42Z</time></trkpt><trkpt lat="59.3505617883" lon="34.6691533830"><ele>161.16</ele><time>2026-08-21T08:12:57Z</time></trkpt><trkpt lat="59.3505338766" lon="34.6689585876"><ele>161.16</ele><time>2026-08-21T08:13:08Z</time></trkpt><trkpt lat="59.3504942302" lon="34.6686016023"><ele>161.16</ele><time>2026-08-21T08:13:23Z</time></trkpt><trkpt lat="59.3505216390" lon="34.6684477944"><ele>161.64</ele><time>2026-08-21T08:13:39Z</time></trkpt><trkpt lat="59.3505259138" lon="34.6681597084"><ele>161.64</ele><time>2026-08-21T08:13:51Z</time></trkpt><trkpt lat="59.3505701702" lon="34.6677324828"><ele>160.20</ele><time>2026-08-21T08:14:08Z</time></trkpt><trkpt lat="59.3506262451" lon="34.6674713027"><ele>160.20</ele><time>2026-08-21T08:14:21Z</time></trkpt><trkpt lat="59.3507039454" lon="34.6671994776"><ele>160.20</ele><time>2026-08-21T08:14:35Z</time></trkpt><trkpt lat="59.3507766165" lon="34.6671084501"><ele>159.24</ele><time>2026-08-21T08:14:48Z</time></trkpt><trkpt lat="59.3508368824" lon="34.6669316757"><ele>159.24</ele><time>2026-08-21T08:15:01Z</time></trkpt><trkpt lat="59.3508656323" lon="34.6666550729"><ele>159.24</ele><time>2026-08-21T08:15:17Z</time></trkpt><trkpt lat="59.3509045243" lon="34.6663489658"><ele>159.24</ele><time>2026-08-21T08:15:34Z</time></trkpt><trkpt lat="59.3508735113" lon="34.6660209820"><ele>159.24</ele><time>2026-08-21T08:15:49Z</time></trkpt><trkpt lat="59.3508775346" lon="34.6657895576"><ele>159.24</ele><time>2026-08-21T08:16:05Z</time></trkpt><trkpt lat="59.3508994114" lon="34.6657809243"><ele>159.24</ele><time>2026-08-21T08:16:12Z</time></trkpt><trkpt lat="59.3509866670" lon="34.6657579578"><ele>159.24</ele><time>2026-08-21T08:16:23Z</time></trkpt><trkpt lat="59.3510002457" lon="34.6657095104"><ele>159.24</ele><time>2026-08-21T08:16:26Z</time></trkpt><trkpt lat="59.3510232121" lon="34.6655831113"><ele>159.24</ele><time>2026-08-21T08:16:38Z</time></trkpt><trkpt lat="59.3509528041" lon="34.6650403831"><ele>160.20</ele><time>2026-08-21T08:16:53Z</time></trkpt><trkpt lat="59.3509182706" lon="34.6647355333"><ele>159.72</ele><time>2026-08-21T08:17:06Z</time></trkpt><trkpt lat="59.3509072904" lon="34.6645718347"><ele>159.72</ele><time>2026-08-21T08:17:19Z</time></trkpt><trkpt lat="59.3509699870" lon="34.6643378120"><ele>159.72</ele><time>2026-08-21T08:17:32Z</time></trkpt><trkpt lat="59.3510465976" lon="34.6641425975"><ele>159.72</ele><time>2026-08-21T08:17:47Z</time></trkpt><trkpt lat="59.3510924466" lon="34.6640985087"><ele>159.72</ele><time>2026-08-21T08:18:04Z</time></trkpt><trkpt lat="59.3511513714" lon="34.6638193075"><ele>159.72</ele><time>2026-08-21T08:18:19Z</time></trkpt><trkpt lat="59.3512088712" lon="34.6636727080"><ele>159.72</ele><time>2026-08-21T08:18:32Z</time></trkpt><trkpt lat="59.3513459153" lon="34.6636054013"><ele>159.72</ele><time>2026-08-21T08:18:49Z</time></trkpt><trkpt lat="59.3514055107" lon="34.6635499131"><ele>158.27</ele><time>2026-08-21T08:18:57Z</time></trkpt><trkpt lat="59.3514936045" lon="34.6634235978"><ele>158.27</ele><time>2026-08-21T08:19:10Z</time></trkpt><trkpt lat="59.3515359331" lon="34.6634529345"><ele>158.27</ele><time>2026-08-21T08:19:34Z</time></trkpt><trkpt lat="59.3515481707" lon="34.6634670161"><ele>158.27</ele><time>2026-08-21T08:20:07Z</time></trkpt><trkpt lat="59.3515463267" lon="34.6634862106"><ele>158.27</ele><time>2026-08-21T08:20:42Z</time></trkpt><trkpt lat="59.3515447341" lon="34.6634957660"><ele>158.27</ele><time>2026-08-21T08:21:10Z</time></trkpt><trkpt lat="59.3515482545" lon="34.6634843666"><ele>158.27</ele><time>2026-08-21T08:21:27Z</time></trkpt><trkpt lat="59.3515480869" lon="34.6634693630"><ele>158.27</ele><time>2026-08-21T08:21:50Z</time></trkpt><trkpt lat="59.3515514396" lon="34.6634671837"><ele>158.27</ele><time>2026-08-21T08:22:22Z</time></trkpt><trkpt lat="59.3515486736" lon="34.6634631604"><ele>158.27</ele><time>2026-08-21T08:22:53Z</time></trkpt><trkpt lat="59.3515510205" lon="34.6634657588"><ele>158.27</ele><time>2026-08-21T08:23:12Z</time></trkpt><trkpt lat="59.3515523616" lon="34.6634686086"><ele>158.27</ele><time>2026-08-21T08:23:39Z</time></trkpt><trkpt lat="59.3515537865" lon="34.6634661779"><ele>158.27</ele><time>2026-08-21T08:24:09Z</time></trkpt><trkpt lat="59.3515598215" lon="34.6634620707"><ele>158.27</ele><time>2026-08-21T08:24:34Z</time></trkpt><trkpt lat="59.3516304810" lon="34.6633455623"><ele>158.27</ele><time>2026-08-21T08:24:46Z</time></trkpt><trkpt lat="59.3516940996" lon="34.6631122101"><ele>158.27</ele><time>2026-08-21T08:25:01Z</time></trkpt><trkpt lat="59.3517484982" lon="34.6629787702"><ele>158.27</ele><time>2026-08-21T08:25:13Z</time></trkpt><trkpt lat="59.3517973647" lon="34.6628252137"><ele>159.24</ele><time>2026-08-21T08:25:28Z</time></trkpt><trkpt lat="59.3518114462" lon="34.6627263073"><ele>160.20</ele><time>2026-08-21T08:25:43Z</time></trkpt><trkpt lat="59.3518970255" lon="34.6625740919"><ele>160.20</ele><time>2026-08-21T08:25:59Z</time></trkpt><trkpt lat="59.3519493286" lon="34.6623570006"><ele>160.20</ele><time>2026-08-21T08:26:11Z</time></trkpt><trkpt lat="59.3520726264" lon="34.6621574275"><ele>159.72</ele><time>2026-08-21T08:26:29Z</time></trkpt><trkpt lat="59.3521960080" lon="34.6618905477"><ele>159.72</ele><time>2026-08-21T08:26:42Z</time></trkpt><trkpt lat="59.3523369916" lon="34.6616585366"><ele>159.72</ele><time>2026-08-21T08:27:00Z</time></trkpt><trkpt lat="59.3524726946" lon="34.6614656691"><ele>159.72</ele><time>2026-08-21T08:27:16Z</time></trkpt><trkpt lat="59.3525894545" lon="34.6612073388"><ele>159.24</ele><time>2026-08-21T08:27:33Z</time></trkpt><trkpt lat="59.3526907917" lon="34.6610575542"><ele>159.24</ele><time>2026-08-21T08:27:50Z</time></trkpt><trkpt lat="59.3527968228" lon="34.6607969608"><ele>159.24</ele><time>2026-08-21T08:28:02Z</time></trkpt><trkpt lat="59.3528714217" lon="34.6606142353"><ele>159.24</ele><time>2026-08-21T08:28:16Z</time></trkpt><trkpt lat="59.3528857548" lon="34.6605953760"><ele>159.24</ele><time>2026-08-21T08:28:18Z</time></trkpt><trkpt lat="59.3529390637" lon="34.6604807116"><ele>159.24</ele><time>2026-08-21T08:28:33Z</time></trkpt><trkpt lat="59.3529654667" lon="34.6603372972"><ele>159.24</ele><time>2026-08-21T08:28:47Z</time></trkpt><trkpt lat="59.3530052807" lon="34.6600064635"><ele>159.72</ele><time>2026-08-21T08:29:04Z</time></trkpt><trkpt lat="59.3530585896" lon="34.6598172002"><ele>160.68</ele><time>2026-08-21T08:29:20Z</time></trkpt><trkpt lat="59.3531141616" lon="34.6597369853"><ele>160.68</ele><time>2026-08-21T08:29:40Z</time></trkpt><trkpt lat="59.3531228788" lon="34.6596524119"><ele>160.68</ele><time>2026-08-21T08:29:59Z</time></trkpt><trkpt lat="59.3531692307" lon="34.6596297808"><ele>160.68</ele><time>2026-08-21T08:30:26Z</time></trkpt><trkpt lat="59.3531672191" lon="34.6596450359"><ele>160.68</ele><time>2026-08-21T08:30:50Z</time></trkpt><trkpt lat="59.3532059435" lon="34.6595397592"><ele>160.20</ele><time>2026-08-21T08:31:12Z</time></trkpt><trkpt lat="59.3532581627" lon="34.6594501566"><ele>160.20</ele><time>2026-08-21T08:31:36Z</time></trkpt><trkpt lat="59.3534786068" lon="34.6591680218"><ele>159.24</ele><time>2026-08-21T08:31:58Z</time></trkpt><trkpt lat="59.3536197580" lon="34.6588646807"><ele>158.75</ele><time>2026-08-21T08:32:15Z</time></trkpt><trkpt lat="59.3536804430" lon="34.6587063465"><ele>158.27</ele><time>2026-08-21T08:32:35Z</time></trkpt><trkpt lat="59.3537441455" lon="34.6586361062"><ele>157.79</ele><time>2026-08-21T08:32:54Z</time></trkpt><trkpt lat="59.3538148049" lon="34.6583803743"><ele>157.79</ele><time>2026-08-21T08:33:08Z</time></trkpt><trkpt lat="59.3538455665" lon="34.6580044460"><ele>157.79</ele><time>2026-08-21T08:33:22Z</time></trkpt><trkpt lat="59.3538577203" lon="34.6577094868"><ele>157.79</ele><time>2026-08-21T08:33:37Z</time></trkpt><trkpt lat="59.3538661022" lon="34.6573934890"><ele>157.79</ele><time>2026-08-21T08:34:10Z</time></trkpt><trkpt lat="59.3538467400" lon="34.6573357377"><ele>157.79</ele><time>2026-08-21T08:34:26Z</time></trkpt><trkpt lat="59.3538117874" lon="34.6572183073"><ele>157.79</ele><time>2026-08-21T08:34:42Z</time></trkpt><trkpt lat="59.3537969515" lon="34.6571817622"><ele>157.79</ele><time>2026-08-21T08:35:04Z</time></trkpt><trkpt lat="59.3537920061" lon="34.6571778227"><ele>158.27</ele><time>2026-08-21T08:35:31Z</time></trkpt><trkpt lat="59.3538451474" lon="34.6570093464"><ele>158.27</ele><time>2026-08-21T08:35:47Z</time></trkpt><trkpt lat="59.3538628332" lon="34.6568772476"><ele>158.27</ele><time>2026-08-21T08:36:12Z</time></trkpt><trkpt lat="59.3538655154" lon="34.6568143833"><ele>158.27</ele><time>2026-08-21T08:36:43Z</time></trkpt><trkpt lat="59.3538612407" lon="34.6568026487"><ele>158.27</ele><time>2026-08-21T08:37:03Z</time></trkpt><trkpt lat="59.3538524397" lon="34.6567906626"><ele>158.27</ele><time>2026-08-21T08:37:21Z</time></trkpt><trkpt lat="59.3538420461" lon="34.6567783412"><ele>158.27</ele><time>2026-08-21T08:37:48Z</time></trkpt><trkpt lat="59.3538895715" lon="34.6566741541"><ele>157.79</ele><time>2026-08-21T08:38:06Z</time></trkpt><trkpt lat="59.3539076764" lon="34.6565981302"><ele>157.79</ele><time>2026-08-21T08:38:18Z</time></trkpt><trkpt lat="59.3539126217" lon="34.6565217711"><ele>157.79</ele><time>2026-08-21T08:38:35Z</time></trkpt><trkpt lat="59.3539369293" lon="34.6564572304"><ele>157.79</ele><time>2026-08-21T08:38:52Z</time></trkpt><trkpt lat="59.3539438024" lon="34.6564641874"><ele>157.79</ele><time>2026-08-21T08:39:07Z</time></trkpt><trkpt lat="59.3539481610" lon="34.6565154009"><ele>157.79</ele><time>2026-08-21T08:39:23Z</time></trkpt><trkpt lat="59.3539390247" lon="34.6565750800"><ele>157.79</ele><time>2026-08-21T08:39:42Z</time></trkpt><trkpt lat="59.3539489154" lon="34.6566325799"><ele>157.79</ele><time>2026-08-21T08:39:57Z</time></trkpt><trkpt lat="59.3539450597" lon="34.6566619165"><ele>157.79</ele><time>2026-08-21T08:40:00Z</time></trkpt><trkpt lat="59.3538679462" lon="34.6568701230"><ele>157.79</ele><time>2026-08-21T08:40:13Z</time></trkpt><trkpt lat="59.3537665252" lon="34.6569660958"><ele>157.79</ele><time>2026-08-21T08:40:29Z</time></trkpt><trkpt lat="59.3537330814" lon="34.6569801774"><ele>157.79</ele><time>2026-08-21T08:40:56Z</time></trkpt><trkpt lat="59.3537246156" lon="34.6569748130"><ele>157.79</ele><time>2026-08-21T08:41:22Z</time></trkpt><trkpt lat="59.3537179101" lon="34.6569797583"><ele>157.79</ele><time>2026-08-21T08:41:42Z</time></trkpt><trkpt lat="59.3536683731" lon="34.6569214202"><ele>157.79</ele><time>2026-08-21T08:42:06Z</time></trkpt><trkpt lat="59.3535932712" lon="34.6567682829"><ele>158.27</ele><time>2026-08-21T08:42:22Z</time></trkpt><trkpt lat="59.3535351846" lon="34.6566069312"><ele>158.27</ele><time>2026-08-21T08:42:38Z</time></trkpt><trkpt lat="59.3534136470" lon="34.6563904267"><ele>157.79</ele><time>2026-08-21T08:42:52Z</time></trkpt><trkpt lat="59.3533402216" lon="34.6561871655"><ele>157.79</ele><time>2026-08-21T08:43:05Z</time></trkpt><trkpt lat="59.3532861583" lon="34.6560476907"><ele>157.79</ele><time>2026-08-21T08:43:17Z</time></trkpt><trkpt lat="59.3532529660" lon="34.6559775341"><ele>157.79</ele><time>2026-08-21T08:43:23Z</time></trkpt><trkpt lat="59.3531713262" lon="34.6557637956"><ele>157.79</ele><time>2026-08-21T08:43:38Z</time></trkpt><trkpt lat="59.3531186879" lon="34.6556196269"><ele>157.79</ele><time>2026-08-21T08:43:50Z</time></trkpt><trkpt lat="59.3530793767" lon="34.6555165295"><ele>157.79</ele><time>2026-08-21T08:44:01Z</time></trkpt><trkpt lat="59.3530464359" lon="34.6554234903"><ele>157.79</ele><time>2026-08-21T08:44:12Z</time></trkpt><trkpt lat="59.3530064542" lon="34.6552938223"><ele>157.79</ele><time>2026-08-21T08:44:24Z</time></trkpt><trkpt lat="59.3529793806" lon="34.6551704407"><ele>157.79</ele><time>2026-08-21T08:44:32Z</time></trkpt><trkpt lat="59.3529155944" lon="34.6549743880"><ele>157.79</ele><time>2026-08-21T08:44:44Z</time></trkpt><trkpt lat="59.3528691586" lon="34.6548677702"><ele>157.79</ele><time>2026-08-21T08:44:55Z</time></trkpt><trkpt lat="59.3528173584" lon="34.6547640860"><ele>157.79</ele><time>2026-08-21T08:45:05Z</time></trkpt><trkpt lat="59.3527814001" lon="34.6546702925"><ele>158.27</ele><time>2026-08-21T08:45:17Z</time></trkpt><trkpt lat="59.3527333718" lon="34.6545270458"><ele>158.27</ele><time>2026-08-21T08:45:30Z</time></trkpt><trkpt lat="59.3526860140" lon="34.6544073522"><ele>158.27</ele><time>2026-08-21T08:45:42Z</time></trkpt><trkpt lat="59.3526632991" lon="34.6543330047"><ele>158.27</ele><time>2026-08-21T08:45:57Z</time></trkpt><trkpt lat="59.3526296038" lon="34.6541503631"><ele>158.27</ele><time>2026-08-21T08:46:12Z</time></trkpt><trkpt lat="59.3525814917" lon="34.6539646201"><ele>158.27</ele><time>2026-08-21T08:46:28Z</time></trkpt><trkpt lat="59.3525342178" lon="34.6538239717"><ele>158.27</ele><time>2026-08-21T08:46:47Z</time></trkpt><trkpt lat="59.3525063898" lon="34.6537553240"><ele>159.24</ele><time>2026-08-21T08:47:05Z</time></trkpt><trkpt lat="59.3525007740" lon="34.6537352912"><ele>159.72</ele><time>2026-08-21T08:47:30Z</time></trkpt><trkpt lat="59.3524793163" lon="34.6537054516"><ele>159.72</ele><time>2026-08-21T08:47:52Z</time></trkpt><trkpt lat="59.3524990976" lon="34.6536818147"><ele>159.72</ele><time>2026-08-21T08:48:18Z</time></trkpt><trkpt lat="59.3524984270" lon="34.6536579262"><ele>159.72</ele><time>2026-08-21T08:48:39Z</time></trkpt><trkpt lat="59.3524955772" lon="34.6536676493"><ele>159.72</ele><time>2026-08-21T08:49:01Z</time></trkpt><trkpt lat="59.3524949905" lon="34.6536841616"><ele>159.72</ele><time>2026-08-21T08:49:25Z</time></trkpt><trkpt lat="59.3524974212" lon="34.6536893584"><ele>159.72</ele><time>2026-08-21T08:49:49Z</time></trkpt><trkpt lat="59.3524866924" lon="34.6537072957"><ele>159.72</ele><time>2026-08-21T08:50:14Z</time></trkpt><trkpt lat="59.3524355628" lon="34.6537293401"><ele>159.72</ele><time>2026-08-21T08:50:28Z</time></trkpt><trkpt lat="59.3524180446" lon="34.6537248977"><ele>159.72</ele><time>2026-08-21T08:50:43Z</time></trkpt><trkpt lat="59.3524108361" lon="34.6537433378"><ele>160.20</ele><time>2026-08-21T08:51:11Z</time></trkpt><trkpt lat="59.3524062261" lon="34.6537405718"><ele>160.20</ele><time>2026-08-21T08:51:37Z</time></trkpt><trkpt lat="59.3524440285" lon="34.6537138335"><ele>160.20</ele><time>2026-08-21T08:51:50Z</time></trkpt><trkpt lat="59.3524522427" lon="34.6536852513"><ele>160.20</ele><time>2026-08-21T08:52:13Z</time></trkpt><trkpt lat="59.3524088245" lon="34.6534920484"><ele>160.68</ele><time>2026-08-21T08:52:27Z</time></trkpt><trkpt lat="59.3523356505" lon="34.6533146035"><ele>161.16</ele><time>2026-08-21T08:52:40Z</time></trkpt><trkpt lat="59.3522231653" lon="34.6531579457"><ele>161.64</ele><time>2026-08-21T08:52:55Z</time></trkpt><trkpt lat="59.3521275278" lon="34.6530242544"><ele>162.12</ele><time>2026-08-21T08:53:08Z</time></trkpt><trkpt lat="59.3519741390" lon="34.6528057382"><ele>162.12</ele><time>2026-08-21T08:53:24Z</time></trkpt><trkpt lat="59.3519205786" lon="34.6527725458"><ele>162.12</ele><time>2026-08-21T08:53:30Z</time></trkpt><trkpt lat="59.3517462350" lon="34.6526450571"><ele>160.68</ele><time>2026-08-21T08:53:47Z</time></trkpt><trkpt lat="59.3516643438" lon="34.6526176482"><ele>160.20</ele><time>2026-08-21T08:54:01Z</time></trkpt><trkpt lat="59.3515593186" lon="34.6525704581"><ele>160.20</ele><time>2026-08-21T08:54:14Z</time></trkpt><trkpt lat="59.3514770921" lon="34.6525380202"><ele>160.20</ele><time>2026-08-21T08:54:26Z</time></trkpt><trkpt lat="59.3514288124" lon="34.6523551270"><ele>160.20</ele><time>2026-08-21T08:54:46Z</time></trkpt><trkpt lat="59.3512795307" lon="34.6519408934"><ele>161.16</ele><time>2026-08-21T08:55:01Z</time></trkpt><trkpt lat="59.3511824682" lon="34.6517081279"><ele>161.64</ele><time>2026-08-21T08:55:15Z</time></trkpt><trkpt lat="59.3511366192" lon="34.6515733469"><ele>161.64</ele><time>2026-08-21T08:55:27Z</time></trkpt><trkpt lat="59.3511232082" lon="34.6513525676"><ele>161.64</ele><time>2026-08-21T08:55:47Z</time></trkpt><trkpt lat="59.3511390500" lon="34.6512089018"><ele>161.64</ele><time>2026-08-21T08:56:07Z</time></trkpt><trkpt lat="59.3511553109" lon="34.6509283595"><ele>161.64</ele><time>2026-08-21T08:56:27Z</time></trkpt><trkpt lat="59.3511609267" lon="34.6507412754"><ele>161.64</ele><time>2026-08-21T08:56:46Z</time></trkpt><trkpt lat="59.3511595856" lon="34.6506089251"><ele>161.64</ele><time>2026-08-21T08:57:05Z</time></trkpt><trkpt lat="59.3511519581" lon="34.6503857151"><ele>161.64</ele><time>2026-08-21T08:57:22Z</time></trkpt><trkpt lat="59.3510416523" lon="34.6499525383"><ele>161.64</ele><time>2026-08-21T08:57:41Z</time></trkpt><trkpt lat="59.3509397283" lon="34.6496282425"><ele>161.64</ele><time>2026-08-21T08:57:56Z</time></trkpt><trkpt lat="59.3509017583" lon="34.6495520510"><ele>161.64</ele><time>2026-08-21T08:58:12Z</time></trkpt><trkpt lat="59.3509049434" lon="34.6495466866"><ele>161.64</ele><time>2026-08-21T08:58:41Z</time></trkpt><trkpt lat="59.3509057816" lon="34.6495611873"><ele>161.64</ele><time>2026-08-21T08:59:13Z</time></trkpt><trkpt lat="59.3509102240" lon="34.6495730896"><ele>162.12</ele><time>2026-08-21T08:59:43Z</time></trkpt><trkpt lat="59.3509196956" lon="34.6495699044"><ele>161.16</ele><time>2026-08-21T09:00:11Z</time></trkpt><trkpt lat="59.3509042729" lon="34.6495813038"><ele>161.16</ele><time>2026-08-21T09:00:45Z</time></trkpt><trkpt lat="59.3509076256" lon="34.6495569125"><ele>161.16</ele><time>2026-08-21T09:00:59Z</time></trkpt><trkpt lat="59.3509056140" lon="34.6494980715"><ele>161.16</ele><time>2026-08-21T09:01:21Z</time></trkpt><trkpt lat="59.3509095535" lon="34.6495477762"><ele>161.16</ele><time>2026-08-21T09:01:48Z</time></trkpt><trkpt lat="59.3508726731" lon="34.6494747698"><ele>161.16</ele><time>2026-08-21T09:02:06Z</time></trkpt><trkpt lat="59.3508421630" lon="34.6493052877"><ele>161.16</ele><time>2026-08-21T09:02:22Z</time></trkpt><trkpt lat="59.3507890217" lon="34.6490082331"><ele>160.20</ele><time>2026-08-21T09:02:37Z</time></trkpt><trkpt lat="59.3507418316" lon="34.6487593744"><ele>159.72</ele><time>2026-08-21T09:02:51Z</time></trkpt><trkpt lat="59.3506895285" lon="34.6485544369"><ele>159.24</ele><time>2026-08-21T09:03:04Z</time></trkpt><trkpt lat="59.3506233115" lon="34.6483967733"><ele>159.24</ele><time>2026-08-21T09:03:18Z</time></trkpt><trkpt lat="59.3505467847" lon="34.6481794305"><ele>159.24</ele><time>2026-08-21T09:03:32Z</time></trkpt><trkpt lat="59.3505139276" lon="34.6481213439"><ele>158.75</ele><time>2026-08-21T09:03:52Z</time></trkpt><trkpt lat="59.3504915480" lon="34.6480665263"><ele>158.75</ele><time>2026-08-21T09:04:03Z</time></trkpt><trkpt lat="59.3504772149" lon="34.6479930170"><ele>158.75</ele><time>2026-08-21T09:04:19Z</time></trkpt><trkpt lat="59.3504317012" lon="34.6477389615"><ele>158.75</ele><time>2026-08-21T09:04:34Z</time></trkpt><trkpt lat="59.3503527436" lon="34.6474921145"><ele>158.75</ele><time>2026-08-21T09:04:48Z</time></trkpt><trkpt lat="59.3503444456" lon="34.6471521445"><ele>158.75</ele><time>2026-08-21T09:05:03Z</time></trkpt><trkpt lat="59.3503235746" lon="34.6471029427"><ele>158.75</ele><time>2026-08-21T09:05:18Z</time></trkpt><trkpt lat="59.3502973393" lon="34.6470689122"><ele>160.20</ele><time>2026-08-21T09:05:42Z</time></trkpt><trkpt lat="59.3502864428" lon="34.6470707562"><ele>160.20</ele><time>2026-08-21T09:06:09Z</time></trkpt><trkpt lat="59.3502784800" lon="34.6470101550"><ele>160.20</ele><time>2026-08-21T09:06:35Z</time></trkpt><trkpt lat="59.3501603790" lon="34.6468648128"><ele>160.20</ele><time>2026-08-21T09:06:51Z</time></trkpt><trkpt lat="59.3500390928" lon="34.6468742006"><ele>161.16</ele><time>2026-08-21T09:07:07Z</time></trkpt><trkpt lat="59.3499404378" lon="34.6469695866"><ele>161.64</ele><time>2026-08-21T09:07:23Z</time></trkpt><trkpt lat="59.3498118594" lon="34.6470437665"><ele>161.64</ele><time>2026-08-21T09:07:39Z</time></trkpt><trkpt lat="59.3496514298" lon="34.6471262444"><ele>161.64</ele><time>2026-08-21T09:07:56Z</time></trkpt><trkpt lat="59.3495060876" lon="34.6471346263"><ele>161.64</ele><time>2026-08-21T09:08:13Z</time></trkpt><trkpt lat="59.3493744917" lon="34.6469738614"><ele>162.12</ele><time>2026-08-21T09:08:32Z</time></trkpt><trkpt lat="59.3492841348" lon="34.6468995139"><ele>162.12</ele><time>2026-08-21T09:08:44Z</time></trkpt><trkpt lat="59.3492221087" lon="34.6468513180"><ele>162.12</ele><time>2026-08-21T09:09:01Z</time></trkpt><trkpt lat="59.3491299916" lon="34.6468084864"><ele>162.12</ele><time>2026-08-21T09:09:20Z</time></trkpt><trkpt lat="59.3489624374" lon="34.6467243321"><ele>162.12</ele><time>2026-08-21T09:09:34Z</time></trkpt><trkpt lat="59.3489373755" lon="34.6467211470"><ele>162.12</ele><time>2026-08-21T09:09:37Z</time></trkpt><trkpt lat="59.3487432506" lon="34.6467404254"><ele>162.12</ele><time>2026-08-21T09:09:56Z</time></trkpt><trkpt lat="59.3486083020" lon="34.6467125136"><ele>162.12</ele><time>2026-08-21T09:10:15Z</time></trkpt><trkpt lat="59.3485308532" lon="34.6466918942"><ele>162.12</ele><time>2026-08-21T09:10:39Z</time></trkpt><trkpt lat="59.3484777957" lon="34.6466362383"><ele>161.64</ele><time>2026-08-21T09:11:16Z</time></trkpt><trkpt lat="59.3484953139" lon="34.6466603782"><ele>161.64</ele><time>2026-08-21T09:11:56Z</time></trkpt><trkpt lat="59.3484902009" lon="34.6466372442"><ele>161.64</ele><time>2026-08-21T09:12:27Z</time></trkpt><trkpt lat="59.3485196214" lon="34.6466288622"><ele>161.64</ele><time>2026-08-21T09:12:56Z</time></trkpt><trkpt lat="59.3485151790" lon="34.6466116793"><ele>161.64</ele><time>2026-08-21T09:13:15Z</time></trkpt><trkpt lat="59.3484089803" lon="34.6465931553"><ele>161.64</ele><time>2026-08-21T09:13:26Z</time></trkpt><trkpt lat="59.3482968304" lon="34.6465776488"><ele>161.64</ele><time>2026-08-21T09:13:35Z</time></trkpt><trkpt lat="59.3481192179" lon="34.6464779880"><ele>161.64</ele><time>2026-08-21T09:13:51Z</time></trkpt><trkpt lat="59.3479040544" lon="34.6463603899"><ele>161.64</ele><time>2026-08-21T09:14:08Z</time></trkpt><trkpt lat="59.3477656692" lon="34.6463010460"><ele>161.64</ele><time>2026-08-21T09:14:27Z</time></trkpt><trkpt lat="59.3477223348" lon="34.6462239325"><ele>161.64</ele><time>2026-08-21T09:14:40Z</time></trkpt><trkpt lat="59.3475959357" lon="34.6458824538"><ele>161.64</ele><time>2026-08-21T09:14:59Z</time></trkpt><trkpt lat="59.3474294711" lon="34.6455040947"><ele>161.64</ele><time>2026-08-21T09:15:22Z</time></trkpt><trkpt lat="59.3473862205" lon="34.6454150788"><ele>161.64</ele><time>2026-08-21T09:15:45Z</time></trkpt><trkpt lat="59.3473562971" lon="34.6451575868"><ele>161.64</ele><time>2026-08-21T09:16:08Z</time></trkpt><trkpt lat="59.3473488372" lon="34.6451861691"><ele>161.64</ele><time>2026-08-21T09:16:26Z</time></trkpt><trkpt lat="59.3472735677" lon="34.6452319343"><ele>161.64</ele><time>2026-08-21T09:16:39Z</time></trkpt><trkpt lat="59.3471701350" lon="34.6453265660"><ele>159.72</ele><time>2026-08-21T09:16:54Z</time></trkpt><trkpt lat="59.3471130542" lon="34.6453375462"><ele>159.24</ele><time>2026-08-21T09:17:08Z</time></trkpt><trkpt lat="59.3471066840" lon="34.6453380492"><ele>159.24</ele><time>2026-08-21T09:17:23Z</time></trkpt><trkpt lat="59.3470812868" lon="34.6453697328"><ele>159.24</ele><time>2026-08-21T09:17:45Z</time></trkpt><trkpt lat="59.3470759224" lon="34.6453668829"><ele>158.75</ele><time>2026-08-21T09:18:07Z</time></trkpt><trkpt lat="59.3470522854" lon="34.6453778632"><ele>158.75</ele><time>2026-08-21T09:18:41Z</time></trkpt><trkpt lat="59.3470467534" lon="34.6453902684"><ele>158.75</ele><time>2026-08-21T09:19:12Z</time></trkpt><trkpt lat="59.3470484298" lon="34.6453963034"><ele>158.75</ele><time>2026-08-21T09:19:27Z</time></trkpt><trkpt lat="59.3470522854" lon="34.6453911066"><ele>158.75</ele><time>2026-08-21T09:19:48Z</time></trkpt><trkpt lat="59.3470718991" lon="34.6453990694"><ele>158.75</ele><time>2026-08-21T09:20:05Z</time></trkpt><trkpt lat="59.3470779341" lon="34.6454065293"><ele>158.75</ele><time>2026-08-21T09:20:31Z</time></trkpt><trkpt lat="59.3470838014" lon="34.6454066131"><ele>158.75</ele><time>2026-08-21T09:21:00Z</time></trkpt><trkpt lat="59.3470663670" lon="34.6453820542"><ele>158.75</ele><time>2026-08-21T09:21:24Z</time></trkpt><trkpt lat="59.3470538780" lon="34.6453886759"><ele>158.75</ele><time>2026-08-21T09:21:43Z</time></trkpt><trkpt lat="59.3470233679" lon="34.6453714930"><ele>158.75</ele><time>2026-08-21T09:21:46Z</time></trkpt><trkpt lat="59.3470009882" lon="34.6453507058"><ele>158.75</ele><time>2026-08-21T09:21:48Z</time></trkpt><trkpt lat="59.3469299097" lon="34.6452788729"><ele>158.75</ele><time>2026-08-21T09:22:02Z</time></trkpt><trkpt lat="59.3469281495" lon="34.6452712454"><ele>158.75</ele><time>2026-08-21T09:22:26Z</time></trkpt><trkpt lat="59.3469208572" lon="34.6452611871"><ele>158.75</ele><time>2026-08-21T09:22:45Z</time></trkpt><trkpt lat="59.3468763493" lon="34.6452594269"><ele>158.75</ele><time>2026-08-21T09:22:53Z</time></trkpt><trkpt lat="59.3468211126" lon="34.6451544017"><ele>158.75</ele><time>2026-08-21T09:23:04Z</time></trkpt><trkpt lat="59.3467854895" lon="34.6450961474"><ele>158.75</ele><time>2026-08-21T09:23:15Z</time></trkpt><trkpt lat="59.3467662111" lon="34.6450661402"><ele>158.75</ele><time>2026-08-21T09:23:19Z</time></trkpt><trkpt lat="59.3467464298" lon="34.6450604405"><ele>158.75</ele><time>2026-08-21T09:23:21Z</time></trkpt><trkpt lat="59.3466975633" lon="34.6449609473"><ele>158.75</ele><time>2026-08-21T09:23:29Z</time></trkpt><trkpt lat="59.3466960546" lon="34.6449601091"><ele>158.75</ele><time>2026-08-21T09:23:30Z</time></trkpt><trkpt lat="59.3466701545" lon="34.6449089795"><ele>158.75</ele><time>2026-08-21T09:23:33Z</time></trkpt><trkpt lat="59.3466026802" lon="34.6448264178"><ele>158.75</ele><time>2026-08-21T09:23:42Z</time></trkpt><trkpt lat="59.3465841562" lon="34.6448185388"><ele>158.75</ele><time>2026-08-21T09:23:44Z</time></trkpt><trkpt lat="59.3465472758" lon="34.6447684988"><ele>158.75</ele><time>2026-08-21T09:23:49Z</time></trkpt><trkpt lat="59.3465171009" lon="34.6447143517"><ele>158.75</ele><time>2026-08-21T09:23:53Z</time></trkpt><trkpt lat="59.3464010116" lon="34.6445923112"><ele>158.75</ele><time>2026-08-21T09:24:06Z</time></trkpt><trkpt lat="59.3463761173" lon="34.6445765533"><ele>158.75</ele><time>2026-08-21T09:24:09Z</time></trkpt><trkpt lat="59.3463664781" lon="34.6445461269"><ele>158.75</ele><time>2026-08-21T09:24:11Z</time></trkpt><trkpt lat="59.3463109899" lon="34.6444582846"><ele>158.75</ele><time>2026-08-21T09:24:19Z</time></trkpt><trkpt lat="59.3462975789" lon="34.6444291156"><ele>158.75</ele><time>2026-08-21T09:24:21Z</time></trkpt><trkpt lat="59.3462826591" lon="34.6444129385"><ele>158.75</ele><time>2026-08-21T09:24:23Z</time></trkpt><trkpt lat="59.3462277576" lon="34.6442833543"><ele>158.75</ele><time>2026-08-21T09:24:33Z</time></trkpt><trkpt lat="59.3461591098" lon="34.6441036463"><ele>158.75</ele><time>2026-08-21T09:24:44Z</time></trkpt><trkpt lat="59.3461156916" lon="34.6440203302"><ele>158.75</ele><time>2026-08-21T09:24:50Z</time></trkpt><trkpt lat="59.3460881989" lon="34.6439309791"><ele>158.75</ele><time>2026-08-21T09:25:04Z</time></trkpt><trkpt lat="59.3461303599" lon="34.6440098528"><ele>158.75</ele><time>2026-08-21T09:25:24Z</time></trkpt><trkpt lat="59.3461547513" lon="34.6440225095"><ele>158.75</ele><time>2026-08-21T09:25:40Z</time></trkpt><trkpt lat="59.3461456988" lon="34.6440201625"><ele>158.75</ele><time>2026-08-21T09:25:46Z</time></trkpt><trkpt lat="59.3460573535" lon="34.6439186577"><ele>158.75</ele><time>2026-08-21T09:25:56Z</time></trkpt><trkpt lat="59.3460498936" lon="34.6438661870"><ele>158.75</ele><time>2026-08-21T09:26:08Z</time></trkpt><trkpt lat="59.3460540846" lon="34.6438524406"><ele>158.75</ele><time>2026-08-21T09:26:20Z</time></trkpt><trkpt lat="59.3460716866" lon="34.6438962780"><ele>158.75</ele><time>2026-08-21T09:26:23Z</time></trkpt><trkpt lat="59.3461089861" lon="34.6439706255"><ele>158.75</ele><time>2026-08-21T09:26:28Z</time></trkpt><trkpt lat="59.3461226486" lon="34.6440373454"><ele>158.75</ele><time>2026-08-21T09:26:40Z</time></trkpt><trkpt lat="59.3461194634" lon="34.6440355852"><ele>158.75</ele><time>2026-08-21T09:27:09Z</time></trkpt><trkpt lat="59.3461188767" lon="34.6440326516"><ele>158.75</ele><time>2026-08-21T09:27:27Z</time></trkpt><trkpt lat="59.3462063000" lon="34.6440654248"><ele>158.75</ele><time>2026-08-21T09:27:38Z</time></trkpt><trkpt lat="59.3462179508" lon="34.6440647542"><ele>158.75</ele><time>2026-08-21T09:27:39Z</time></trkpt><trkpt lat="59.3463089783" lon="34.6441054065"><ele>158.75</ele><time>2026-08-21T09:27:49Z</time></trkpt><trkpt lat="59.3463756144" lon="34.6440977789"><ele>158.75</ele><time>2026-08-21T09:27:57Z</time></trkpt><trkpt lat="59.3464170210" lon="34.6440443862"><ele>158.75</ele><time>2026-08-21T09:28:02Z</time></trkpt><trkpt lat="59.3465135805" lon="34.6439691167"><ele>158.75</ele><time>2026-08-21T09:28:14Z</time></trkpt><trkpt lat="59.3465228844" lon="34.6439635847"><ele>158.75</ele><time>2026-08-21T09:28:15Z</time></trkpt><trkpt lat="59.3466070388" lon="34.6438920032"><ele>158.75</ele><time>2026-08-21T09:28:27Z</time></trkpt><trkpt lat="59.3466219585" lon="34.6438940149"><ele>158.75</ele><time>2026-08-21T09:28:29Z</time></trkpt><trkpt lat="59.3466493674" lon="34.6438977867"><ele>158.75</ele><time>2026-08-21T09:28:33Z</time></trkpt><trkpt lat="59.3466801289" lon="34.6438646782"><ele>158.75</ele><time>2026-08-21T09:28:37Z</time></trkpt><trkpt lat="59.3467728328" lon="34.6438695397"><ele>158.75</ele><time>2026-08-21T09:28:50Z</time></trkpt><trkpt lat="59.3468624353" lon="34.6439076774"><ele>158.75</ele><time>2026-08-21T09:29:01Z</time></trkpt><trkpt lat="59.3469124753" lon="34.6439168975"><ele>158.75</ele><time>2026-08-21T09:29:13Z</time></trkpt><trkpt lat="59.3469369505" lon="34.6438485011"><ele>159.24</ele><time>2026-08-21T09:29:28Z</time></trkpt><trkpt lat="59.3470000662" lon="34.6438055858"><ele>159.24</ele><time>2026-08-21T09:29:42Z</time></trkpt><trkpt lat="59.3470290676" lon="34.6437919233"><ele>158.75</ele><time>2026-08-21T09:29:58Z</time></trkpt><trkpt lat="59.3470614217" lon="34.6437547915"><ele>158.75</ele><time>2026-08-21T09:30:14Z</time></trkpt><trkpt lat="59.3471438158" lon="34.6437278856"><ele>160.68</ele><time>2026-08-21T09:30:28Z</time></trkpt><trkpt lat="59.3472507689" lon="34.6436137240"><ele>161.16</ele><time>2026-08-21T09:30:41Z</time></trkpt><trkpt lat="59.3473323248" lon="34.6434080321"><ele>161.16</ele><time>2026-08-21T09:30:53Z</time></trkpt><trkpt lat="59.3474065885" lon="34.6432074532"><ele>161.16</ele><time>2026-08-21T09:31:06Z</time></trkpt><trkpt lat="59.3474332429" lon="34.6430286672"><ele>161.16</ele><time>2026-08-21T09:31:21Z</time></trkpt><trkpt lat="59.3474303931" lon="34.6428693272"><ele>161.16</ele><time>2026-08-21T09:31:35Z</time></trkpt><trkpt lat="59.3474448100" lon="34.6427169442"><ele>161.16</ele><time>2026-08-21T09:31:50Z</time></trkpt><trkpt lat="59.3474500906" lon="34.6426337119"><ele>161.16</ele><time>2026-08-21T09:32:04Z</time></trkpt><trkpt lat="59.3474407867" lon="34.6424164530"><ele>160.68</ele><time>2026-08-21T09:32:19Z</time></trkpt><trkpt lat="59.3474329077" lon="34.6422454622"><ele>161.64</ele><time>2026-08-21T09:32:31Z</time></trkpt><trkpt lat="59.3473750725" lon="34.6421399340"><ele>161.16</ele><time>2026-08-21T09:32:42Z</time></trkpt><trkpt lat="59.3473680317" lon="34.6419533528"><ele>161.16</ele><time>2026-08-21T09:32:54Z</time></trkpt><trkpt lat="59.3473683670" lon="34.6418257803"><ele>161.64</ele><time>2026-08-21T09:33:08Z</time></trkpt><trkpt lat="59.3473617453" lon="34.6417779196"><ele>161.64</ele><time>2026-08-21T09:33:31Z</time></trkpt><trkpt lat="59.3473311514" lon="34.6417265385"><ele>161.64</ele><time>2026-08-21T09:33:46Z</time></trkpt><trkpt lat="59.3472816143" lon="34.6416060906"><ele>160.20</ele><time>2026-08-21T09:34:02Z</time></trkpt><trkpt lat="59.3471999746" lon="34.6414516121"><ele>160.20</ele><time>2026-08-21T09:34:20Z</time></trkpt><trkpt lat="59.3471379485" lon="34.6412220318"><ele>161.16</ele><time>2026-08-21T09:34:38Z</time></trkpt><trkpt lat="59.3471071869" lon="34.6410553157"><ele>161.16</ele><time>2026-08-21T09:34:50Z</time></trkpt><trkpt lat="59.3470912613" lon="34.6410576627"><ele>161.16</ele><time>2026-08-21T09:35:14Z</time></trkpt><trkpt lat="59.3470948655" lon="34.6410445869"><ele>162.12</ele><time>2026-08-21T09:35:43Z</time></trkpt><trkpt lat="59.3470915128" lon="34.6410567407"><ele>162.12</ele><time>2026-08-21T09:36:13Z</time></trkpt><trkpt lat="59.3470894173" lon="34.6410397254"><ele>162.60</ele><time>2026-08-21T09:36:43Z</time></trkpt><trkpt lat="59.3470894173" lon="34.6410309244"><ele>162.60</ele><time>2026-08-21T09:36:57Z</time></trkpt><trkpt lat="59.3470817059" lon="34.6410384681"><ele>162.60</ele><time>2026-08-21T09:37:14Z</time></trkpt><trkpt lat="59.3470878247" lon="34.6410313435"><ele>161.64</ele><time>2026-08-21T09:37:38Z</time></trkpt><trkpt lat="59.3470825441" lon="34.6410446707"><ele>161.64</ele><time>2026-08-21T09:38:01Z</time></trkpt><trkpt lat="59.3470792752" lon="34.6410439163"><ele>161.64</ele><time>2026-08-21T09:38:22Z</time></trkpt><trkpt lat="59.3470930215" lon="34.6410326846"><ele>162.12</ele><time>2026-08-21T09:38:44Z</time></trkpt><trkpt lat="59.3470763415" lon="34.6410404798"><ele>162.12</ele><time>2026-08-21T09:38:46Z</time></trkpt><trkpt lat="59.3469754234" lon="34.6410270687"><ele>162.12</ele><time>2026-08-21T09:38:55Z</time></trkpt><trkpt lat="59.3470139802" lon="34.6410680562"><ele>162.12</ele><time>2026-08-21T09:39:16Z</time></trkpt><trkpt lat="59.3470709771" lon="34.6410454251"><ele>162.12</ele><time>2026-08-21T09:39:45Z</time></trkpt><trkpt lat="59.3470661994" lon="34.6410707384"><ele>162.60</ele><time>2026-08-21T09:40:15Z</time></trkpt><trkpt lat="59.3470677920" lon="34.6410595067"><ele>162.60</ele><time>2026-08-21T09:40:42Z</time></trkpt><trkpt lat="59.3470651936" lon="34.6410674695"><ele>163.08</ele><time>2026-08-21T09:41:10Z</time></trkpt><trkpt lat="59.3470639363" lon="34.6410722472"><ele>163.08</ele><time>2026-08-21T09:41:33Z</time></trkpt><trkpt lat="59.3470687140" lon="34.6410964709"><ele>163.56</ele><time>2026-08-21T09:41:55Z</time></trkpt><trkpt lat="59.3470707256" lon="34.6410963032"><ele>163.56</ele><time>2026-08-21T09:42:20Z</time></trkpt><trkpt lat="59.3470706418" lon="34.6410945430"><ele>163.56</ele><time>2026-08-21T09:42:37Z</time></trkpt><trkpt lat="59.3470873218" lon="34.6410684753"><ele>164.04</ele><time>2026-08-21T09:42:59Z</time></trkpt><trkpt lat="59.3470984697" lon="34.6410261467"><ele>164.04</ele><time>2026-08-21T09:43:18Z</time></trkpt><trkpt lat="59.3471133895" lon="34.6410081256"><ele>164.04</ele><time>2026-08-21T09:43:41Z</time></trkpt><trkpt lat="59.3471080251" lon="34.6409980673"><ele>164.52</ele><time>2026-08-21T09:44:08Z</time></trkpt><trkpt lat="59.3471091148" lon="34.6409840696"><ele>164.52</ele><time>2026-08-21T09:44:34Z</time></trkpt><trkpt lat="59.3471100368" lon="34.6409839857"><ele>165.00</ele><time>2026-08-21T09:45:00Z</time></trkpt><trkpt lat="59.3471017387" lon="34.6409662161"><ele>165.00</ele><time>2026-08-21T09:45:17Z</time></trkpt><trkpt lat="59.3471031636" lon="34.6409543976"><ele>165.00</ele><time>2026-08-21T09:45:35Z</time></trkpt><trkpt lat="59.3471073546" lon="34.6409547329"><ele>165.48</ele><time>2026-08-21T09:46:04Z</time></trkpt><trkpt lat="59.3471051753" lon="34.6409573313"><ele>165.48</ele><time>2026-08-21T09:46:38Z</time></trkpt><trkpt lat="59.3471020740" lon="34.6409691498"><ele>165.96</ele><time>2026-08-21T09:47:04Z</time></trkpt><trkpt lat="59.3471029960" lon="34.6409732569"><ele>165.96</ele><time>2026-08-21T09:47:31Z</time></trkpt><trkpt lat="59.3471048400" lon="34.6409719996"><ele>165.96</ele><time>2026-08-21T09:47:56Z</time></trkpt><trkpt lat="59.3471041694" lon="34.6409716643"><ele>166.45</ele><time>2026-08-21T09:48:18Z</time></trkpt><trkpt lat="59.3470945302" lon="34.6409685630"><ele>166.45</ele><time>2026-08-21T09:48:50Z</time></trkpt><trkpt lat="59.3470959552" lon="34.6409564093"><ele>166.45</ele><time>2026-08-21T09:49:10Z</time></trkpt><trkpt lat="59.3470890820" lon="34.6409024298"><ele>166.45</ele><time>2026-08-21T09:49:27Z</time></trkpt><trkpt lat="59.3470521178" lon="34.6406660601"><ele>165.96</ele><time>2026-08-21T09:49:42Z</time></trkpt><trkpt lat="59.3469851464" lon="34.6405509766"><ele>165.48</ele><time>2026-08-21T09:49:59Z</time></trkpt><trkpt lat="59.3468030076" lon="34.6404669061"><ele>165.48</ele><time>2026-08-21T09:50:15Z</time></trkpt><trkpt lat="59.3466574140" lon="34.6404357255"><ele>165.48</ele><time>2026-08-21T09:50:30Z</time></trkpt><trkpt lat="59.3464337848" lon="34.6403989289"><ele>165.96</ele><time>2026-08-21T09:50:47Z</time></trkpt><trkpt lat="59.3463825714" lon="34.6402994357"><ele>165.96</ele><time>2026-08-21T09:51:02Z</time></trkpt><trkpt lat="59.3463767041" lon="34.6402246691"><ele>165.96</ele><time>2026-08-21T09:51:18Z</time></trkpt><trkpt lat="59.3463366386" lon="34.6401489805"><ele>165.48</ele><time>2026-08-21T09:51:33Z</time></trkpt><trkpt lat="59.3462415878" lon="34.6399442106"><ele>165.48</ele><time>2026-08-21T09:51:50Z</time></trkpt><trkpt lat="59.3460871093" lon="34.6396740619"><ele>165.48</ele><time>2026-08-21T09:52:10Z</time></trkpt><trkpt lat="59.3459889572" lon="34.6396181546"><ele>165.48</ele><time>2026-08-21T09:52:22Z</time></trkpt><trkpt lat="59.3458028790" lon="34.6394283883"><ele>165.48</ele><time>2026-08-21T09:52:34Z</time></trkpt><trkpt lat="59.3456635717" lon="34.6394572221"><ele>165.48</ele><time>2026-08-21T09:52:48Z</time></trkpt><trkpt lat="59.3456429522" lon="34.6394583955"><ele>165.00</ele><time>2026-08-21T09:53:15Z</time></trkpt><trkpt lat="59.3456333131" lon="34.6394606587"><ele>165.00</ele><time>2026-08-21T09:53:39Z</time></trkpt><trkpt lat="59.3456275295" lon="34.6394562162"><ele>165.00</ele><time>2026-08-21T09:54:04Z</time></trkpt><trkpt lat="59.3456391804" lon="34.6394588146"><ele>164.52</ele><time>2026-08-21T09:54:32Z</time></trkpt><trkpt lat="59.3457183056" lon="34.6394780092"><ele>164.52</ele><time>2026-08-21T09:54:46Z</time></trkpt><trkpt lat="59.3458418548" lon="34.6395254508"><ele>165.48</ele><time>2026-08-21T09:54:59Z</time></trkpt><trkpt lat="59.3459203932" lon="34.6396557055"><ele>165.48</ele><time>2026-08-21T09:55:16Z</time></trkpt><trkpt lat="59.3459785637" lon="34.6397360042"><ele>165.00</ele><time>2026-08-21T09:55:34Z</time></trkpt><trkpt lat="59.3460519891" lon="34.6398054902"><ele>165.00</ele><time>2026-08-21T09:55:41Z</time></trkpt><trkpt lat="59.3462022766" lon="34.6399104316"><ele>165.00</ele><time>2026-08-21T09:55:57Z</time></trkpt><trkpt lat="59.3462427612" lon="34.6399332304"><ele>165.00</ele><time>2026-08-21T09:56:29Z</time></trkpt><trkpt lat="59.3462627102" lon="34.6399380080"><ele>165.00</ele><time>2026-08-21T09:56:46Z</time></trkpt><trkpt lat="59.3462670688" lon="34.6399565320"><ele>165.00</ele><time>2026-08-21T09:57:11Z</time></trkpt><trkpt lat="59.3462844193" lon="34.6399868745"><ele>165.00</ele><time>2026-08-21T09:57:43Z</time></trkpt><trkpt lat="59.3463249877" lon="34.6400456317"><ele>165.00</ele><time>2026-08-21T09:58:09Z</time></trkpt><trkpt lat="59.3463772070" lon="34.6400981024"><ele>165.00</ele><time>2026-08-21T09:58:22Z</time></trkpt><trkpt lat="59.3463830743" lon="34.6401167102"><ele>165.48</ele><time>2026-08-21T09:58:36Z</time></trkpt><trkpt lat="59.3464367185" lon="34.6402710211"><ele>165.48</ele><time>2026-08-21T09:58:51Z</time></trkpt><trkpt lat="59.3465935439" lon="34.6403876971"><ele>165.48</ele><time>2026-08-21T09:59:09Z</time></trkpt><trkpt lat="59.3466696516" lon="34.6404606197"><ele>165.48</ele><time>2026-08-21T09:59:26Z</time></trkpt><trkpt lat="59.3467872497" lon="34.6404949855"><ele>165.48</ele><time>2026-08-21T09:59:39Z</time></trkpt><trkpt lat="59.3468543049" lon="34.6405472886"><ele>164.52</ele><time>2026-08-21T09:59:51Z</time></trkpt><trkpt lat="59.3468973879" lon="34.6406152658"><ele>164.52</ele><time>2026-08-21T10:00:07Z</time></trkpt><trkpt lat="59.3469202705" lon="34.6406517271"><ele>164.04</ele><time>2026-08-21T10:00:29Z</time></trkpt><trkpt lat="59.3469312508" lon="34.6406633779"><ele>165.00</ele><time>2026-08-21T10:00:52Z</time></trkpt><trkpt lat="59.3469470087" lon="34.6406749450"><ele>165.00</ele><time>2026-08-21T10:01:16Z</time></trkpt><trkpt lat="59.3469579890" lon="34.6406787168"><ele>165.00</ele><time>2026-08-21T10:01:32Z</time></trkpt><trkpt lat="59.3469837215" lon="34.6407034434"><ele>164.04</ele><time>2026-08-21T10:01:41Z</time></trkpt><trkpt lat="59.3470272236" lon="34.6407027729"><ele>164.04</ele><time>2026-08-21T10:01:57Z</time></trkpt><trkpt lat="59.3470648583" lon="34.6406897809"><ele>164.04</ele><time>2026-08-21T10:02:15Z</time></trkpt><trkpt lat="59.3472066801" lon="34.6405794751"><ele>164.04</ele><time>2026-08-21T10:02:26Z</time></trkpt><trkpt lat="59.3474415410" lon="34.6404841729"><ele>162.60</ele><time>2026-08-21T10:02:43Z</time></trkpt><trkpt lat="59.3476033956" lon="34.6403622162"><ele>162.60</ele><time>2026-08-21T10:02:52Z</time></trkpt><trkpt lat="59.3476927467" lon="34.6403098293"><ele>162.12</ele><time>2026-08-21T10:03:04Z</time></trkpt><trkpt lat="59.3478184752" lon="34.6401744615"><ele>162.12</ele><time>2026-08-21T10:03:18Z</time></trkpt><trkpt lat="59.3478643242" lon="34.6401393414"><ele>162.12</ele><time>2026-08-21T10:03:27Z</time></trkpt><trkpt lat="59.3480182160" lon="34.6400509961"><ele>162.12</ele><time>2026-08-21T10:03:40Z</time></trkpt><trkpt lat="59.3480841815" lon="34.6398220025"><ele>162.12</ele><time>2026-08-21T10:03:53Z</time></trkpt><trkpt lat="59.3481247500" lon="34.6397517622"><ele>162.12</ele><time>2026-08-21T10:04:08Z</time></trkpt><trkpt lat="59.3481918890" lon="34.6396727208"><ele>162.12</ele><time>2026-08-21T10:04:20Z</time></trkpt><trkpt lat="59.3482853472" lon="34.6396014746"><ele>162.12</ele><time>2026-08-21T10:04:32Z</time></trkpt><trkpt lat="59.3483861815" lon="34.6395533625"><ele>162.12</ele><time>2026-08-21T10:04:45Z</time></trkpt><trkpt lat="59.3484020233" lon="34.6395453997"><ele>162.12</ele><time>2026-08-21T10:04:50Z</time></trkpt><trkpt lat="59.3485262431" lon="34.6395009756"><ele>162.12</ele><time>2026-08-21T10:05:02Z</time></trkpt><trkpt lat="59.3486285862" lon="34.6394471638"><ele>162.12</ele><time>2026-08-21T10:05:13Z</time></trkpt><trkpt lat="59.3487252295" lon="34.6393910050"><ele>162.12</ele><time>2026-08-21T10:05:25Z</time></trkpt><trkpt lat="59.3487814721" lon="34.6393750794"><ele>162.12</ele><time>2026-08-21T10:05:37Z</time></trkpt><trkpt lat="59.3489432428" lon="34.6393801086"><ele>162.12</ele><time>2026-08-21T10:05:50Z</time></trkpt><trkpt lat="59.3490237929" lon="34.6393689606"><ele>162.12</ele><time>2026-08-21T10:06:03Z</time></trkpt><trkpt lat="59.3490774371" lon="34.6393977106"><ele>162.12</ele><time>2026-08-21T10:06:13Z</time></trkpt><trkpt lat="59.3491295725" lon="34.6394360159"><ele>162.12</ele><time>2026-08-21T10:06:27Z</time></trkpt><trkpt lat="59.3491635192" lon="34.6394570544"><ele>162.12</ele><time>2026-08-21T10:06:42Z</time></trkpt><trkpt lat="59.3491988908" lon="34.6394858882"><ele>162.60</ele><time>2026-08-21T10:06:54Z</time></trkpt><trkpt lat="59.3492832128" lon="34.6395178232"><ele>162.60</ele><time>2026-08-21T10:07:10Z</time></trkpt><trkpt lat="59.3493285589" lon="34.6395420469"><ele>162.60</ele><time>2026-08-21T10:07:24Z</time></trkpt><trkpt lat="59.3494709674" lon="34.6395578887"><ele>162.60</ele><time>2026-08-21T10:07:38Z</time></trkpt><trkpt lat="59.3496698700" lon="34.6395234391"><ele>162.60</ele><time>2026-08-21T10:07:56Z</time></trkpt><trkpt lat="59.3497885577" lon="34.6395567153"><ele>162.12</ele><time>2026-08-21T10:08:06Z</time></trkpt><trkpt lat="59.3499636557" lon="34.6396350022"><ele>162.12</ele><time>2026-08-21T10:08:21Z</time></trkpt><trkpt lat="59.3501096684" lon="34.6397727169"><ele>162.12</ele><time>2026-08-21T10:08:37Z</time></trkpt><trkpt lat="59.3501564395" lon="34.6398462262"><ele>162.12</ele><time>2026-08-21T10:08:53Z</time></trkpt><trkpt lat="59.3501848541" lon="34.6398755629"><ele>162.12</ele><time>2026-08-21T10:09:19Z</time></trkpt><trkpt lat="59.3501943257" lon="34.6398958471"><ele>162.12</ele><time>2026-08-21T10:09:39Z</time></trkpt><trkpt lat="59.3502028752" lon="34.6399039775"><ele>161.64</ele><time>2026-08-21T10:10:04Z</time></trkpt><trkpt lat="59.3502099160" lon="34.6399082523"><ele>161.64</ele><time>2026-08-21T10:10:32Z</time></trkpt><trkpt lat="59.3502135202" lon="34.6399131138"><ele>161.64</ele><time>2026-08-21T10:10:55Z</time></trkpt><trkpt lat="59.3502197228" lon="34.6399198193"><ele>161.64</ele><time>2026-08-21T10:11:21Z</time></trkpt><trkpt lat="59.3502239138" lon="34.6399267763"><ele>161.64</ele><time>2026-08-21T10:11:48Z</time></trkpt><trkpt lat="59.3502357323" lon="34.6399081685"><ele>161.64</ele><time>2026-08-21T10:12:12Z</time></trkpt><trkpt lat="59.3502387498" lon="34.6399085037"><ele>161.64</ele><time>2026-08-21T10:12:32Z</time></trkpt><trkpt lat="59.3502405938" lon="34.6399115212"><ele>161.64</ele><time>2026-08-21T10:12:52Z</time></trkpt><trkpt lat="59.3502446171" lon="34.6399141196"><ele>161.64</ele><time>2026-08-21T10:13:20Z</time></trkpt><trkpt lat="59.3502488919" lon="34.6399130300"><ele>161.64</ele><time>2026-08-21T10:13:47Z</time></trkpt><trkpt lat="59.3502472993" lon="34.6399164665"><ele>161.64</ele><time>2026-08-21T10:14:14Z</time></trkpt><trkpt lat="59.3502882030" lon="34.6399393491"><ele>161.64</ele><time>2026-08-21T10:14:32Z</time></trkpt><trkpt lat="59.3502887897" lon="34.6399609745"><ele>161.64</ele><time>2026-08-21T10:14:53Z</time></trkpt><trkpt lat="59.3502949923" lon="34.6399632376"><ele>161.64</ele><time>2026-08-21T10:15:14Z</time></trkpt><trkpt lat="59.3503352255" lon="34.6400232520"><ele>161.64</ele><time>2026-08-21T10:15:30Z</time></trkpt><trkpt lat="59.3503726088" lon="34.6400820930"><ele>161.64</ele><time>2026-08-21T10:15:40Z</time></trkpt><trkpt lat="59.3504757900" lon="34.6400750522"><ele>161.64</ele><time>2026-08-21T10:15:53Z</time></trkpt><trkpt lat="59.3505867664" lon="34.6400577016"><ele>161.64</ele><time>2026-08-21T10:16:05Z</time></trkpt><trkpt lat="59.3506693281" lon="34.6400476433"><ele>161.64</ele><time>2026-08-21T10:16:19Z</time></trkpt><trkpt lat="59.3507479504" lon="34.6400141995"><ele>161.64</ele><time>2026-08-21T10:16:31Z</time></trkpt><trkpt lat="59.3508094735" lon="34.6399990283"><ele>161.64</ele><time>2026-08-21T10:16:47Z</time></trkpt><trkpt lat="59.3509787042" lon="34.6398810111"><ele>161.64</ele><time>2026-08-21T10:17:01Z</time></trkpt><trkpt lat="59.3510796223" lon="34.6398538537"><ele>161.64</ele><time>2026-08-21T10:17:14Z</time></trkpt><trkpt lat="59.3512040097" lon="34.6397893969"><ele>161.64</ele><time>2026-08-21T10:17:29Z</time></trkpt><trkpt lat="59.3512543850" lon="34.6398072504"><ele>161.64</ele><time>2026-08-21T10:17:42Z</time></trkpt><trkpt lat="59.3512591626" lon="34.6398151293"><ele>161.64</ele><time>2026-08-21T10:18:00Z</time></trkpt><trkpt lat="59.3512895051" lon="34.6398240980"><ele>161.64</ele><time>2026-08-21T10:18:26Z</time></trkpt><trkpt lat="59.3512978870" lon="34.6398369223"><ele>161.64</ele><time>2026-08-21T10:18:46Z</time></trkpt><trkpt lat="59.3513176683" lon="34.6398536023"><ele>162.60</ele><time>2026-08-21T10:19:15Z</time></trkpt><trkpt lat="59.3513684627" lon="34.6398344077"><ele>163.56</ele><time>2026-08-21T10:19:34Z</time></trkpt><trkpt lat="59.3514030799" lon="34.6398499142"><ele>161.64</ele><time>2026-08-21T10:19:51Z</time></trkpt><trkpt lat="59.3514596578" lon="34.6398371737"><ele>161.64</ele><time>2026-08-21T10:20:02Z</time></trkpt><trkpt lat="59.3515606597" lon="34.6398313902"><ele>161.64</ele><time>2026-08-21T10:20:15Z</time></trkpt><trkpt lat="59.3516547047" lon="34.6398241818"><ele>161.64</ele><time>2026-08-21T10:20:28Z</time></trkpt><trkpt lat="59.3517381884" lon="34.6397895645"><ele>161.64</ele><time>2026-08-21T10:20:39Z</time></trkpt><trkpt lat="59.3517904077" lon="34.6396451443"><ele>161.64</ele><time>2026-08-21T10:20:51Z</time></trkpt><trkpt lat="59.3518712092" lon="34.6395375207"><ele>161.64</ele><time>2026-08-21T10:21:05Z</time></trkpt><trkpt lat="59.3519064970" lon="34.6394464932"><ele>161.64</ele><time>2026-08-21T10:21:16Z</time></trkpt><trkpt lat="59.3520066608" lon="34.6392244566"><ele>161.64</ele><time>2026-08-21T10:21:31Z</time></trkpt><trkpt lat="59.3521303777" lon="34.6391330101"><ele>161.64</ele><time>2026-08-21T10:21:44Z</time></trkpt><trkpt lat="59.3522202317" lon="34.6390613448"><ele>161.64</ele><time>2026-08-21T10:21:59Z</time></trkpt><trkpt lat="59.3523342256" lon="34.6390755940"><ele>161.64</ele><time>2026-08-21T10:22:13Z</time></trkpt><trkpt lat="59.3524611276" lon="34.6391741652"><ele>161.64</ele><time>2026-08-21T10:22:28Z</time></trkpt><trkpt lat="59.3525996804" lon="34.6390535496"><ele>161.64</ele><time>2026-08-21T10:22:44Z</time></trkpt><trkpt lat="59.3527188711" lon="34.6390042640"><ele>161.64</ele><time>2026-08-21T10:22:59Z</time></trkpt><trkpt lat="59.3527756166" lon="34.6389858238"><ele>161.64</ele><time>2026-08-21T10:23:14Z</time></trkpt><trkpt lat="59.3528535683" lon="34.6390305832"><ele>161.64</ele><time>2026-08-21T10:23:24Z</time></trkpt><trkpt lat="59.3529243954" lon="34.6390508674"><ele>161.16</ele><time>2026-08-21T10:23:37Z</time></trkpt><trkpt lat="59.3529582582" lon="34.6390386298"><ele>161.16</ele><time>2026-08-21T10:23:49Z</time></trkpt><trkpt lat="59.3531191908" lon="34.6390963811"><ele>161.16</ele><time>2026-08-21T10:24:01Z</time></trkpt><trkpt lat="59.3531947117" lon="34.6390873287"><ele>161.64</ele><time>2026-08-21T10:24:13Z</time></trkpt><trkpt lat="59.3533170037" lon="34.6389390528"><ele>161.16</ele><time>2026-08-21T10:24:29Z</time></trkpt><trkpt lat="59.3533908483" lon="34.6388895996"><ele>161.16</ele><time>2026-08-21T10:24:47Z</time></trkpt><trkpt lat="59.3535510264" lon="34.6387549862"><ele>161.16</ele><time>2026-08-21T10:25:04Z</time></trkpt><trkpt lat="59.3536271341" lon="34.6387268230"><ele>161.16</ele><time>2026-08-21T10:25:22Z</time></trkpt><trkpt lat="59.3537858035" lon="34.6386880986"><ele>161.16</ele><time>2026-08-21T10:25:36Z</time></trkpt><trkpt lat="59.3538082670" lon="34.6386650484"><ele>161.16</ele><time>2026-08-21T10:25:54Z</time></trkpt><trkpt lat="59.3537956104" lon="34.6386487875"><ele>161.64</ele><time>2026-08-21T10:26:12Z</time></trkpt><trkpt lat="59.3537806906" lon="34.6386399027"><ele>161.64</ele><time>2026-08-21T10:26:36Z</time></trkpt><trkpt lat="59.3537758291" lon="34.6386292577"><ele>161.64</ele><time>2026-08-21T10:27:02Z</time></trkpt><trkpt lat="59.3537776731" lon="34.6386300121"><ele>161.64</ele><time>2026-08-21T10:27:27Z</time></trkpt><trkpt lat="59.3537969515" lon="34.6386464406"><ele>161.64</ele><time>2026-08-21T10:27:44Z</time></trkpt><trkpt lat="59.3538324907" lon="34.6386402380"><ele>161.64</ele><time>2026-08-21T10:28:02Z</time></trkpt><trkpt lat="59.3538520206" lon="34.6386827342"><ele>161.64</ele><time>2026-08-21T10:28:30Z</time></trkpt><trkpt lat="59.3538428005" lon="34.6386347897"><ele>161.16</ele><time>2026-08-21T10:29:24Z</time></trkpt><trkpt lat="59.3538647611" lon="34.6386451833"><ele>161.16</ele><time>2026-08-21T10:29:45Z</time></trkpt><trkpt lat="59.3538395315" lon="34.6386480331"><ele>161.16</ele><time>2026-08-21T10:30:07Z</time></trkpt><trkpt lat="59.3538540322" lon="34.6386010945"><ele>161.64</ele><time>2026-08-21T10:30:35Z</time></trkpt><trkpt lat="59.3538754061" lon="34.6386779565"><ele>161.64</ele><time>2026-08-21T10:30:54Z</time></trkpt><trkpt lat="59.3538908288" lon="34.6386530623"><ele>161.64</ele><time>2026-08-21T10:31:24Z</time></trkpt><trkpt lat="59.3538835365" lon="34.6386461891"><ele>162.12</ele><time>2026-08-21T10:31:52Z</time></trkpt><trkpt lat="59.3538802676" lon="34.6386273298"><ele>162.12</ele><time>2026-08-21T10:32:16Z</time></trkpt><trkpt lat="59.3538806029" lon="34.6386330295"><ele>162.12</ele><time>2026-08-21T10:32:43Z</time></trkpt><trkpt lat="59.3538667727" lon="34.6386129130"><ele>162.12</ele><time>2026-08-21T10:33:04Z</time></trkpt><trkpt lat="59.3538623303" lon="34.6386218816"><ele>162.12</ele><time>2026-08-21T10:33:28Z</time></trkpt><trkpt lat="59.3538184091" lon="34.6386115719"><ele>162.60</ele><time>2026-08-21T10:33:53Z</time></trkpt><trkpt lat="59.3538519368" lon="34.6385092288"><ele>162.60</ele><time>2026-08-21T10:34:11Z</time></trkpt><trkpt lat="59.3538459018" lon="34.6386377234"><ele>162.12</ele><time>2026-08-21T10:34:34Z</time></trkpt><trkpt lat="59.3538531102" lon="34.6386560798"><ele>162.12</ele><time>2026-08-21T10:34:51Z</time></trkpt><trkpt lat="59.3538258690" lon="34.6386643779"><ele>162.12</ele><time>2026-08-21T10:35:18Z</time></trkpt><trkpt lat="59.3538231030" lon="34.6386287548"><ele>162.12</ele><time>2026-08-21T10:35:50Z</time></trkpt><trkpt lat="59.3538273778" lon="34.6386212111"><ele>162.12</ele><time>2026-08-21T10:36:21Z</time></trkpt><trkpt lat="59.3538398668" lon="34.6386414953"><ele>163.56</ele><time>2026-08-21T10:36:58Z</time></trkpt><trkpt lat="59.3538371846" lon="34.6386508830"><ele>163.56</ele><time>2026-08-21T10:37:29Z</time></trkpt><trkpt lat="59.3538324907" lon="34.6386372205"><ele>162.60</ele><time>2026-08-21T10:37:54Z</time></trkpt><trkpt lat="59.3538293894" lon="34.6386296768"><ele>162.60</ele><time>2026-08-21T10:38:11Z</time></trkpt><trkpt lat="59.3538240250" lon="34.6386199538"><ele>163.08</ele><time>2026-08-21T10:38:28Z</time></trkpt><trkpt lat="59.3538257014" lon="34.6385829058"><ele>163.08</ele><time>2026-08-21T10:38:52Z</time></trkpt><trkpt lat="59.3538206723" lon="34.6385750268"><ele>163.08</ele><time>2026-08-21T10:39:12Z</time></trkpt><trkpt lat="59.3538220972" lon="34.6385710873"><ele>163.08</ele><time>2026-08-21T10:39:37Z</time></trkpt><trkpt lat="59.3538220134" lon="34.6385657229"><ele>163.08</ele><time>2026-08-21T10:40:00Z</time></trkpt><trkpt lat="59.3538364302" lon="34.6385290939"><ele>163.08</ele><time>2026-08-21T10:40:20Z</time></trkpt><trkpt lat="59.3537911680" lon="34.6385501325"><ele>162.60</ele><time>2026-08-21T10:40:50Z</time></trkpt><trkpt lat="59.3537945207" lon="34.6385508031"><ele>162.60</ele><time>2026-08-21T10:41:14Z</time></trkpt><trkpt lat="59.3537998013" lon="34.6385609452"><ele>162.60</ele><time>2026-08-21T10:41:40Z</time></trkpt><trkpt lat="59.3538099434" lon="34.6384559199"><ele>162.12</ele><time>2026-08-21T10:42:01Z</time></trkpt><trkpt lat="59.3538041599" lon="34.6386019327"><ele>162.12</ele><time>2026-08-21T10:42:25Z</time></trkpt><trkpt lat="59.3537832890" lon="34.6385944728"><ele>162.60</ele><time>2026-08-21T10:42:42Z</time></trkpt><trkpt lat="59.3537876476" lon="34.6385887731"><ele>162.60</ele><time>2026-08-21T10:43:06Z</time></trkpt><trkpt lat="59.3537972029" lon="34.6385815646"><ele>162.60</ele><time>2026-08-21T10:43:23Z</time></trkpt><trkpt lat="59.3538137153" lon="34.6385953110"><ele>162.60</ele><time>2026-08-21T10:43:41Z</time></trkpt><trkpt lat="59.3538165651" lon="34.6385977417"><ele>162.60</ele><time>2026-08-21T10:44:03Z</time></trkpt><trkpt lat="59.3538160622" lon="34.6385848336"><ele>162.60</ele><time>2026-08-21T10:44:30Z</time></trkpt><trkpt lat="59.3538159784" lon="34.6385764517"><ele>162.60</ele><time>2026-08-21T10:45:05Z</time></trkpt><trkpt lat="59.3538226001" lon="34.6385930479"><ele>162.60</ele><time>2026-08-21T10:45:39Z</time></trkpt><trkpt lat="59.3538232706" lon="34.6385893598"><ele>162.12</ele><time>2026-08-21T10:46:10Z</time></trkpt><trkpt lat="59.3538239412" lon="34.6385882702"><ele>162.60</ele><time>2026-08-21T10:46:42Z</time></trkpt><trkpt lat="59.3538311496" lon="34.6385860909"><ele>162.60</ele><time>2026-08-21T10:47:10Z</time></trkpt><trkpt lat="59.3538418785" lon="34.6385803074"><ele>162.60</ele><time>2026-08-21T10:47:39Z</time></trkpt><trkpt lat="59.3538345024" lon="34.6386068780"><ele>162.60</ele><time>2026-08-21T10:48:07Z</time></trkpt><trkpt lat="59.3538389448" lon="34.6386054531"><ele>162.12</ele><time>2026-08-21T10:48:30Z</time></trkpt><trkpt lat="59.3538247794" lon="34.6386001725"><ele>162.12</ele><time>2026-08-21T10:48:50Z</time></trkpt><trkpt lat="59.3538227677" lon="34.6385994181"><ele>162.60</ele><time>2026-08-21T10:49:16Z</time></trkpt><trkpt lat="59.3538259529" lon="34.6385480370"><ele>162.60</ele><time>2026-08-21T10:49:35Z</time></trkpt><trkpt lat="59.3538231030" lon="34.6385165211"><ele>162.60</ele><time>2026-08-21T10:49:38Z</time></trkpt><trkpt lat="59.3538268749" lon="34.6384103224"><ele>162.60</ele><time>2026-08-21T10:49:44Z</time></trkpt><trkpt lat="59.3538027350" lon="34.6381644811"><ele>162.60</ele><time>2026-08-21T10:49:57Z</time></trkpt><trkpt lat="59.3537662737" lon="34.6379266866"><ele>162.60</ele><time>2026-08-21T10:50:09Z</time></trkpt><trkpt lat="59.3537558801" lon="34.6378384251"><ele>162.60</ele><time>2026-08-21T10:50:13Z</time></trkpt><trkpt lat="59.3537678663" lon="34.6376349125"><ele>162.60</ele><time>2026-08-21T10:50:25Z</time></trkpt><trkpt lat="59.3538029026" lon="34.6374097746"><ele>162.60</ele><time>2026-08-21T10:50:37Z</time></trkpt><trkpt lat="59.3538385257" lon="34.6372481715"><ele>162.60</ele><time>2026-08-21T10:50:48Z</time></trkpt><trkpt lat="59.3538587261" lon="34.6371596586"><ele>163.56</ele><time>2026-08-21T10:50:59Z</time></trkpt><trkpt lat="59.3538003042" lon="34.6371296514"><ele>164.04</ele><time>2026-08-21T10:51:30Z</time></trkpt><trkpt lat="59.3537704647" lon="34.6370281465"><ele>164.04</ele><time>2026-08-21T10:51:42Z</time></trkpt><trkpt lat="59.3536985479" lon="34.6370245423"><ele>164.04</ele><time>2026-08-21T10:51:57Z</time></trkpt><trkpt lat="59.3536079396" lon="34.6369518712"><ele>164.04</ele><time>2026-08-21T10:52:09Z</time></trkpt><trkpt lat="59.3535439856" lon="34.6368880849"><ele>164.04</ele><time>2026-08-21T10:52:21Z</time></trkpt><trkpt lat="59.3535249587" lon="34.6367563214"><ele>164.04</ele><time>2026-08-21T10:52:33Z</time></trkpt><trkpt lat="59.3534392957" lon="34.6366809681"><ele>163.56</ele><time>2026-08-21T10:52:46Z</time></trkpt><trkpt lat="59.3533583265" lon="34.6367171779"><ele>164.04</ele><time>2026-08-21T10:53:02Z</time></trkpt><trkpt lat="59.3533334322" lon="34.6367522143"><ele>164.04</ele><time>2026-08-21T10:53:05Z</time></trkpt><trkpt lat="59.3532321788" lon="34.6367878374"><ele>164.04</ele><time>2026-08-21T10:53:18Z</time></trkpt><trkpt lat="59.3531352002" lon="34.6367787849"><ele>164.04</ele><time>2026-08-21T10:53:32Z</time></trkpt><trkpt lat="59.3530653790" lon="34.6369817946"><ele>164.04</ele><time>2026-08-21T10:53:52Z</time></trkpt><trkpt lat="59.3529487029" lon="34.6371867321"><ele>164.04</ele><time>2026-08-21T10:54:06Z</time></trkpt><trkpt lat="59.3528946396" lon="34.6371883247"><ele>164.04</ele><time>2026-08-21T10:54:19Z</time></trkpt><trkpt lat="59.3527891953" lon="34.6372590680"><ele>163.56</ele><time>2026-08-21T10:54:35Z</time></trkpt><trkpt lat="59.3527401611" lon="34.6373301465"><ele>163.56</ele><time>2026-08-21T10:54:54Z</time></trkpt><trkpt lat="59.3527440168" lon="34.6373231057"><ele>163.56</ele><time>2026-08-21T10:55:24Z</time></trkpt><trkpt lat="59.3527393229" lon="34.6373290569"><ele>163.56</ele><time>2026-08-21T10:55:43Z</time></trkpt><trkpt lat="59.3527467828" lon="34.6373281348"><ele>163.56</ele><time>2026-08-21T10:56:04Z</time></trkpt><trkpt lat="59.3527399097" lon="34.6373236924"><ele>163.56</ele><time>2026-08-21T10:56:23Z</time></trkpt><trkpt lat="59.3527378142" lon="34.6373310685"><ele>163.56</ele><time>2026-08-21T10:56:47Z</time></trkpt><trkpt lat="59.3527346291" lon="34.6373303980"><ele>163.56</ele><time>2026-08-21T10:57:09Z</time></trkpt><trkpt lat="59.3526833318" lon="34.6372497641"><ele>163.56</ele><time>2026-08-21T10:57:24Z</time></trkpt><trkpt lat="59.3526389915" lon="34.6372638457"><ele>164.52</ele><time>2026-08-21T10:57:37Z</time></trkpt><trkpt lat="59.3525701761" lon="34.6372987982"><ele>164.52</ele><time>2026-08-21T10:57:50Z</time></trkpt><trkpt lat="59.3524794001" lon="34.6372805256"><ele>164.52</ele><time>2026-08-21T10:58:08Z</time></trkpt><trkpt lat="59.3523460440" lon="34.6372465789"><ele>164.04</ele><time>2026-08-21T10:58:23Z</time></trkpt><trkpt lat="59.3523042183" lon="34.6372614987"><ele>164.04</ele><time>2026-08-21T10:58:27Z</time></trkpt><trkpt lat="59.3522148672" lon="34.6373162325"><ele>164.04</ele><time>2026-08-21T10:58:42Z</time></trkpt><trkpt lat="59.3521105964" lon="34.6373639256"><ele>164.04</ele><time>2026-08-21T10:58:57Z</time></trkpt><trkpt lat="59.3519651704" lon="34.6373436414"><ele>164.04</ele><time>2026-08-21T10:59:13Z</time></trkpt><trkpt lat="59.3519057427" lon="34.6373398695"><ele>164.04</ele><time>2026-08-21T10:59:26Z</time></trkpt><trkpt lat="59.3517851271" lon="34.6373381931"><ele>164.04</ele><time>2026-08-21T10:59:42Z</time></trkpt><trkpt lat="59.3516364321" lon="34.6374277119"><ele>164.04</ele><time>2026-08-21T10:59:57Z</time></trkpt><trkpt lat="59.3515470810" lon="34.6375033166"><ele>164.04</ele><time>2026-08-21T11:00:10Z</time></trkpt><trkpt lat="59.3513827119" lon="34.6376655903"><ele>164.04</ele><time>2026-08-21T11:00:27Z</time></trkpt><trkpt lat="59.3512677960" lon="34.6377354115"><ele>164.04</ele><time>2026-08-21T11:00:42Z</time></trkpt><trkpt lat="59.3511773553" lon="34.6377953421"><ele>164.04</ele><time>2026-08-21T11:00:59Z</time></trkpt><trkpt lat="59.3510677200" lon="34.6377999522"><ele>164.04</ele><time>2026-08-21T11:01:13Z</time></trkpt><trkpt lat="59.3510469329" lon="34.6377973538"><ele>164.04</ele><time>2026-08-21T11:01:39Z</time></trkpt><trkpt lat="59.3510357011" lon="34.6378200687"><ele>164.04</ele><time>2026-08-21T11:02:01Z</time></trkpt><trkpt lat="59.3509082124" lon="34.6378758922"><ele>163.56</ele><time>2026-08-21T11:02:14Z</time></trkpt><trkpt lat="59.3508207891" lon="34.6378810890"><ele>163.56</ele><time>2026-08-21T11:02:28Z</time></trkpt><trkpt lat="59.3506603595" lon="34.6379291173"><ele>163.56</ele><time>2026-08-21T11:02:48Z</time></trkpt><trkpt lat="59.3505734392" lon="34.6379690152"><ele>163.56</ele><time>2026-08-21T11:03:06Z</time></trkpt><trkpt lat="59.3504530750" lon="34.6379952505"><ele>163.56</ele><time>2026-08-21T11:03:20Z</time></trkpt><trkpt lat="59.3502826709" lon="34.6379765589"><ele>163.56</ele><time>2026-08-21T11:03:39Z</time></trkpt><trkpt lat="59.3502369896" lon="34.6379784029"><ele>163.56</ele><time>2026-08-21T11:03:53Z</time></trkpt><trkpt lat="59.3500950001" lon="34.6380317956"><ele>163.08</ele><time>2026-08-21T11:04:06Z</time></trkpt><trkpt lat="59.3499519210" lon="34.6380864456"><ele>163.08</ele><time>2026-08-21T11:04:22Z</time></trkpt><trkpt lat="59.3498256896" lon="34.6381937340"><ele>163.08</ele><time>2026-08-21T11:04:38Z</time></trkpt><trkpt lat="59.3496116158" lon="34.6382811572"><ele>163.08</ele><time>2026-08-21T11:04:55Z</time></trkpt><trkpt lat="59.3494961131" lon="34.6382966638"><ele>163.08</ele><time>2026-08-21T11:05:10Z</time></trkpt><trkpt lat="59.3494122941" lon="34.6382881980"><ele>163.08</ele><time>2026-08-21T11:05:23Z</time></trkpt><trkpt lat="59.3492912594" lon="34.6382177901"><ele>163.08</ele><time>2026-08-21T11:05:38Z</time></trkpt><trkpt lat="59.3492436502" lon="34.6382471267"><ele>163.08</ele><time>2026-08-21T11:05:51Z</time></trkpt><trkpt lat="59.3490958773" lon="34.6382459532"><ele>163.08</ele><time>2026-08-21T11:06:06Z</time></trkpt><trkpt lat="59.3490311690" lon="34.6382395830"><ele>163.08</ele><time>2026-08-21T11:06:17Z</time></trkpt><trkpt lat="59.3489364535" lon="34.6382743679"><ele>163.08</ele><time>2026-08-21T11:06:29Z</time></trkpt><trkpt lat="59.3488381337" lon="34.6382586099"><ele>162.60</ele><time>2026-08-21T11:06:43Z</time></trkpt><trkpt lat="59.3488179334" lon="34.6382529940"><ele>162.60</ele><time>2026-08-21T11:07:00Z</time></trkpt><trkpt lat="59.3488072045" lon="34.6382508148"><ele>162.60</ele><time>2026-08-21T11:07:16Z</time></trkpt><trkpt lat="59.3487626966" lon="34.6382442769"><ele>162.60</ele><time>2026-08-21T11:07:45Z</time></trkpt><trkpt lat="59.3486967310" lon="34.6382032055"><ele>162.60</ele><time>2026-08-21T11:07:57Z</time></trkpt><trkpt lat="59.3486247305" lon="34.6381658223"><ele>162.60</ele><time>2026-08-21T11:08:07Z</time></trkpt><trkpt lat="59.3485306855" lon="34.6381150279"><ele>162.60</ele><time>2026-08-21T11:08:17Z</time></trkpt><trkpt lat="59.3483777158" lon="34.6380605455"><ele>162.60</ele><time>2026-08-21T11:08:31Z</time></trkpt><trkpt lat="59.3482646439" lon="34.6380198933"><ele>162.60</ele><time>2026-08-21T11:08:45Z</time></trkpt><trkpt lat="59.3481858540" lon="34.6380531695"><ele>162.60</ele><time>2026-08-21T11:08:57Z</time></trkpt><trkpt lat="59.3481139373" lon="34.6381174587"><ele>162.60</ele><time>2026-08-21T11:09:09Z</time></trkpt><trkpt lat="59.3480444513" lon="34.6381815802"><ele>162.60</ele><time>2026-08-21T11:09:22Z</time></trkpt><trkpt lat="59.3479583692" lon="34.6381423529"><ele>162.60</ele><time>2026-08-21T11:09:36Z</time></trkpt><trkpt lat="59.3479240034" lon="34.6381204762"><ele>162.60</ele><time>2026-08-21T11:09:50Z</time></trkpt><trkpt lat="59.3479000311" lon="34.6381271817"><ele>162.60</ele><time>2026-08-21T11:10:04Z</time></trkpt><trkpt lat="59.3478643242" lon="34.6383018605"><ele>162.12</ele><time>2026-08-21T11:10:17Z</time></trkpt><trkpt lat="59.3477918208" lon="34.6384570934"><ele>162.12</ele><time>2026-08-21T11:10:33Z</time></trkpt><trkpt lat="59.3477343209" lon="34.6386272460"><ele>162.12</ele><time>2026-08-21T11:10:47Z</time></trkpt><trkpt lat="59.3476677686" lon="34.6387480292"><ele>162.12</ele><time>2026-08-21T11:11:00Z</time></trkpt><trkpt lat="59.3476755638" lon="34.6388354525"><ele>162.12</ele><time>2026-08-21T11:11:09Z</time></trkpt><trkpt lat="59.3475583009" lon="34.6389336884"><ele>162.12</ele><time>2026-08-21T11:11:21Z</time></trkpt><trkpt lat="59.3474345002" lon="34.6389858238"><ele>162.12</ele><time>2026-08-21T11:11:34Z</time></trkpt><trkpt lat="59.3473894056" lon="34.6388981491"><ele>162.12</ele><time>2026-08-21T11:11:48Z</time></trkpt><trkpt lat="59.3473889865" lon="34.6388787031"><ele>162.12</ele><time>2026-08-21T11:12:07Z</time></trkpt><trkpt lat="59.3473726418" lon="34.6388848219"><ele>162.12</ele><time>2026-08-21T11:12:21Z</time></trkpt><trkpt lat="59.3473598175" lon="34.6389231272"><ele>162.12</ele><time>2026-08-21T11:12:47Z</time></trkpt><trkpt lat="59.3473553751" lon="34.6389004122"><ele>162.12</ele><time>2026-08-21T11:13:14Z</time></trkpt><trkpt lat="59.3473597337" lon="34.6388968080"><ele>162.12</ele><time>2026-08-21T11:13:37Z</time></trkpt><trkpt lat="59.3473725580" lon="34.6388880908"><ele>162.60</ele><time>2026-08-21T11:13:57Z</time></trkpt><trkpt lat="59.3473741505" lon="34.6389055252"><ele>162.60</ele><time>2026-08-21T11:14:22Z</time></trkpt><trkpt lat="59.3473749049" lon="34.6389118955"><ele>162.60</ele><time>2026-08-21T11:14:46Z</time></trkpt><trkpt lat="59.3473749049" lon="34.6389079560"><ele>162.60</ele><time>2026-08-21T11:15:08Z</time></trkpt><trkpt lat="59.3473728094" lon="34.6389061119"><ele>162.60</ele><time>2026-08-21T11:15:41Z</time></trkpt><trkpt lat="59.3473736476" lon="34.6389054414"><ele>161.64</ele><time>2026-08-21T11:16:10Z</time></trkpt><trkpt lat="59.3473780062" lon="34.6388984006"><ele>161.64</ele><time>2026-08-21T11:16:32Z</time></trkpt><trkpt lat="59.3473776709" lon="34.6388978977"><ele>161.64</ele><time>2026-08-21T11:16:56Z</time></trkpt><trkpt lat="59.3473800179" lon="34.6389110573"><ele>161.64</ele><time>2026-08-21T11:17:21Z</time></trkpt><trkpt lat="59.3473855499" lon="34.6389209479"><ele>161.64</ele><time>2026-08-21T11:17:55Z</time></trkpt><trkpt lat="59.3473855499" lon="34.6389282402"><ele>162.12</ele><time>2026-08-21T11:18:27Z</time></trkpt><trkpt lat="59.3473876454" lon="34.6389429085"><ele>161.64</ele><time>2026-08-21T11:18:57Z</time></trkpt><trkpt lat="59.3474303931" lon="34.6389833931"><ele>161.64</ele><time>2026-08-21T11:19:20Z</time></trkpt><trkpt lat="59.3474003021" lon="34.6390991472"><ele>162.12</ele><time>2026-08-21T11:19:43Z</time></trkpt><trkpt lat="59.3473903276" lon="34.6390688885"><ele>162.12</ele><time>2026-08-21T11:20:07Z</time></trkpt><trkpt lat="59.3473749887" lon="34.6390728280"><ele>162.12</ele><time>2026-08-21T11:20:33Z</time></trkpt><trkpt lat="59.3473524414" lon="34.6390219498"><ele>162.12</ele><time>2026-08-21T11:20:56Z</time></trkpt><trkpt lat="59.3473659363" lon="34.6389911883"><ele>162.12</ele><time>2026-08-21T11:21:10Z</time></trkpt><trkpt lat="59.3473866396" lon="34.6389952116"><ele>162.60</ele><time>2026-08-21T11:21:33Z</time></trkpt><trkpt lat="59.3473512679" lon="34.6389269829"><ele>162.60</ele><time>2026-08-21T11:21:48Z</time></trkpt><trkpt lat="59.3473312352" lon="34.6389481891"><ele>162.60</ele><time>2026-08-21T11:22:13Z</time></trkpt><trkpt lat="59.3473155610" lon="34.6389599238"><ele>162.60</ele><time>2026-08-21T11:22:37Z</time></trkpt><trkpt lat="59.3473227695" lon="34.6388754342"><ele>162.60</ele><time>2026-08-21T11:22:48Z</time></trkpt><trkpt lat="59.3473190814" lon="34.6388397273"><ele>162.60</ele><time>2026-08-21T11:22:50Z</time></trkpt><trkpt lat="59.3473096099" lon="34.6385813132"><ele>162.60</ele><time>2026-08-21T11:23:00Z</time></trkpt><trkpt lat="59.3472536188" lon="34.6383741125"><ele>162.60</ele><time>2026-08-21T11:23:13Z</time></trkpt><trkpt lat="59.3472911697" lon="34.6382912993"><ele>162.60</ele><time>2026-08-21T11:23:24Z</time></trkpt><trkpt lat="59.3472869787" lon="34.6381234936"><ele>162.60</ele><time>2026-08-21T11:23:35Z</time></trkpt><trkpt lat="59.3473185785" lon="34.6379017085"><ele>162.60</ele><time>2026-08-21T11:23:47Z</time></trkpt><trkpt lat="59.3473470770" lon="34.6377556957"><ele>162.60</ele><time>2026-08-21T11:23:59Z</time></trkpt><trkpt lat="59.3473649304" lon="34.6376752295"><ele>162.60</ele><time>2026-08-21T11:24:12Z</time></trkpt><trkpt lat="59.3474318180" lon="34.6375101898"><ele>162.60</ele><time>2026-08-21T11:24:26Z</time></trkpt><trkpt lat="59.3474491686" lon="34.6373216808"><ele>162.60</ele><time>2026-08-21T11:24:42Z</time></trkpt><trkpt lat="59.3474623282" lon="34.6371226106"><ele>163.56</ele><time>2026-08-21T11:24:56Z</time></trkpt><trkpt lat="59.3474646751" lon="34.6370098740"><ele>163.56</ele><time>2026-08-21T11:25:08Z</time></trkpt><trkpt lat="59.3474702910" lon="34.6369390469"><ele>163.56</ele><time>2026-08-21T11:25:24Z</time></trkpt><trkpt lat="59.3474655133" lon="34.6368503664"><ele>164.04</ele><time>2026-08-21T11:25:38Z</time></trkpt><trkpt lat="59.3474662676" lon="34.6368499473"><ele>164.04</ele><time>2026-08-21T11:26:02Z</time></trkpt><trkpt lat="59.3474719673" lon="34.6368481033"><ele>164.04</ele><time>2026-08-21T11:26:29Z</time></trkpt><trkpt lat="59.3474769127" lon="34.6368434094"><ele>164.04</ele><time>2026-08-21T11:26:55Z</time></trkpt><trkpt lat="59.3474801816" lon="34.6368398890"><ele>164.04</ele><time>2026-08-21T11:27:14Z</time></trkpt><trkpt lat="59.3475044891" lon="34.6368127316"><ele>164.04</ele><time>2026-08-21T11:27:30Z</time></trkpt><trkpt lat="59.3475416210" lon="34.6367789526"><ele>164.04</ele><time>2026-08-21T11:27:51Z</time></trkpt><trkpt lat="59.3475447223" lon="34.6367659606"><ele>163.08</ele><time>2026-08-21T11:28:05Z</time></trkpt><trkpt lat="59.3476178125" lon="34.6367213689"><ele>163.08</ele><time>2026-08-21T11:28:14Z</time></trkpt><trkpt lat="59.3477642443" lon="34.6366008371"><ele>163.08</ele><time>2026-08-21T11:28:29Z</time></trkpt><trkpt lat="59.3478870392" lon="34.6365683153"><ele>163.08</ele><time>2026-08-21T11:28:44Z</time></trkpt><trkpt lat="59.3480141088" lon="34.6365737636"><ele>163.08</ele><time>2026-08-21T11:28:58Z</time></trkpt><trkpt lat="59.3480939884" lon="34.6365335304"><ele>163.08</ele><time>2026-08-21T11:29:11Z</time></trkpt><trkpt lat="59.3481838424" lon="34.6364606079"><ele>163.08</ele><time>2026-08-21T11:29:23Z</time></trkpt><trkpt lat="59.3482609559" lon="34.6364620328"><ele>163.08</ele><time>2026-08-21T11:29:39Z</time></trkpt><trkpt lat="59.3483291008" lon="34.6365138330"><ele>163.08</ele><time>2026-08-21T11:29:55Z</time></trkpt><trkpt lat="59.3484785501" lon="34.6365743503"><ele>163.08</ele><time>2026-08-21T11:30:09Z</time></trkpt><trkpt lat="59.3485433422" lon="34.6365972329"><ele>163.08</ele><time>2026-08-21T11:30:17Z</time></trkpt><trkpt lat="59.3486195337" lon="34.6366606001"><ele>162.60</ele><time>2026-08-21T11:30:27Z</time></trkpt><trkpt lat="59.3487713300" lon="34.6367707383"><ele>162.60</ele><time>2026-08-21T11:30:42Z</time></trkpt><trkpt lat="59.3488414865" lon="34.6368367877"><ele>162.60</ele><time>2026-08-21T11:30:55Z</time></trkpt><trkpt lat="59.3489538878" lon="34.6369389631"><ele>162.60</ele><time>2026-08-21T11:31:10Z</time></trkpt><trkpt lat="59.3489947915" lon="34.6369594149"><ele>162.60</ele><time>2026-08-21T11:31:31Z</time></trkpt><trkpt lat="59.3490135670" lon="34.6369852312"><ele>163.08</ele><time>2026-08-21T11:31:52Z</time></trkpt><trkpt lat="59.3490344379" lon="34.6369843930"><ele>163.08</ele><time>2026-08-21T11:32:22Z</time></trkpt><trkpt lat="59.3490392994" lon="34.6369687188"><ele>163.08</ele><time>2026-08-21T11:32:47Z</time></trkpt><trkpt lat="59.3491147365" lon="34.6368014161"><ele>163.08</ele><time>2026-08-21T11:33:01Z</time></trkpt><trkpt lat="59.3491838034" lon="34.6366968099"><ele>163.08</ele><time>2026-08-21T11:33:16Z</time></trkpt><trkpt lat="59.3492713943" lon="34.6366196964"><ele>163.08</ele><time>2026-08-21T11:33:28Z</time></trkpt><trkpt lat="59.3492806144" lon="34.6366118174"><ele>163.08</ele><time>2026-08-21T11:33:33Z</time></trkpt><trkpt lat="59.3493265472" lon="34.6365387272"><ele>163.08</ele><time>2026-08-21T11:33:46Z</time></trkpt><trkpt lat="59.3494516052" lon="34.6363834105"><ele>163.08</ele><time>2026-08-21T11:34:04Z</time></trkpt><trkpt lat="59.3495979533" lon="34.6363382321"><ele>163.08</ele><time>2026-08-21T11:34:19Z</time></trkpt><trkpt lat="59.3497039843" lon="34.6363065485"><ele>163.08</ele><time>2026-08-21T11:34:33Z</time></trkpt><trkpt lat="59.3497631606" lon="34.6363132540"><ele>163.08</ele><time>2026-08-21T11:34:43Z</time></trkpt><trkpt lat="59.3498826027" lon="34.6362606995"><ele>163.08</ele><time>2026-08-21T11:34:56Z</time></trkpt><trkpt lat="59.3499661703" lon="34.6362749487"><ele>163.08</ele><time>2026-08-21T11:35:10Z</time></trkpt><trkpt lat="59.3500257656" lon="34.6363111585"><ele>163.08</ele><time>2026-08-21T11:35:25Z</time></trkpt><trkpt lat="59.3501110934" lon="34.6364466939"><ele>162.60</ele><time>2026-08-21T11:35:39Z</time></trkpt><trkpt lat="59.3502059765" lon="34.6365430020"><ele>162.60</ele><time>2026-08-21T11:35:55Z</time></trkpt><trkpt lat="59.3502624705" lon="34.6366124041"><ele>162.60</ele><time>2026-08-21T11:36:12Z</time></trkpt><trkpt lat="59.3503624666" lon="34.6367446706"><ele>162.60</ele><time>2026-08-21T11:36:29Z</time></trkpt><trkpt lat="59.3504814897" lon="34.6367944591"><ele>162.60</ele><time>2026-08-21T11:36:40Z</time></trkpt><trkpt lat="59.3506410811" lon="34.6366792917"><ele>162.12</ele><time>2026-08-21T11:36:54Z</time></trkpt><trkpt lat="59.3507225532" lon="34.6364831552"><ele>162.12</ele><time>2026-08-21T11:37:08Z</time></trkpt><trkpt lat="59.3507607747" lon="34.6363301855"><ele>162.12</ele><time>2026-08-21T11:37:22Z</time></trkpt><trkpt lat="59.3508164305" lon="34.6363161877"><ele>162.12</ele><time>2026-08-21T11:37:36Z</time></trkpt><trkpt lat="59.3508936279" lon="34.6362608671"><ele>162.12</ele><time>2026-08-21T11:37:52Z</time></trkpt><trkpt lat="59.3509074580" lon="34.6362178680"><ele>162.12</ele><time>2026-08-21T11:38:10Z</time></trkpt><trkpt lat="59.3509797938" lon="34.6360789798"><ele>163.08</ele><time>2026-08-21T11:38:25Z</time></trkpt><trkpt lat="59.3511135690" lon="34.6359714400"><ele>163.08</ele><time>2026-08-21T11:38:40Z</time></trkpt><trkpt lat="59.3512006570" lon="34.6358587872"><ele>163.08</ele><time>2026-08-21T11:38:57Z</time></trkpt><trkpt lat="59.3512554746" lon="34.6357909776"><ele>163.08</ele><time>2026-08-21T11:39:14Z</time></trkpt><trkpt lat="59.3513402995" lon="34.6357664187"><ele>163.08</ele><time>2026-08-21T11:39:30Z</time></trkpt><trkpt lat="59.3514721468" lon="34.6356507484"><ele>163.08</ele><time>2026-08-21T11:39:47Z</time></trkpt><trkpt lat="59.3515089434" lon="34.6356231719"><ele>163.08</ele><time>2026-08-21T11:40:04Z</time></trkpt><trkpt lat="59.3516628351" lon="34.6355200745"><ele>163.08</ele><time>2026-08-21T11:40:19Z</time></trkpt><trkpt lat="59.3518312275" lon="34.6354831103"><ele>161.64</ele><time>2026-08-21T11:40:32Z</time></trkpt><trkpt lat="59.3519937526" lon="34.6354741417"><ele>161.16</ele><time>2026-08-21T11:40:52Z</time></trkpt><trkpt lat="59.3520804215" lon="34.6354230959"><ele>161.16</ele><time>2026-08-21T11:41:07Z</time></trkpt><trkpt lat="59.3521598820" lon="34.6353610698"><ele>161.16</ele><time>2026-08-21T11:41:24Z</time></trkpt><trkpt lat="59.3522094190" lon="34.6353721339"><ele>162.12</ele><time>2026-08-21T11:41:44Z</time></trkpt><trkpt lat="59.3522579502" lon="34.6354439668"><ele>162.12</ele><time>2026-08-21T11:42:04Z</time></trkpt><trkpt lat="59.3523338065" lon="34.6354948450"><ele>161.64</ele><time>2026-08-21T11:42:23Z</time></trkpt><trkpt lat="59.3524314556" lon="34.6353993751"><ele>161.64</ele><time>2026-08-21T11:42:42Z</time></trkpt><trkpt lat="59.3524395023" lon="34.6354148816"><ele>161.64</ele><time>2026-08-21T11:42:59Z</time></trkpt><trkpt lat="59.3524562661" lon="34.6354171447"><ele>161.64</ele><time>2026-08-21T11:43:21Z</time></trkpt><trkpt lat="59.3524812441" lon="34.6354572102"><ele>161.64</ele><time>2026-08-21T11:43:41Z</time></trkpt><trkpt lat="59.3525203038" lon="34.6355161350"><ele>161.64</ele><time>2026-08-21T11:43:56Z</time></trkpt><trkpt lat="59.3525437731" lon="34.6355445497"><ele>161.64</ele><time>2026-08-21T11:44:12Z</time></trkpt><trkpt lat="59.3525686674" lon="34.6356478147"><ele>161.64</ele><time>2026-08-21T11:44:29Z</time></trkpt><trkpt lat="59.3526421767" lon="34.6357613895"><ele>161.64</ele><time>2026-08-21T11:44:42Z</time></trkpt><trkpt lat="59.3526792247" lon="34.6357827634"><ele>161.64</ele><time>2026-08-21T11:44:56Z</time></trkpt><trkpt lat="59.3526671547" lon="34.6357894689"><ele>161.64</ele><time>2026-08-21T11:45:11Z</time></trkpt><trkpt lat="59.3527762033" lon="34.6358838491"><ele>160.68</ele><time>2026-08-21T11:45:25Z</time></trkpt><trkpt lat="59.3529445119" lon="34.6359629743"><ele>160.68</ele><time>2026-08-21T11:45:38Z</time></trkpt><trkpt lat="59.3529948872" lon="34.6360489726"><ele>160.20</ele><time>2026-08-21T11:45:52Z</time></trkpt><trkpt lat="59.3530954700" lon="34.6359810792"><ele>160.20</ele><time>2026-08-21T11:46:06Z</time></trkpt><trkpt lat="59.3531654589" lon="34.6358644031"><ele>160.20</ele><time>2026-08-21T11:46:20Z</time></trkpt><trkpt lat="59.3532147445" lon="34.6357338130"><ele>160.20</ele><time>2026-08-21T11:46:38Z</time></trkpt><trkpt lat="59.3532839790" lon="34.6356250159"><ele>160.20</ele><time>2026-08-21T11:46:52Z</time></trkpt><trkpt lat="59.3533670437" lon="34.6355059929"><ele>160.20</ele><time>2026-08-21T11:47:08Z</time></trkpt><trkpt lat="59.3534918502" lon="34.6353738941"><ele>160.20</ele><time>2026-08-21T11:47:21Z</time></trkpt><trkpt lat="59.3536163215" lon="34.6352675278"><ele>160.20</ele><time>2026-08-21T11:47:35Z</time></trkpt><trkpt lat="59.3536412995" lon="34.6352503449"><ele>160.20</ele><time>2026-08-21T11:47:58Z</time></trkpt><trkpt lat="59.3536526151" lon="34.6352418792"><ele>160.20</ele><time>2026-08-21T11:48:24Z</time></trkpt><trkpt lat="59.3536581472" lon="34.6352379397"><ele>160.20</ele><time>2026-08-21T11:48:51Z</time></trkpt><trkpt lat="59.3536658585" lon="34.6351578925"><ele>160.20</ele><time>2026-08-21T11:49:06Z</time></trkpt><trkpt lat="59.3536713906" lon="34.6351227723"><ele>160.20</ele><time>2026-08-21T11:49:23Z</time></trkpt><trkpt lat="59.3536718097" lon="34.6350951958"><ele>159.72</ele><time>2026-08-21T11:49:42Z</time></trkpt><trkpt lat="59.3536829576" lon="34.6350800246"><ele>159.72</ele><time>2026-08-21T11:50:02Z</time></trkpt><trkpt lat="59.3536839634" lon="34.6350591537"><ele>159.72</ele><time>2026-08-21T11:50:23Z</time></trkpt><trkpt lat="59.3536794372" lon="34.6350565553"><ele>159.72</ele><time>2026-08-21T11:50:42Z</time></trkpt><trkpt lat="59.3536808621" lon="34.6350440662"><ele>159.72</ele><time>2026-08-21T11:51:07Z</time></trkpt><trkpt lat="59.3536830414" lon="34.6350574773"><ele>161.16</ele><time>2026-08-21T11:51:22Z</time></trkpt><trkpt lat="59.3536922615" lon="34.6350814495"><ele>161.16</ele><time>2026-08-21T11:51:47Z</time></trkpt><trkpt lat="59.3536995538" lon="34.6350799408"><ele>161.16</ele><time>2026-08-21T11:52:04Z</time></trkpt><trkpt lat="59.3536978774" lon="34.6350724809"><ele>160.20</ele><time>2026-08-21T11:52:27Z</time></trkpt><trkpt lat="59.3536987994" lon="34.6350760851"><ele>160.20</ele><time>2026-08-21T11:52:51Z</time></trkpt><trkpt lat="59.3537029065" lon="34.6350853890"><ele>161.64</ele><time>2026-08-21T11:53:19Z</time></trkpt><trkpt lat="59.3537119590" lon="34.6351051703"><ele>162.12</ele><time>2026-08-21T11:53:52Z</time></trkpt><trkpt lat="59.3537173234" lon="34.6351069305"><ele>162.12</ele><time>2026-08-21T11:54:18Z</time></trkpt><trkpt lat="59.3537174910" lon="34.6351091098"><ele>162.12</ele><time>2026-08-21T11:54:50Z</time></trkpt><trkpt lat="59.3537173234" lon="34.6351117082"><ele>162.12</ele><time>2026-08-21T11:55:12Z</time></trkpt><trkpt lat="59.3537194189" lon="34.6351108700"><ele>161.16</ele><time>2026-08-21T11:55:48Z</time></trkpt><trkpt lat="59.3537232745" lon="34.6351143904"><ele>161.64</ele><time>2026-08-21T11:56:20Z</time></trkpt><trkpt lat="59.3537189160" lon="34.6351148095"><ele>161.64</ele><time>2026-08-21T11:56:44Z</time></trkpt><trkpt lat="59.3537266273" lon="34.6351208445"><ele>161.64</ele><time>2026-08-21T11:57:14Z</time></trkpt><trkpt lat="59.3537270464" lon="34.6351049189"><ele>161.64</ele><time>2026-08-21T11:57:44Z</time></trkpt><trkpt lat="59.3537177425" lon="34.6350877360"><ele>162.12</ele><time>2026-08-21T11:58:05Z</time></trkpt><trkpt lat="59.3536799401" lon="34.6349784359"><ele>162.12</ele><time>2026-08-21T11:58:21Z</time></trkpt><trkpt lat="59.3536274694" lon="34.6348408889"><ele>162.12</ele><time>2026-08-21T11:58:36Z</time></trkpt><trkpt lat="59.3536071852" lon="34.6346421540"><ele>162.12</ele><time>2026-08-21T11:58:55Z</time></trkpt><trkpt lat="59.3536364380" lon="34.6343610249"><ele>162.12</ele><time>2026-08-21T11:59:10Z</time></trkpt><trkpt lat="59.3536347616" lon="34.6343263239"><ele>162.12</ele><time>2026-08-21T11:59:21Z</time></trkpt><trkpt lat="59.3536384497" lon="34.6342678182"><ele>162.12</ele><time>2026-08-21T11:59:36Z</time></trkpt><trkpt lat="59.3536464125" lon="34.6341438498"><ele>162.12</ele><time>2026-08-21T11:59:49Z</time></trkpt><trkpt lat="59.3536118791" lon="34.6338985115"><ele>162.12</ele><time>2026-08-21T12:00:02Z</time></trkpt><trkpt lat="59.3536366895" lon="34.6337497327"><ele>162.12</ele><time>2026-08-21T12:00:17Z</time></trkpt><trkpt lat="59.3536396232" lon="34.6337392554"><ele>163.56</ele><time>2026-08-21T12:00:19Z</time></trkpt><trkpt lat="59.3536746595" lon="34.6336473897"><ele>166.45</ele><time>2026-08-21T12:00:32Z</time></trkpt><trkpt lat="59.3536957819" lon="34.6335975174"><ele>166.93</ele><time>2026-08-21T12:00:51Z</time></trkpt><trkpt lat="59.3537240289" lon="34.6335177217"><ele>166.93</ele><time>2026-08-21T12:01:05Z</time></trkpt><trkpt lat="59.3537447322" lon="34.6334988624"><ele>166.93</ele><time>2026-08-21T12:01:38Z</time></trkpt><trkpt lat="59.3537491746" lon="34.6334956773"><ele>166.93</ele><time>2026-08-21T12:02:09Z</time></trkpt><trkpt lat="59.3537087739" lon="34.6334620658"><ele>165.96</ele><time>2026-08-21T12:02:24Z</time></trkpt><trkpt lat="59.3536703847" lon="34.6333778277"><ele>163.56</ele><time>2026-08-21T12:02:39Z</time></trkpt><trkpt lat="59.3535779323" lon="34.6333105210"><ele>162.60</ele><time>2026-08-21T12:02:55Z</time></trkpt><trkpt lat="59.3534511980" lon="34.6332767420"><ele>163.08</ele><time>2026-08-21T12:03:07Z</time></trkpt><trkpt lat="59.3533110525" lon="34.6333068330"><ele>162.60</ele><time>2026-08-21T12:03:21Z</time></trkpt><trkpt lat="59.3532279041" lon="34.6332624927"><ele>162.60</ele><time>2026-08-21T12:03:37Z</time></trkpt><trkpt lat="59.3531194422" lon="34.6331788413"><ele>162.60</ele><time>2026-08-21T12:03:54Z</time></trkpt><trkpt lat="59.3530377187" lon="34.6331692860"><ele>162.60</ele><time>2026-08-21T12:04:06Z</time></trkpt><trkpt lat="59.3529039435" lon="34.6331372671"><ele>162.60</ele><time>2026-08-21T12:04:19Z</time></trkpt><trkpt lat="59.3528517243" lon="34.6331109479"><ele>162.60</ele><time>2026-08-21T12:04:37Z</time></trkpt><trkpt lat="59.3527448550" lon="34.6330355108"><ele>162.60</ele><time>2026-08-21T12:04:49Z</time></trkpt><trkpt lat="59.3526819069" lon="34.6329863928"><ele>162.60</ele><time>2026-08-21T12:05:02Z</time></trkpt><trkpt lat="59.3526269216" lon="34.6330698766"><ele>162.60</ele><time>2026-08-21T12:05:17Z</time></trkpt><trkpt lat="59.3524652347" lon="34.6332393587"><ele>162.60</ele><time>2026-08-21T12:05:30Z</time></trkpt><trkpt lat="59.3523357343" lon="34.6334493253"><ele>162.60</ele><time>2026-08-21T12:05:46Z</time></trkpt><trkpt lat="59.3522566929" lon="34.6336080786"><ele>162.60</ele><time>2026-08-21T12:06:01Z</time></trkpt><trkpt lat="59.3521919008" lon="34.6337707713"><ele>162.60</ele><time>2026-08-21T12:06:15Z</time></trkpt><trkpt lat="59.3520815112" lon="34.6338390000"><ele>162.12</ele><time>2026-08-21T12:06:29Z</time></trkpt><trkpt lat="59.3520177249" lon="34.6338177938"><ele>162.12</ele><time>2026-08-21T12:06:47Z</time></trkpt><trkpt lat="59.3519159686" lon="34.6337593719"><ele>162.12</ele><time>2026-08-21T12:07:01Z</time></trkpt><trkpt lat="59.3518247735" lon="34.6336865332"><ele>162.12</ele><time>2026-08-21T12:07:15Z</time></trkpt><trkpt lat="59.3517170660" lon="34.6336801630"><ele>162.12</ele><time>2026-08-21T12:07:32Z</time></trkpt><trkpt lat="59.3515849672" lon="34.6336359065"><ele>161.64</ele><time>2026-08-21T12:07:49Z</time></trkpt><trkpt lat="59.3514738232" lon="34.6336523350"><ele>161.64</ele><time>2026-08-21T12:08:02Z</time></trkpt><trkpt lat="59.3514002301" lon="34.6336563583"><ele>161.64</ele><time>2026-08-21T12:08:18Z</time></trkpt><trkpt lat="59.3512974679" lon="34.6336568613"><ele>161.64</ele><time>2026-08-21T12:08:31Z</time></trkpt><trkpt lat="59.3512361962" lon="34.6336494014"><ele>162.60</ele><time>2026-08-21T12:08:49Z</time></trkpt><trkpt lat="59.3511094619" lon="34.6336451266"><ele>163.08</ele><time>2026-08-21T12:09:05Z</time></trkpt><trkpt lat="59.3510442507" lon="34.6336370800"><ele>163.56</ele><time>2026-08-21T12:09:23Z</time></trkpt><trkpt lat="59.3509497866" lon="34.6336175501"><ele>164.04</ele><time>2026-08-21T12:09:37Z</time></trkpt><trkpt lat="59.3508231360" lon="34.6336879581"><ele>164.04</ele><time>2026-08-21T12:09:54Z</time></trkpt><trkpt lat="59.3507259060" lon="34.6338815801"><ele>163.56</ele><time>2026-08-21T12:10:09Z</time></trkpt><trkpt lat="59.3506317772" lon="34.6341387369"><ele>162.60</ele><time>2026-08-21T12:10:26Z</time></trkpt><trkpt lat="59.3505680747" lon="34.6342041995"><ele>162.60</ele><time>2026-08-21T12:10:39Z</time></trkpt><trkpt lat="59.3504900392" lon="34.6340948157"><ele>162.60</ele><time>2026-08-21T12:10:51Z</time></trkpt><trkpt lat="59.3504833337" lon="34.6341679897"><ele>162.60</ele><time>2026-08-21T12:11:12Z</time></trkpt><trkpt lat="59.3504859321" lon="34.6341569256"><ele>162.60</ele><time>2026-08-21T12:11:31Z</time></trkpt><trkpt lat="59.3504506443" lon="34.6341358870"><ele>162.60</ele><time>2026-08-21T12:11:54Z</time></trkpt><trkpt lat="59.3504472915" lon="34.6341488790"><ele>162.60</ele><time>2026-08-21T12:12:15Z</time></trkpt><trkpt lat="59.3504258338" lon="34.6341361385"><ele>162.60</ele><time>2026-08-21T12:12:32Z</time></trkpt><trkpt lat="59.3503970001" lon="34.6341218054"><ele>162.12</ele><time>2026-08-21T12:12:48Z</time></trkpt><trkpt lat="59.3503696751" lon="34.6340905409"><ele>161.64</ele><time>2026-08-21T12:13:08Z</time></trkpt><trkpt lat="59.3503536656" lon="34.6341004316"><ele>161.16</ele><time>2026-08-21T12:13:23Z</time></trkpt><trkpt lat="59.3503472954" lon="34.6340695024"><ele>161.16</ele><time>2026-08-21T12:13:43Z</time></trkpt><trkpt lat="59.3503317051" lon="34.6340252459"><ele>160.68</ele><time>2026-08-21T12:14:04Z</time></trkpt><trkpt lat="59.3503378239" lon="34.6340277605"><ele>160.20</ele><time>2026-08-21T12:14:27Z</time></trkpt><trkpt lat="59.3503218144" lon="34.6340456139"><ele>160.20</ele><time>2026-08-21T12:14:45Z</time></trkpt><trkpt lat="59.3503410928" lon="34.6340970788"><ele>160.68</ele><time>2026-08-21T12:15:10Z</time></trkpt><trkpt lat="59.3503456190" lon="34.6340805665"><ele>160.68</ele><time>2026-08-21T12:15:31Z</time></trkpt><trkpt lat="59.3503446970" lon="34.6340649761"><ele>161.16</ele><time>2026-08-21T12:15:56Z</time></trkpt><trkpt lat="59.3503517378" lon="34.6340637188"><ele>162.60</ele><time>2026-08-21T12:16:17Z</time></trkpt><trkpt lat="59.3503548391" lon="34.6340639703"><ele>161.64</ele><time>2026-08-21T12:16:44Z</time></trkpt><trkpt lat="59.3503554258" lon="34.6340603661"><ele>162.12</ele><time>2026-08-21T12:17:13Z</time></trkpt><trkpt lat="59.3503231555" lon="34.6340726037"><ele>162.12</ele><time>2026-08-21T12:17:24Z</time></trkpt><trkpt lat="59.3503262568" lon="34.6340903733"><ele>162.12</ele><time>2026-08-21T12:17:28Z</time></trkpt><trkpt lat="59.3502630573" lon="34.6342487913"><ele>162.12</ele><time>2026-08-21T12:17:39Z</time></trkpt><trkpt lat="59.3502247520" lon="34.6342775412"><ele>162.12</ele><time>2026-08-21T12:17:50Z</time></trkpt><trkpt lat="59.3501640670" lon="34.6342975739"><ele>162.12</ele><time>2026-08-21T12:17:58Z</time></trkpt><trkpt lat="59.3500336446" lon="34.6343766153"><ele>162.12</ele><time>2026-08-21T12:18:15Z</time></trkpt><trkpt lat="59.3498713709" lon="34.6344252303"><ele>162.12</ele><time>2026-08-21T12:18:30Z</time></trkpt><trkpt lat="59.3497460615" lon="34.6344282478"><ele>162.12</ele><time>2026-08-21T12:18:41Z</time></trkpt><trkpt lat="59.3496558722" lon="34.6344665531"><ele>162.12</ele><time>2026-08-21T12:18:55Z</time></trkpt><trkpt lat="59.3495430518" lon="34.6344755217"><ele>162.12</ele><time>2026-08-21T12:19:11Z</time></trkpt><trkpt lat="59.3494217657" lon="34.6345508751"><ele>162.12</ele><time>2026-08-21T12:19:26Z</time></trkpt><trkpt lat="59.3493276369" lon="34.6346566547"><ele>162.12</ele><time>2026-08-21T12:19:37Z</time></trkpt><trkpt lat="59.3492786027" lon="34.6346900146"><ele>162.12</ele><time>2026-08-21T12:19:46Z</time></trkpt><trkpt lat="59.3491911795" lon="34.6347232070"><ele>162.12</ele><time>2026-08-21T12:19:57Z</time></trkpt><trkpt lat="59.3490755092" lon="34.6347444132"><ele>162.12</ele><time>2026-08-21T12:20:08Z</time></trkpt><trkpt lat="59.3489834759" lon="34.6348052658"><ele>162.12</ele><time>2026-08-21T12:20:21Z</time></trkpt><trkpt lat="59.3489596713" lon="34.6348210238"><ele>162.12</ele><time>2026-08-21T12:20:25Z</time></trkpt><trkpt lat="59.3488805462" lon="34.6348667890"><ele>162.12</ele><time>2026-08-21T12:20:32Z</time></trkpt><trkpt lat="59.3487939611" lon="34.6348943654"><ele>162.12</ele><time>2026-08-21T12:20:47Z</time></trkpt><trkpt lat="59.3486496247" lon="34.6348621789"><ele>162.12</ele><time>2026-08-21T12:21:00Z</time></trkpt><trkpt lat="59.3485187832" lon="34.6348395478"><ele>162.12</ele><time>2026-08-21T12:21:14Z</time></trkpt><trkpt lat="59.3484308571" lon="34.6348042600"><ele>162.12</ele><time>2026-08-21T12:21:27Z</time></trkpt><trkpt lat="59.3483410869" lon="34.6348024998"><ele>162.12</ele><time>2026-08-21T12:21:42Z</time></trkpt><trkpt lat="59.3482638057" lon="34.6348000690"><ele>162.12</ele><time>2026-08-21T12:21:56Z</time></trkpt><trkpt lat="59.3482217286" lon="34.6348181739"><ele>162.12</ele><time>2026-08-21T12:22:12Z</time></trkpt><trkpt lat="59.3480935693" lon="34.6348729078"><ele>162.12</ele><time>2026-08-21T12:22:26Z</time></trkpt><trkpt lat="59.3480689265" lon="34.6348609217"><ele>162.12</ele><time>2026-08-21T12:22:29Z</time></trkpt><trkpt lat="59.3479535077" lon="34.6347645298"><ele>162.12</ele><time>2026-08-21T12:22:43Z</time></trkpt><trkpt lat="59.3478791602" lon="34.6347077005"><ele>162.12</ele><time>2026-08-21T12:22:56Z</time></trkpt><trkpt lat="59.3478143681" lon="34.6345873363"><ele>162.12</ele><time>2026-08-21T12:23:12Z</time></trkpt><trkpt lat="59.3477432895" lon="34.6345926169"><ele>162.12</ele><time>2026-08-21T12:23:25Z</time></trkpt><trkpt lat="59.3476525135" lon="34.6347077005"><ele>162.12</ele><time>2026-08-21T12:23:41Z</time></trkpt><trkpt lat="59.3476385158" lon="34.6347128972"><ele>162.12</ele><time>2026-08-21T12:24:00Z</time></trkpt><trkpt lat="59.3476427067" lon="34.6347367857"><ele>162.12</ele><time>2026-08-21T12:24:20Z</time></trkpt><trkpt lat="59.3476368394" lon="34.6347215306"><ele>161.64</ele><time>2026-08-21T12:24:47Z</time></trkpt><trkpt lat="59.3476209138" lon="34.6347281523"><ele>161.64</ele><time>2026-08-21T12:25:15Z</time></trkpt><trkpt lat="59.3476307206" lon="34.6347445808"><ele>161.64</ele><time>2026-08-21T12:25:42Z</time></trkpt><trkpt lat="59.3476240989" lon="34.6347290743"><ele>161.64</ele><time>2026-08-21T12:25:56Z</time></trkpt><trkpt lat="59.3476327322" lon="34.6347359475"><ele>161.64</ele><time>2026-08-21T12:26:20Z</time></trkpt><trkpt lat="59.3476269487" lon="34.6347400546"><ele>161.64</ele><time>2026-08-21T12:26:47Z</time></trkpt><trkpt lat="59.3476266135" lon="34.6347346064"><ele>161.64</ele><time>2026-08-21T12:27:12Z</time></trkpt><trkpt lat="59.3476256914" lon="34.6347324271"><ele>161.64</ele><time>2026-08-21T12:27:33Z</time></trkpt><trkpt lat="59.3476158008" lon="34.6347424854"><ele>161.64</ele><time>2026-08-21T12:27:58Z</time></trkpt><trkpt lat="59.3475681078" lon="34.6344155073"><ele>161.16</ele><time>2026-08-21T12:29:28Z</time></trkpt><trkpt lat="59.3475819379" lon="34.6344473585"><ele>161.16</ele><time>2026-08-21T12:29:29Z</time></trkpt><trkpt lat="59.3475554511" lon="34.6346754301"><ele>160.20</ele><time>2026-08-21T12:29:53Z</time></trkpt><trkpt lat="59.3475490808" lon="34.6345837321"><ele>160.20</ele><time>2026-08-21T12:30:13Z</time></trkpt><trkpt lat="59.3475999590" lon="34.6346279047"><ele>160.20</ele><time>2026-08-21T12:30:40Z</time></trkpt><trkpt lat="59.3475687783" lon="34.6346320957"><ele>163.56</ele><time>2026-08-21T12:30:52Z</time></trkpt><trkpt lat="59.3475819379" lon="34.6347008273"><ele>166.45</ele><time>2026-08-21T12:31:02Z</time></trkpt><trkpt lat="59.3476195727" lon="34.6347669605"><ele>168.37</ele><time>2026-08-21T12:31:27Z</time></trkpt><trkpt lat="59.3476162199" lon="34.6347513702"><ele>168.37</ele><time>2026-08-21T12:31:51Z</time></trkpt><trkpt lat="59.3476033956" lon="34.6347273141"><ele>168.37</ele><time>2026-08-21T12:32:16Z</time></trkpt><trkpt lat="59.3475904036" lon="34.6347170882"><ele>168.37</ele><time>2026-08-21T12:32:41Z</time></trkpt><trkpt lat="59.3475124519" lon="34.6345637832"><ele>168.37</ele><time>2026-08-21T12:33:05Z</time></trkpt><trkpt lat="59.3476177286" lon="34.6346864104"><ele>168.37</ele><time>2026-08-21T12:33:27Z</time></trkpt><trkpt lat="59.3476841971" lon="34.6347087063"><ele>168.37</ele><time>2026-08-21T12:33:47Z</time></trkpt><trkpt lat="59.3476225063" lon="34.6346743405"><ele>168.37</ele><time>2026-08-21T12:34:05Z</time></trkpt><trkpt lat="59.3476389349" lon="34.6346707363"><ele>168.37</ele><time>2026-08-21T12:34:37Z</time></trkpt><trkpt lat="59.3476052396" lon="34.6346512064"><ele>168.37</ele><time>2026-08-21T12:35:03Z</time></trkpt><trkpt lat="59.3476070836" lon="34.6346425731"><ele>168.37</ele><time>2026-08-21T12:35:30Z</time></trkpt><trkpt lat="59.3476023898" lon="34.6346125659"><ele>168.37</ele><time>2026-08-21T12:35:53Z</time></trkpt><trkpt lat="59.3475971930" lon="34.6345947962"><ele>168.37</ele><time>2026-08-21T12:36:23Z</time></trkpt><trkpt lat="59.3476043176" lon="34.6345979813"><ele>168.37</ele><time>2026-08-21T12:36:52Z</time></trkpt><trkpt lat="59.3476091791" lon="34.6346095484"><ele>168.37</ele><time>2026-08-21T12:37:17Z</time></trkpt><trkpt lat="59.3476158008" lon="34.6346288268"><ele>168.37</ele><time>2026-08-21T12:37:33Z</time></trkpt><trkpt lat="59.3476257753" lon="34.6346385498"><ele>168.37</ele><time>2026-08-21T12:37:46Z</time></trkpt><trkpt lat="59.3476266135" lon="34.6346455067"><ele>168.37</ele><time>2026-08-21T12:38:00Z</time></trkpt><trkpt lat="59.3476268649" lon="34.6346430760"><ele>169.33</ele><time>2026-08-21T12:38:20Z</time></trkpt><trkpt lat="59.3476204947" lon="34.6346593369"><ele>169.33</ele><time>2026-08-21T12:38:44Z</time></trkpt><trkpt lat="59.3476202432" lon="34.6346631087"><ele>169.33</ele><time>2026-08-21T12:39:05Z</time></trkpt><trkpt lat="59.3476194888" lon="34.6346605103"><ele>169.33</ele><time>2026-08-21T12:39:24Z</time></trkpt><trkpt lat="59.3476173095" lon="34.6346559841"><ele>169.33</ele><time>2026-08-21T12:39:50Z</time></trkpt><trkpt lat="59.3476145435" lon="34.6346555650"><ele>169.33</ele><time>2026-08-21T12:40:17Z</time></trkpt><trkpt lat="59.3476098496" lon="34.6346541401"><ele>169.33</ele><time>2026-08-21T12:40:47Z</time></trkpt><trkpt lat="59.3476072513" lon="34.6346596722"><ele>169.33</ele><time>2026-08-21T12:41:14Z</time></trkpt><trkpt lat="59.3476038985" lon="34.6346578281"><ele>169.33</ele><time>2026-08-21T12:41:39Z</time></trkpt><trkpt lat="59.3476022221" lon="34.6346590016"><ele>169.33</ele><time>2026-08-21T12:42:15Z</time></trkpt><trkpt lat="59.3476033118" lon="34.6346540563"><ele>169.33</ele><time>2026-08-21T12:42:45Z</time></trkpt><trkpt lat="59.3475982826" lon="34.6346522123"><ele>169.33</ele><time>2026-08-21T12:43:11Z</time></trkpt><trkpt lat="59.3475940078" lon="34.6346562356"><ele>169.33</ele><time>2026-08-21T12:43:32Z</time></trkpt><trkpt lat="59.3475965224" lon="34.6346572414"><ele>169.33</ele><time>2026-08-21T12:43:53Z</time></trkpt><trkpt lat="59.3476126995" lon="34.6346362866"><ele>169.33</ele><time>2026-08-21T12:44:10Z</time></trkpt><trkpt lat="59.3475962710" lon="34.6345861629"><ele>169.33</ele><time>2026-08-21T12:44:28Z</time></trkpt><trkpt lat="59.3475689460" lon="34.6345170122"><ele>169.33</ele><time>2026-08-21T12:44:46Z</time></trkpt><trkpt lat="59.3475392740" lon="34.6345017571"><ele>169.33</ele><time>2026-08-21T12:44:58Z</time></trkpt><trkpt lat="59.3474914134" lon="34.6344528906"><ele>169.33</ele><time>2026-08-21T12:45:12Z</time></trkpt><trkpt lat="59.3474179879" lon="34.6343267430"><ele>169.33</ele><time>2026-08-21T12:45:23Z</time></trkpt><trkpt lat="59.3473537825" lon="34.6342420857"><ele>169.33</ele><time>2026-08-21T12:45:29Z</time></trkpt><trkpt lat="59.3473551236" lon="34.6340872720"><ele>169.33</ele><time>2026-08-21T12:45:43Z</time></trkpt><trkpt lat="59.3473363481" lon="34.6339318715"><ele>169.33</ele><time>2026-08-21T12:46:02Z</time></trkpt><trkpt lat="59.3473145552" lon="34.6337661613"><ele>169.33</ele><time>2026-08-21T12:46:12Z</time></trkpt><trkpt lat="59.3473163154" lon="34.6336708590"><ele>169.33</ele><time>2026-08-21T12:46:25Z</time></trkpt><trkpt lat="59.3473310675" lon="34.6334834397"><ele>169.33</ele><time>2026-08-21T12:46:38Z</time></trkpt><trkpt lat="59.3473824486" lon="34.6331841219"><ele>169.33</ele><time>2026-08-21T12:46:52Z</time></trkpt><trkpt lat="59.3474261183" lon="34.6330881491"><ele>169.33</ele><time>2026-08-21T12:47:05Z</time></trkpt><trkpt lat="59.3474666029" lon="34.6329853870"><ele>169.33</ele><time>2026-08-21T12:47:23Z</time></trkpt><trkpt lat="59.3475360051" lon="34.6327703074"><ele>168.85</ele><time>2026-08-21T12:47:37Z</time></trkpt><trkpt lat="59.3475734722" lon="34.6326801181"><ele>168.85</ele><time>2026-08-21T12:47:48Z</time></trkpt><trkpt lat="59.3475779146" lon="34.6326866560"><ele>168.85</ele><time>2026-08-21T12:48:10Z</time></trkpt><trkpt lat="59.3475961033" lon="34.6326653659"><ele>168.85</ele><time>2026-08-21T12:48:41Z</time></trkpt><trkpt lat="59.3476091791" lon="34.6326694731"><ele>168.85</ele><time>2026-08-21T12:49:09Z</time></trkpt><trkpt lat="59.3475981988" lon="34.6326496080"><ele>167.41</ele><time>2026-08-21T12:49:27Z</time></trkpt><trkpt lat="59.3475976959" lon="34.6326492727"><ele>167.41</ele><time>2026-08-21T12:49:28Z</time></trkpt><trkpt lat="59.3475869671" lon="34.6326151583"><ele>167.41</ele><time>2026-08-21T12:49:51Z</time></trkpt><trkpt lat="59.3476193212" lon="34.6326143201"><ele>168.37</ele><time>2026-08-21T12:50:07Z</time></trkpt><trkpt lat="59.3477312196" lon="34.6327070240"><ele>168.37</ele><time>2026-08-21T12:50:22Z</time></trkpt><trkpt lat="59.3478554394" lon="34.6328373626"><ele>168.37</ele><time>2026-08-21T12:50:39Z</time></trkpt><trkpt lat="59.3479530048" lon="34.6329115424"><ele>168.37</ele><time>2026-08-21T12:50:55Z</time></trkpt><trkpt lat="59.3480740394" lon="34.6328964550"><ele>167.89</ele><time>2026-08-21T12:51:09Z</time></trkpt><trkpt lat="59.3481444474" lon="34.6328938566"><ele>167.89</ele><time>2026-08-21T12:51:24Z</time></trkpt><trkpt lat="59.3482287694" lon="34.6329055913"><ele>168.37</ele><time>2026-08-21T12:51:38Z</time></trkpt><trkpt lat="59.3483150192" lon="34.6329285577"><ele>168.37</ele><time>2026-08-21T12:51:51Z</time></trkpt><trkpt lat="59.3484589364" lon="34.6329790168"><ele>167.89</ele><time>2026-08-21T12:52:04Z</time></trkpt><trkpt lat="59.3485747743" lon="34.6329589840"><ele>167.89</ele><time>2026-08-21T12:52:18Z</time></trkpt><trkpt lat="59.3486528937" lon="34.6329740714"><ele>167.89</ele><time>2026-08-21T12:52:30Z</time></trkpt><trkpt lat="59.3487683125" lon="34.6329918411"><ele>167.41</ele><time>2026-08-21T12:52:47Z</time></trkpt><trkpt lat="59.3488181848" lon="34.6330005582"><ele>167.41</ele><time>2026-08-21T12:53:04Z</time></trkpt><trkpt lat="59.3488802109" lon="34.6330167353"><ele>167.41</ele><time>2026-08-21T12:53:19Z</time></trkpt><trkpt lat="59.3489189353" lon="34.6330086887"><ele>166.93</ele><time>2026-08-21T12:53:33Z</time></trkpt><trkpt lat="59.3489556480" lon="34.6330054197"><ele>166.93</ele><time>2026-08-21T12:53:54Z</time></trkpt><trkpt lat="59.3490569852" lon="34.6330226026"><ele>166.93</ele><time>2026-08-21T12:54:12Z</time></trkpt><trkpt lat="59.3492062669" lon="34.6331393626"><ele>166.93</ele><time>2026-08-21T12:54:27Z</time></trkpt><trkpt lat="59.3493222725" lon="34.6332303900"><ele>166.93</ele><time>2026-08-21T12:54:40Z</time></trkpt><trkpt lat="59.3494422175" lon="34.6333236806"><ele>166.45</ele><time>2026-08-21T12:54:54Z</time></trkpt><trkpt lat="59.3495668564" lon="34.6333985310"><ele>166.45</ele><time>2026-08-21T12:55:08Z</time></trkpt><trkpt lat="59.3495879788" lon="34.6333178133"><ele>166.45</ele><time>2026-08-21T12:55:23Z</time></trkpt><trkpt lat="59.3495844584" lon="34.6333147120"><ele>166.45</ele><time>2026-08-21T12:55:29Z</time></trkpt><trkpt lat="59.3496349175" lon="34.6331632510"><ele>166.45</ele><time>2026-08-21T12:55:40Z</time></trkpt><trkpt lat="59.3497132044" lon="34.6328757517"><ele>166.45</ele><time>2026-08-21T12:55:54Z</time></trkpt><trkpt lat="59.3497161381" lon="34.6327148192"><ele>165.48</ele><time>2026-08-21T12:56:05Z</time></trkpt><trkpt lat="59.3497171439" lon="34.6326967143"><ele>165.48</ele><time>2026-08-21T12:56:27Z</time></trkpt><trkpt lat="59.3497601431" lon="34.6327318344"><ele>165.48</ele><time>2026-08-21T12:56:44Z</time></trkpt><trkpt lat="59.3498811778" lon="34.6327398811"><ele>165.48</ele><time>2026-08-21T12:56:59Z</time></trkpt><trkpt lat="59.3499294575" lon="34.6327211056"><ele>165.48</ele><time>2026-08-21T12:57:12Z</time></trkpt><trkpt lat="59.3499827664" lon="34.6327054314"><ele>165.48</ele><time>2026-08-21T12:57:26Z</time></trkpt><trkpt lat="59.3501366582" lon="34.6327725705"><ele>165.48</ele><time>2026-08-21T12:57:40Z</time></trkpt><trkpt lat="59.3503425177" lon="34.6327915136"><ele>165.48</ele><time>2026-08-21T12:57:54Z</time></trkpt><trkpt lat="59.3504688330" lon="34.6327703912"><ele>165.48</ele><time>2026-08-21T12:58:09Z</time></trkpt><trkpt lat="59.3505354691" lon="34.6326988935"><ele>165.48</ele><time>2026-08-21T12:58:24Z</time></trkpt><trkpt lat="59.3506321125" lon="34.6325123124"><ele>165.48</ele><time>2026-08-21T12:58:38Z</time></trkpt><trkpt lat="59.3507021014" lon="34.6324553154"><ele>165.48</ele><time>2026-08-21T12:58:53Z</time></trkpt><trkpt lat="59.3507425021" lon="34.6324329358"><ele>165.48</ele><time>2026-08-21T12:59:19Z</time></trkpt><trkpt lat="59.3507544044" lon="34.6324329358"><ele>165.48</ele><time>2026-08-21T12:59:45Z</time></trkpt><trkpt lat="59.3507548235" lon="34.6324243862"><ele>166.45</ele><time>2026-08-21T12:59:54Z</time></trkpt><trkpt lat="59.3508016784" lon="34.6324180160"><ele>166.45</ele><time>2026-08-21T13:00:12Z</time></trkpt><trkpt lat="59.3509077933" lon="34.6323901042"><ele>166.45</ele><time>2026-08-21T13:00:25Z</time></trkpt><trkpt lat="59.3509858288" lon="34.6323646232"><ele>166.45</ele><time>2026-08-21T13:00:37Z</time></trkpt><trkpt lat="59.3510767724" lon="34.6323183551"><ele>166.45</ele><time>2026-08-21T13:00:52Z</time></trkpt><trkpt lat="59.3511149101" lon="34.6323285811"><ele>166.45</ele><time>2026-08-21T13:00:55Z</time></trkpt><trkpt lat="59.3513147347" lon="34.6323600132"><ele>166.45</ele><time>2026-08-21T13:01:12Z</time></trkpt><trkpt lat="59.3513804488" lon="34.6323657967"><ele>166.45</ele><time>2026-08-21T13:01:29Z</time></trkpt><trkpt lat="59.3514740746" lon="34.6323331911"><ele>166.45</ele><time>2026-08-21T13:01:40Z</time></trkpt><trkpt lat="59.3516127113" lon="34.6322609391"><ele>166.45</ele><time>2026-08-21T13:01:54Z</time></trkpt><trkpt lat="59.3516376056" lon="34.6322420798"><ele>166.45</ele><time>2026-08-21T13:02:14Z</time></trkpt><trkpt lat="59.3516340852" lon="34.6322481986"><ele>166.45</ele><time>2026-08-21T13:02:39Z</time></trkpt><trkpt lat="59.3516372703" lon="34.6322565805"><ele>166.45</ele><time>2026-08-21T13:03:05Z</time></trkpt><trkpt lat="59.3516326603" lon="34.6322642919"><ele>166.45</ele><time>2026-08-21T13:03:40Z</time></trkpt><trkpt lat="59.3516377732" lon="34.6322648786"><ele>166.45</ele><time>2026-08-21T13:04:09Z</time></trkpt><trkpt lat="59.3516421318" lon="34.6322673932"><ele>166.45</ele><time>2026-08-21T13:04:39Z</time></trkpt><trkpt lat="59.3516438920" lon="34.6322636213"><ele>166.45</ele><time>2026-08-21T13:04:58Z</time></trkpt><trkpt lat="59.3516474124" lon="34.6322775353"><ele>166.45</ele><time>2026-08-21T13:05:21Z</time></trkpt><trkpt lat="59.3516505137" lon="34.6322903596"><ele>166.45</ele><time>2026-08-21T13:05:49Z</time></trkpt><trkpt lat="59.3516640086" lon="34.6322678961"><ele>166.45</ele><time>2026-08-21T13:06:15Z</time></trkpt><trkpt lat="59.3516767491" lon="34.6322452649"><ele>166.93</ele><time>2026-08-21T13:06:42Z</time></trkpt><trkpt lat="59.3516790122" lon="34.6322382241"><ele>166.93</ele><time>2026-08-21T13:07:14Z</time></trkpt><trkpt lat="59.3516825326" lon="34.6322362963"><ele>166.93</ele><time>2026-08-21T13:07:44Z</time></trkpt><trkpt lat="59.3516813591" lon="34.6322378051"><ele>166.93</ele><time>2026-08-21T13:08:04Z</time></trkpt><trkpt lat="59.3516842090" lon="34.6322373021"><ele>166.93</ele><time>2026-08-21T13:08:27Z</time></trkpt><trkpt lat="59.3517158087" lon="34.6322953887"><ele>166.93</ele><time>2026-08-21T13:08:47Z</time></trkpt><trkpt lat="59.3517518509" lon="34.6323133260"><ele>166.93</ele><time>2026-08-21T13:09:00Z</time></trkpt><trkpt lat="59.3518118653" lon="34.6322245616"><ele>167.41</ele><time>2026-08-21T13:09:13Z</time></trkpt><trkpt lat="59.3518812675" lon="34.6320825722"><ele>167.41</ele><time>2026-08-21T13:09:30Z</time></trkpt><trkpt lat="59.3519380968" lon="34.6320408303"><ele>167.41</ele><time>2026-08-21T13:09:43Z</time></trkpt><trkpt lat="59.3520204071" lon="34.6319521498"><ele>167.89</ele><time>2026-08-21T13:10:01Z</time></trkpt><trkpt lat="59.3521543499" lon="34.6317975875"><ele>167.89</ele><time>2026-08-21T13:10:15Z</time></trkpt><trkpt lat="59.3522925675" lon="34.6316586994"><ele>167.89</ele><time>2026-08-21T13:10:32Z</time></trkpt><trkpt lat="59.3523695134" lon="34.6315763891"><ele>167.89</ele><time>2026-08-21T13:10:46Z</time></trkpt><trkpt lat="59.3524475489" lon="34.6314882953"><ele>167.89</ele><time>2026-08-21T13:10:59Z</time></trkpt><trkpt lat="59.3525703438" lon="34.6314381715"><ele>166.93</ele><time>2026-08-21T13:11:11Z</time></trkpt><trkpt lat="59.3526841700" lon="34.6314536780"><ele>166.45</ele><time>2026-08-21T13:11:25Z</time></trkpt><trkpt lat="59.3527050409" lon="34.6314538456"><ele>165.96</ele><time>2026-08-21T13:11:39Z</time></trkpt><trkpt lat="59.3527283426" lon="34.6315465495"><ele>165.96</ele><time>2026-08-21T13:11:52Z</time></trkpt><trkpt lat="59.3527815677" lon="34.6316498984"><ele>165.96</ele><time>2026-08-21T13:12:06Z</time></trkpt><trkpt lat="59.3527986668" lon="34.6318608709"><ele>165.96</ele><time>2026-08-21T13:12:23Z</time></trkpt><trkpt lat="59.3528110720" lon="34.6321363840"><ele>165.96</ele><time>2026-08-21T13:12:37Z</time></trkpt><trkpt lat="59.3529388122" lon="34.6322228014"><ele>166.93</ele><time>2026-08-21T13:12:53Z</time></trkpt><trkpt lat="59.3530361261" lon="34.6323034354"><ele>166.93</ele><time>2026-08-21T13:13:09Z</time></trkpt><trkpt lat="59.3531683087" lon="34.6323197801"><ele>166.93</ele><time>2026-08-21T13:13:23Z</time></trkpt><trkpt lat="59.3532175105" lon="34.6322666388"><ele>166.93</ele><time>2026-08-21T13:13:37Z</time></trkpt><trkpt lat="59.3532718252" lon="34.6321530640"><ele>166.93</ele><time>2026-08-21T13:13:52Z</time></trkpt><trkpt lat="59.3533153273" lon="34.6320454404"><ele>165.96</ele><time>2026-08-21T13:14:04Z</time></trkpt><trkpt lat="59.3533387966" lon="34.6319602802"><ele>165.96</ele><time>2026-08-21T13:14:15Z</time></trkpt><trkpt lat="59.3534021638" lon="34.6318215597"><ele>165.96</ele><time>2026-08-21T13:14:30Z</time></trkpt><trkpt lat="59.3535073567" lon="34.6316043008"><ele>165.48</ele><time>2026-08-21T13:14:46Z</time></trkpt><trkpt lat="59.3535446562" lon="34.6315560210"><ele>165.48</ele><time>2026-08-21T13:14:49Z</time></trkpt><trkpt lat="59.3536392879" lon="34.6314129420"><ele>165.48</ele><time>2026-08-21T13:15:01Z</time></trkpt><trkpt lat="59.3536716420" lon="34.6313675959"><ele>165.48</ele><time>2026-08-21T13:15:20Z</time></trkpt><trkpt lat="59.3536734860" lon="34.6313820966"><ele>165.48</ele><time>2026-08-21T13:15:38Z</time></trkpt><trkpt lat="59.3536847178" lon="34.6313916519"><ele>165.48</ele><time>2026-08-21T13:16:07Z</time></trkpt><trkpt lat="59.3536848854" lon="34.6313910652"><ele>165.48</ele><time>2026-08-21T13:16:41Z</time></trkpt><trkpt lat="59.3536899146" lon="34.6313837729"><ele>165.48</ele><time>2026-08-21T13:17:05Z</time></trkpt><trkpt lat="59.3537104502" lon="34.6313861199"><ele>165.48</ele><time>2026-08-21T13:17:25Z</time></trkpt><trkpt lat="59.3537832052" lon="34.6313259378"><ele>165.48</ele><time>2026-08-21T13:17:38Z</time></trkpt><trkpt lat="59.3538544513" lon="34.6312642470"><ele>165.00</ele><time>2026-08-21T13:17:49Z</time></trkpt><trkpt lat="59.3538836204" lon="34.6312670968"><ele>165.00</ele><time>2026-08-21T13:18:22Z</time></trkpt><trkpt lat="59.3538913317" lon="34.6312743053"><ele>165.00</ele><time>2026-08-21T13:18:54Z</time></trkpt><trkpt lat="59.3538953550" lon="34.6312774904"><ele>165.00</ele><time>2026-08-21T13:19:25Z</time></trkpt><trkpt lat="59.3538822792" lon="34.6312521771"><ele>165.00</ele><time>2026-08-21T13:19:31Z</time></trkpt><trkpt lat="59.3538384419" lon="34.6312724613"><ele>165.00</ele><time>2026-08-21T13:19:42Z</time></trkpt><trkpt lat="59.3537603226" lon="34.6312817652"><ele>165.00</ele><time>2026-08-21T13:19:58Z</time></trkpt><trkpt lat="59.3537283875" lon="34.6312555298"><ele>165.00</ele><time>2026-08-21T13:20:11Z</time></trkpt><trkpt lat="59.3537266273" lon="34.6312031429"><ele>165.00</ele><time>2026-08-21T13:20:33Z</time></trkpt><trkpt lat="59.3536985479" lon="34.6311174799"><ele>165.00</ele><time>2026-08-21T13:20:43Z</time></trkpt><trkpt lat="59.3536877353" lon="34.6309154760"><ele>165.00</ele><time>2026-08-21T13:20:57Z</time></trkpt><trkpt lat="59.3536740728" lon="34.6308378596"><ele>165.00</ele><time>2026-08-21T13:21:15Z</time></trkpt><trkpt lat="59.3536599912" lon="34.6305500250"><ele>165.00</ele><time>2026-08-21T13:21:31Z</time></trkpt><trkpt lat="59.3536185008" lon="34.6303270664"><ele>165.00</ele><time>2026-08-21T13:21:45Z</time></trkpt><trkpt lat="59.3536209315" lon="34.6301920339"><ele>165.48</ele><time>2026-08-21T13:21:58Z</time></trkpt><trkpt lat="59.3536025751" lon="34.6300376393"><ele>165.00</ele><time>2026-08-21T13:22:13Z</time></trkpt><trkpt lat="59.3535831291" lon="34.6299299318"><ele>165.96</ele><time>2026-08-21T13:22:27Z</time></trkpt><trkpt lat="59.3535365257" lon="34.6298549976"><ele>166.45</ele><time>2026-08-21T13:22:42Z</time></trkpt><trkpt lat="59.3535028305" lon="34.6298307739"><ele>165.48</ele><time>2026-08-21T13:23:02Z</time></trkpt><trkpt lat="59.3534038402" lon="34.6296934783"><ele>165.00</ele><time>2026-08-21T13:23:14Z</time></trkpt><trkpt lat="59.3534097075" lon="34.6296409238"><ele>164.52</ele><time>2026-08-21T13:23:39Z</time></trkpt><trkpt lat="59.3533987273" lon="34.6296601184"><ele>164.52</ele><time>2026-08-21T13:23:59Z</time></trkpt><trkpt lat="59.3533797842" lon="34.6296648122"><ele>164.52</ele><time>2026-08-21T13:24:15Z</time></trkpt><trkpt lat="59.3532433268" lon="34.6296152752"><ele>164.52</ele><time>2026-08-21T13:24:27Z</time></trkpt><trkpt lat="59.3531665485" lon="34.6296137664"><ele>164.52</ele><time>2026-08-21T13:24:39Z</time></trkpt><trkpt lat="59.3530424964" lon="34.6296686679"><ele>164.52</ele><time>2026-08-21T13:24:51Z</time></trkpt><trkpt lat="59.3529483676" lon="34.6296684165"><ele>164.52</ele><time>2026-08-21T13:25:05Z</time></trkpt><trkpt lat="59.3528411631" lon="34.6296964120"><ele>165.96</ele><time>2026-08-21T13:25:19Z</time></trkpt><trkpt lat="59.3526787218" lon="34.6297269221"><ele>165.96</ele><time>2026-08-21T13:25:32Z</time></trkpt><trkpt lat="59.3525422644" lon="34.6297636349"><ele>165.96</ele><time>2026-08-21T13:25:42Z</time></trkpt><trkpt lat="59.3524650671" lon="34.6297550853"><ele>165.96</ele><time>2026-08-21T13:25:49Z</time></trkpt><trkpt lat="59.3523256760" lon="34.6297719330"><ele>165.96</ele><time>2026-08-21T13:26:01Z</time></trkpt><trkpt lat="59.3522870354" lon="34.6297769621"><ele>165.96</ele><time>2026-08-21T13:26:05Z</time></trkpt><trkpt lat="59.3522483110" lon="34.6298309416"><ele>165.96</ele><time>2026-08-21T13:26:12Z</time></trkpt><trkpt lat="59.3521694373" lon="34.6297727711"><ele>165.96</ele><time>2026-08-21T13:26:24Z</time></trkpt><trkpt lat="59.3521582894" lon="34.6297477093"><ele>165.48</ele><time>2026-08-21T13:26:50Z</time></trkpt><trkpt lat="59.3520733807" lon="34.6297652274"><ele>165.48</ele><time>2026-08-21T13:27:06Z</time></trkpt><trkpt lat="59.3519653380" lon="34.6298461128"><ele>165.48</ele><time>2026-08-21T13:27:20Z</time></trkpt><trkpt lat="59.3519487418" lon="34.6298981644"><ele>165.48</ele><time>2026-08-21T13:27:31Z</time></trkpt><trkpt lat="59.3519163039" lon="34.6299269143"><ele>165.48</ele><time>2026-08-21T13:27:59Z</time></trkpt><trkpt lat="59.3519151304" lon="34.6299420018"><ele>165.48</ele><time>2026-08-21T13:28:18Z</time></trkpt><trkpt lat="59.3519097660" lon="34.6299415827"><ele>165.48</ele><time>2026-08-21T13:28:47Z</time></trkpt><trkpt lat="59.3519125320" lon="34.6299415827"><ele>165.48</ele><time>2026-08-21T13:29:23Z</time></trkpt><trkpt lat="59.3519207463" lon="34.6299527306"><ele>164.04</ele><time>2026-08-21T13:29:38Z</time></trkpt><trkpt lat="59.3519109394" lon="34.6299573407"><ele>164.04</ele><time>2026-08-21T13:30:05Z</time></trkpt><trkpt lat="59.3519135378" lon="34.6299583465"><ele>164.04</ele><time>2026-08-21T13:30:23Z</time></trkpt><trkpt lat="59.3519375101" lon="34.6299746912"><ele>164.04</ele><time>2026-08-21T13:30:44Z</time></trkpt><trkpt lat="59.3519007973" lon="34.6299310215"><ele>164.04</ele><time>2026-08-21T13:30:58Z</time></trkpt><trkpt lat="59.3518322334" lon="34.6299880184"><ele>164.04</ele><time>2026-08-21T13:31:10Z</time></trkpt><trkpt lat="59.3518229295" lon="34.6299959812"><ele>164.04</ele><time>2026-08-21T13:31:11Z</time></trkpt><trkpt lat="59.3516775034" lon="34.6300673950"><ele>164.04</ele><time>2026-08-21T13:31:23Z</time></trkpt><trkpt lat="59.3516272958" lon="34.6301291697"><ele>164.04</ele><time>2026-08-21T13:31:37Z</time></trkpt><trkpt lat="59.3515288085" lon="34.6302209515"><ele>163.56</ele><time>2026-08-21T13:31:49Z</time></trkpt><trkpt lat="59.3514877371" lon="34.6302880067"><ele>163.56</ele><time>2026-08-21T13:31:57Z</time></trkpt><trkpt lat="59.3513716478" lon="34.6304288227"><ele>163.56</ele><time>2026-08-21T13:32:10Z</time></trkpt><trkpt lat="59.3513830472" lon="34.6304928605"><ele>163.56</ele><time>2026-08-21T13:32:32Z</time></trkpt><trkpt lat="59.3513796944" lon="34.6304480173"><ele>163.56</ele><time>2026-08-21T13:33:03Z</time></trkpt><trkpt lat="59.3513906747" lon="34.6304429881"><ele>163.08</ele><time>2026-08-21T13:33:36Z</time></trkpt><trkpt lat="59.3513772637" lon="34.6304343548"><ele>161.64</ele><time>2026-08-21T13:33:57Z</time></trkpt><trkpt lat="59.3513747491" lon="34.6304289065"><ele>162.60</ele><time>2026-08-21T13:34:23Z</time></trkpt><trkpt lat="59.3513817899" lon="34.6304190159"><ele>163.08</ele><time>2026-08-21T13:34:45Z</time></trkpt><trkpt lat="59.3513812870" lon="34.6304159984"><ele>163.08</ele><time>2026-08-21T13:34:59Z</time></trkpt><trkpt lat="59.3513335939" lon="34.6304232907"><ele>163.08</ele><time>2026-08-21T13:35:14Z</time></trkpt><trkpt lat="59.3512195162" lon="34.6304633562"><ele>163.08</ele><time>2026-08-21T13:35:28Z</time></trkpt><trkpt lat="59.3511090428" lon="34.6304579079"><ele>163.08</ele><time>2026-08-21T13:35:40Z</time></trkpt><trkpt lat="59.3510144949" lon="34.6304760966"><ele>163.08</ele><time>2026-08-21T13:35:51Z</time></trkpt><trkpt lat="59.3508834019" lon="34.6305545513"><ele>163.08</ele><time>2026-08-21T13:36:04Z</time></trkpt><trkpt lat="59.3507623672" lon="34.6305887494"><ele>163.08</ele><time>2026-08-21T13:36:16Z</time></trkpt><trkpt lat="59.3506526481" lon="34.6306366939"><ele>163.08</ele><time>2026-08-21T13:36:29Z</time></trkpt><trkpt lat="59.3506092299" lon="34.6306545474"><ele>163.08</ele><time>2026-08-21T13:36:39Z</time></trkpt><trkpt lat="59.3505553342" lon="34.6306939423"><ele>163.08</ele><time>2026-08-21T13:36:49Z</time></trkpt><trkpt lat="59.3504392449" lon="34.6307248715"><ele>162.60</ele><time>2026-08-21T13:36:59Z</time></trkpt><trkpt lat="59.3503690045" lon="34.6307594050"><ele>162.60</ele><time>2026-08-21T13:37:11Z</time></trkpt><trkpt lat="59.3503147736" lon="34.6308163181"><ele>162.60</ele><time>2026-08-21T13:37:30Z</time></trkpt><trkpt lat="59.3501351494" lon="34.6310656797"><ele>162.60</ele><time>2026-08-21T13:37:48Z</time></trkpt><trkpt lat="59.3500506599" lon="34.6310800966"><ele>162.60</ele><time>2026-08-21T13:38:03Z</time></trkpt><trkpt lat="59.3499434553" lon="34.6311308909"><ele>162.60</ele><time>2026-08-21T13:38:20Z</time></trkpt><trkpt lat="59.3498460576" lon="34.6311237663"><ele>162.12</ele><time>2026-08-21T13:38:34Z</time></trkpt><trkpt lat="59.3497317284" lon="34.6311852057"><ele>162.12</ele><time>2026-08-21T13:38:50Z</time></trkpt><trkpt lat="59.3495985400" lon="34.6311153006"><ele>162.12</ele><time>2026-08-21T13:39:04Z</time></trkpt><trkpt lat="59.3495036568" lon="34.6311112773"><ele>162.12</ele><time>2026-08-21T13:39:12Z</time></trkpt><trkpt lat="59.3494456541" lon="34.6311446372"><ele>162.12</ele><time>2026-08-21T13:39:28Z</time></trkpt><trkpt lat="59.3494528625" lon="34.6311408654"><ele>162.12</ele><time>2026-08-21T13:39:50Z</time></trkpt><trkpt lat="59.3494445644" lon="34.6311344951"><ele>162.12</ele><time>2026-08-21T13:40:13Z</time></trkpt><trkpt lat="59.3494656868" lon="34.6311955154"><ele>162.12</ele><time>2026-08-21T13:40:38Z</time></trkpt><trkpt lat="59.3494576402" lon="34.6311800089"><ele>162.12</ele><time>2026-08-21T13:41:02Z</time></trkpt><trkpt lat="59.3494464085" lon="34.6311604790"><ele>162.12</ele><time>2026-08-21T13:41:27Z</time></trkpt><trkpt lat="59.3494644295" lon="34.6311075054"><ele>161.64</ele><time>2026-08-21T13:42:03Z</time></trkpt><trkpt lat="59.3494654354" lon="34.6310894005"><ele>161.64</ele><time>2026-08-21T13:42:26Z</time></trkpt><trkpt lat="59.3494725600" lon="34.6310686134"><ele>161.64</ele><time>2026-08-21T13:42:44Z</time></trkpt><trkpt lat="59.3494871445" lon="34.6308547072"><ele>161.64</ele><time>2026-08-21T13:42:59Z</time></trkpt><trkpt lat="59.3494671118" lon="34.6307191718"><ele>161.64</ele><time>2026-08-21T13:43:16Z</time></trkpt><trkpt lat="59.3494591489" lon="34.6305611730"><ele>161.64</ele><time>2026-08-21T13:43:29Z</time></trkpt><trkpt lat="59.3494485039" lon="34.6302904375"><ele>161.64</ele><time>2026-08-21T13:43:46Z</time></trkpt><trkpt lat="59.3494517729" lon="34.6300371364"><ele>161.16</ele><time>2026-08-21T13:44:03Z</time></trkpt><trkpt lat="59.3494202569" lon="34.6298118308"><ele>161.16</ele><time>2026-08-21T13:44:14Z</time></trkpt><trkpt lat="59.3494485039" lon="34.6296887007"><ele>161.16</ele><time>2026-08-21T13:44:28Z</time></trkpt><trkpt lat="59.3494531978" lon="34.6295805741"><ele>161.16</ele><time>2026-08-21T13:44:41Z</time></trkpt><trkpt lat="59.3493141420" lon="34.6294407640"><ele>161.16</ele><time>2026-08-21T13:44:56Z</time></trkpt><trkpt lat="59.3493015692" lon="34.6293965913"><ele>161.64</ele><time>2026-08-21T13:45:13Z</time></trkpt><trkpt lat="59.3492623419" lon="34.6291407757"><ele>161.64</ele><time>2026-08-21T13:45:27Z</time></trkpt><trkpt lat="59.3492796924" lon="34.6289678570"><ele>162.12</ele><time>2026-08-21T13:45:38Z</time></trkpt><trkpt lat="59.3492872361" lon="34.6287174057"><ele>162.12</ele><time>2026-08-21T13:45:53Z</time></trkpt><trkpt lat="59.3492802791" lon="34.6284169983"><ele>162.12</ele><time>2026-08-21T13:46:08Z</time></trkpt><trkpt lat="59.3492536247" lon="34.6282983106"><ele>162.12</ele><time>2026-08-21T13:46:20Z</time></trkpt><trkpt lat="59.3492841348" lon="34.6281071194"><ele>162.12</ele><time>2026-08-21T13:46:32Z</time></trkpt><trkpt lat="59.3492965400" lon="34.6280292515"><ele>162.12</ele><time>2026-08-21T13:46:45Z</time></trkpt><trkpt lat="59.3493251223" lon="34.6279442590"><ele>162.12</ele><time>2026-08-21T13:47:00Z</time></trkpt><trkpt lat="59.3493320793" lon="34.6279424988"><ele>162.12</ele><time>2026-08-21T13:47:29Z</time></trkpt><trkpt lat="59.3493207637" lon="34.6279300097"><ele>162.12</ele><time>2026-08-21T13:47:52Z</time></trkpt><trkpt lat="59.3493214343" lon="34.6279337816"><ele>162.12</ele><time>2026-08-21T13:48:15Z</time></trkpt><trkpt lat="59.3493267987" lon="34.6279279143"><ele>162.12</ele><time>2026-08-21T13:48:38Z</time></trkpt><trkpt lat="59.3493378628" lon="34.6279251482"><ele>162.12</ele><time>2026-08-21T13:49:01Z</time></trkpt><trkpt lat="59.3493298162" lon="34.6278847475"><ele>162.12</ele><time>2026-08-21T13:49:20Z</time></trkpt><trkpt lat="59.3493703008" lon="34.6278876811"><ele>162.12</ele><time>2026-08-21T13:49:41Z</time></trkpt><trkpt lat="59.3493651040" lon="34.6278120764"><ele>162.12</ele><time>2026-08-21T13:50:02Z</time></trkpt><trkpt lat="59.3494039122" lon="34.6277555823"><ele>161.16</ele><time>2026-08-21T13:50:18Z</time></trkpt><trkpt lat="59.3494506832" lon="34.6276128385"><ele>161.16</ele><time>2026-08-21T13:50:28Z</time></trkpt><trkpt lat="59.3495039083" lon="34.6275443584"><ele>161.16</ele><time>2026-08-21T13:50:42Z</time></trkpt><trkpt lat="59.3495243602" lon="34.6275156084"><ele>161.16</ele><time>2026-08-21T13:50:47Z</time></trkpt><trkpt lat="59.3495832849" lon="34.6274526604"><ele>161.16</ele><time>2026-08-21T13:50:58Z</time></trkpt><trkpt lat="59.3497284595" lon="34.6274253353"><ele>160.68</ele><time>2026-08-21T13:51:14Z</time></trkpt><trkpt lat="59.3497437146" lon="34.6274294425"><ele>161.16</ele><time>2026-08-21T13:51:28Z</time></trkpt><trkpt lat="59.3497665133" lon="34.6274570189"><ele>161.16</ele><time>2026-08-21T13:51:44Z</time></trkpt><trkpt lat="59.3497936707" lon="34.6275442746"><ele>161.16</ele><time>2026-08-21T13:52:01Z</time></trkpt><trkpt lat="59.3499174714" lon="34.6278927941"><ele>161.16</ele><time>2026-08-21T13:52:17Z</time></trkpt><trkpt lat="59.3499496579" lon="34.6279493719"><ele>161.16</ele><time>2026-08-21T13:52:30Z</time></trkpt><trkpt lat="59.3499985244" lon="34.6280696522"><ele>161.16</ele><time>2026-08-21T13:52:45Z</time></trkpt><trkpt lat="59.3500741292" lon="34.6284369472"><ele>161.16</ele><time>2026-08-21T13:53:04Z</time></trkpt><trkpt lat="59.3500439543" lon="34.6286055073"><ele>161.16</ele><time>2026-08-21T13:53:15Z</time></trkpt><trkpt lat="59.3500624783" lon="34.6288464870"><ele>161.16</ele><time>2026-08-21T13:53:31Z</time></trkpt><trkpt lat="59.3500639871" lon="34.6289613191"><ele>159.72</ele><time>2026-08-21T13:53:48Z</time></trkpt><trkpt lat="59.3500676751" lon="34.6290250216"><ele>159.72</ele><time>2026-08-21T13:54:05Z</time></trkpt><trkpt lat="59.3501282763" lon="34.6292551048"><ele>159.72</ele><time>2026-08-21T13:54:21Z</time></trkpt><trkpt lat="59.3502456229" lon="34.6293285303"><ele>159.72</ele><time>2026-08-21T13:54:27Z</time></trkpt><trkpt lat="59.3503018655" lon="34.6292994451"><ele>159.72</ele><time>2026-08-21T13:54:37Z</time></trkpt><trkpt lat="59.3503248319" lon="34.6291950904"><ele>160.20</ele><time>2026-08-21T13:54:51Z</time></trkpt><trkpt lat="59.3503908813" lon="34.6290487424"><ele>159.72</ele><time>2026-08-21T13:55:02Z</time></trkpt><trkpt lat="59.3504208885" lon="34.6290060785"><ele>159.72</ele><time>2026-08-21T13:55:07Z</time></trkpt><trkpt lat="59.3505088985" lon="34.6289070882"><ele>160.20</ele><time>2026-08-21T13:55:17Z</time></trkpt><trkpt lat="59.3505586870" lon="34.6288277954"><ele>160.20</ele><time>2026-08-21T13:55:29Z</time></trkpt><trkpt lat="59.3506109901" lon="34.6286436450"><ele>160.20</ele><time>2026-08-21T13:55:42Z</time></trkpt><trkpt lat="59.3506539054" lon="34.6285368595"><ele>160.20</ele><time>2026-08-21T13:55:53Z</time></trkpt><trkpt lat="59.3506899476" lon="34.6283714008"><ele>160.20</ele><time>2026-08-21T13:56:05Z</time></trkpt><trkpt lat="59.3507249840" lon="34.6282307524"><ele>159.24</ele><time>2026-08-21T13:56:19Z</time></trkpt><trkpt lat="59.3507531472" lon="34.6281721629"><ele>159.24</ele><time>2026-08-21T13:56:26Z</time></trkpt><trkpt lat="59.3507981580" lon="34.6280013397"><ele>159.24</ele><time>2026-08-21T13:56:38Z</time></trkpt><trkpt lat="59.3507979903" lon="34.6278984100"><ele>159.24</ele><time>2026-08-21T13:56:50Z</time></trkpt><trkpt lat="59.3508469407" lon="34.6278170217"><ele>159.24</ele><time>2026-08-21T13:57:02Z</time></trkpt><trkpt lat="59.3509144988" lon="34.6278520580"><ele>159.24</ele><time>2026-08-21T13:57:15Z</time></trkpt><trkpt lat="59.3509491999" lon="34.6279381402"><ele>159.24</ele><time>2026-08-21T13:57:29Z</time></trkpt><trkpt lat="59.3510988168" lon="34.6280541457"><ele>159.24</ele><time>2026-08-21T13:57:44Z</time></trkpt><trkpt lat="59.3513038382" lon="34.6281496156"><ele>159.24</ele><time>2026-08-21T13:57:58Z</time></trkpt><trkpt lat="59.3513899203" lon="34.6281570755"><ele>159.24</ele><time>2026-08-21T13:58:11Z</time></trkpt><trkpt lat="59.3514641840" lon="34.6281963028"><ele>159.24</ele><time>2026-08-21T13:58:27Z</time></trkpt><trkpt lat="59.3515025731" lon="34.6282311715"><ele>159.24</ele><time>2026-08-21T13:58:44Z</time></trkpt><trkpt lat="59.3515269645" lon="34.6282399725"><ele>159.24</ele><time>2026-08-21T13:59:03Z</time></trkpt><trkpt lat="59.3515271321" lon="34.6282570716"><ele>159.24</ele><time>2026-08-21T13:59:31Z</time></trkpt><trkpt lat="59.3515381124" lon="34.6282265615"><ele>158.75</ele><time>2026-08-21T13:59:59Z</time></trkpt><trkpt lat="59.3515403755" lon="34.6282291599"><ele>158.75</ele><time>2026-08-21T14:00:02Z</time></trkpt><trkpt lat="59.3515892420" lon="34.6282458398"><ele>158.75</ele><time>2026-08-21T14:00:12Z</time></trkpt><trkpt lat="59.3516763300" lon="34.6282240469"><ele>158.75</ele><time>2026-08-21T14:00:27Z</time></trkpt><trkpt lat="59.3517905753" lon="34.6281760186"><ele>158.75</ele><time>2026-08-21T14:00:40Z</time></trkpt><trkpt lat="59.3518981151" lon="34.6281537227"><ele>158.27</ele><time>2026-08-21T14:00:53Z</time></trkpt><trkpt lat="59.3519757316" lon="34.6280868351"><ele>158.27</ele><time>2026-08-21T14:01:05Z</time></trkpt><trkpt lat="59.3520721234" lon="34.6279901918"><ele>158.27</ele><time>2026-08-21T14:01:12Z</time></trkpt><trkpt lat="59.3521663360" lon="34.6278877649"><ele>158.27</ele><time>2026-08-21T14:01:24Z</time></trkpt><trkpt lat="59.3522723671" lon="34.6277625393"><ele>158.27</ele><time>2026-08-21T14:01:39Z</time></trkpt><trkpt lat="59.3523793202" lon="34.6276702546"><ele>158.27</ele><time>2026-08-21T14:01:55Z</time></trkpt><trkpt lat="59.3524372391" lon="34.6275792271"><ele>158.27</ele><time>2026-08-21T14:02:01Z</time></trkpt><trkpt lat="59.3524614628" lon="34.6275410894"><ele>158.27</ele><time>2026-08-21T14:02:04Z</time></trkpt><trkpt lat="59.3525249977" lon="34.6274473798"><ele>158.27</ele><time>2026-08-21T14:02:16Z</time></trkpt><trkpt lat="59.3526024465" lon="34.6273137722"><ele>158.27</ele><time>2026-08-21T14:02:27Z</time></trkpt><trkpt lat="59.3527076393" lon="34.6272869501"><ele>158.27</ele><time>2026-08-21T14:02:40Z</time></trkpt><trkpt lat="59.3527578469" lon="34.6273451205"><ele>158.27</ele><time>2026-08-21T14:02:46Z</time></trkpt><trkpt lat="59.3528112397" lon="34.6274531633"><ele>158.27</ele><time>2026-08-21T14:03:02Z</time></trkpt><trkpt lat="59.3528382294" lon="34.6274593659"><ele>158.27</ele><time>2026-08-21T14:03:21Z</time></trkpt><trkpt lat="59.3529067934" lon="34.6275691688"><ele>159.72</ele><time>2026-08-21T14:03:35Z</time></trkpt><trkpt lat="59.3529415783" lon="34.6276391577"><ele>160.68</ele><time>2026-08-21T14:03:55Z</time></trkpt><trkpt lat="59.3530186079" lon="34.6277387347"><ele>160.68</ele><time>2026-08-21T14:04:11Z</time></trkpt><trkpt lat="59.3531012535" lon="34.6277985815"><ele>160.68</ele><time>2026-08-21T14:04:31Z</time></trkpt><trkpt lat="59.3531051930" lon="34.6278397366"><ele>160.20</ele><time>2026-08-21T14:04:53Z</time></trkpt><trkpt lat="59.3531036004" lon="34.6278178599"><ele>160.68</ele><time>2026-08-21T14:05:21Z</time></trkpt><trkpt lat="59.3531075399" lon="34.6278222185"><ele>160.68</ele><time>2026-08-21T14:05:45Z</time></trkpt><trkpt lat="59.3531013373" lon="34.6278009284"><ele>160.68</ele><time>2026-08-21T14:06:13Z</time></trkpt><trkpt lat="59.3530930392" lon="34.6278124955"><ele>160.68</ele><time>2026-08-21T14:06:40Z</time></trkpt><trkpt lat="59.3530884292" lon="34.6278161835"><ele>160.68</ele><time>2026-08-21T14:07:05Z</time></trkpt><trkpt lat="59.3531022593" lon="34.6277737711"><ele>160.20</ele><time>2026-08-21T14:07:17Z</time></trkpt><trkpt lat="59.3531427439" lon="34.6276808158"><ele>158.27</ele><time>2026-08-21T14:07:28Z</time></trkpt><trkpt lat="59.3532439973" lon="34.6276226453"><ele>157.31</ele><time>2026-08-21T14:07:38Z</time></trkpt><trkpt lat="59.3533119746" lon="34.6275842562"><ele>157.31</ele><time>2026-08-21T14:07:47Z</time></trkpt><trkpt lat="59.3533449154" lon="34.6275731083"><ele>157.31</ele><time>2026-08-21T14:08:00Z</time></trkpt><trkpt lat="59.3533529621" lon="34.6275664866"><ele>156.83</ele><time>2026-08-21T14:08:16Z</time></trkpt><trkpt lat="59.3533668760" lon="34.6275582723"><ele>156.83</ele><time>2026-08-21T14:08:40Z</time></trkpt><trkpt lat="59.3533748388" lon="34.6275619604"><ele>155.87</ele><time>2026-08-21T14:09:03Z</time></trkpt><trkpt lat="59.3533849809" lon="34.6275374014"><ele>155.87</ele><time>2026-08-21T14:09:33Z</time></trkpt><trkpt lat="59.3533874117" lon="34.6275369823"><ele>155.87</ele><time>2026-08-21T14:10:01Z</time></trkpt><trkpt lat="59.3533928599" lon="34.6275536623"><ele>155.87</ele><time>2026-08-21T14:10:15Z</time></trkpt><trkpt lat="59.3533957936" lon="34.6275634691"><ele>155.87</ele><time>2026-08-21T14:10:44Z</time></trkpt><trkpt lat="59.3533967156" lon="34.6275645588"><ele>155.87</ele><time>2026-08-21T14:11:04Z</time></trkpt><trkpt lat="59.3534027506" lon="34.6275609545"><ele>155.87</ele><time>2026-08-21T14:11:17Z</time></trkpt><trkpt lat="59.3534096237" lon="34.6275534946"><ele>155.87</ele><time>2026-08-21T14:11:38Z</time></trkpt><trkpt lat="59.3534134794" lon="34.6275726054"><ele>155.87</ele><time>2026-08-21T14:11:56Z</time></trkpt><trkpt lat="59.3534218613" lon="34.6275617089"><ele>155.87</ele><time>2026-08-21T14:12:19Z</time></trkpt><trkpt lat="59.3534335960" lon="34.6275238227"><ele>155.87</ele><time>2026-08-21T14:12:34Z</time></trkpt><trkpt lat="59.3534382898" lon="34.6275176201"><ele>155.87</ele><time>2026-08-21T14:12:52Z</time></trkpt><trkpt lat="59.3534437381" lon="34.6275161114"><ele>156.35</ele><time>2026-08-21T14:13:21Z</time></trkpt><trkpt lat="59.3534340989" lon="34.6275275107"><ele>156.35</ele><time>2026-08-21T14:13:32Z</time></trkpt><trkpt lat="59.3534525391" lon="34.6275291871"><ele>156.35</ele><time>2026-08-21T14:13:46Z</time></trkpt><trkpt lat="59.3534343503" lon="34.6275035385"><ele>156.35</ele><time>2026-08-21T14:14:09Z</time></trkpt><trkpt lat="59.3534123898" lon="34.6275322046"><ele>156.35</ele><time>2026-08-21T14:14:28Z</time></trkpt><trkpt lat="59.3534317520" lon="34.6274975874"><ele>156.35</ele><time>2026-08-21T14:14:48Z</time></trkpt><trkpt lat="59.3534325063" lon="34.6274790633"><ele>156.35</ele><time>2026-08-21T14:15:06Z</time></trkpt><trkpt lat="59.3534272257" lon="34.6274787281"><ele>156.83</ele><time>2026-08-21T14:15:24Z</time></trkpt><trkpt lat="59.3534316681" lon="34.6274806559"><ele>156.35</ele><time>2026-08-21T14:15:41Z</time></trkpt><trkpt lat="59.3534288183" lon="34.6274911333"><ele>156.35</ele><time>2026-08-21T14:16:03Z</time></trkpt><trkpt lat="59.3534206040" lon="34.6275050472"><ele>156.35</ele><time>2026-08-21T14:16:33Z</time></trkpt><trkpt lat="59.3534144852" lon="34.6275084000"><ele>156.35</ele><time>2026-08-21T14:16:59Z</time></trkpt><trkpt lat="59.3534492701" lon="34.6277079731"><ele>156.35</ele><time>2026-08-21T14:17:20Z</time></trkpt><trkpt lat="59.3533984758" lon="34.6271633171"><ele>156.35</ele><time>2026-08-21T14:18:18Z</time></trkpt><trkpt lat="59.3533973861" lon="34.6275151055"><ele>156.35</ele><time>2026-08-21T14:18:43Z</time></trkpt><trkpt lat="59.3534020800" lon="34.6275243256"><ele>156.35</ele><time>2026-08-21T14:19:04Z</time></trkpt><trkpt lat="59.3533848971" lon="34.6275524050"><ele>156.35</ele><time>2026-08-21T14:19:24Z</time></trkpt><trkpt lat="59.3534175865" lon="34.6274911333"><ele>156.35</ele><time>2026-08-21T14:19:46Z</time></trkpt><trkpt lat="59.3534434866" lon="34.6274130139"><ele>156.35</ele><time>2026-08-21T14:19:50Z</time></trkpt><trkpt lat="59.3534594961" lon="34.6273614652"><ele>156.35</ele><time>2026-08-21T14:19:53Z</time></trkpt><trkpt lat="59.3534839712" lon="34.6272054780"><ele>156.35</ele><time>2026-08-21T14:20:02Z</time></trkpt><trkpt lat="59.3535019085" lon="34.6271403506"><ele>156.35</ele><time>2026-08-21T14:20:06Z</time></trkpt><trkpt lat="59.3535403814" lon="34.6270627342"><ele>156.35</ele><time>2026-08-21T14:20:12Z</time></trkpt><trkpt lat="59.3535335083" lon="34.6270156279"><ele>156.35</ele><time>2026-08-21T14:20:16Z</time></trkpt><trkpt lat="59.3536185008" lon="34.6268265322"><ele>156.35</ele><time>2026-08-21T14:20:28Z</time></trkpt><trkpt lat="59.3536256254" lon="34.6268167254"><ele>156.35</ele><time>2026-08-21T14:20:29Z</time></trkpt><trkpt lat="59.3536721449" lon="34.6267766599"><ele>157.79</ele><time>2026-08-21T14:20:33Z</time></trkpt><trkpt lat="59.3537495099" lon="34.6266377717"><ele>157.79</ele><time>2026-08-21T14:20:46Z</time></trkpt><trkpt lat="59.3538345862" lon="34.6265195031"><ele>157.79</ele><time>2026-08-21T14:20:59Z</time></trkpt><trkpt lat="59.3539312296" lon="34.6264691278"><ele>157.79</ele><time>2026-08-21T14:21:10Z</time></trkpt><trkpt lat="59.3540090136" lon="34.6264306549"><ele>157.79</ele><time>2026-08-21T14:21:22Z</time></trkpt><trkpt lat="59.3540826906" lon="34.6263594087"><ele>157.79</ele><time>2026-08-21T14:21:34Z</time></trkpt><trkpt lat="59.3541977741" lon="34.6263659466"><ele>157.79</ele><time>2026-08-21T14:21:47Z</time></trkpt><trkpt lat="59.3542464729" lon="34.6263460815"><ele>157.79</ele><time>2026-08-21T14:21:58Z</time></trkpt><trkpt lat="59.3543814216" lon="34.6263707243"><ele>158.27</ele><time>2026-08-21T14:22:11Z</time></trkpt><trkpt lat="59.3544493150" lon="34.6264349297"><ele>158.27</ele><time>2026-08-21T14:22:22Z</time></trkpt><trkpt lat="59.3545364868" lon="34.6265755780"><ele>158.27</ele><time>2026-08-21T14:22:35Z</time></trkpt><trkpt lat="59.3546115886" lon="34.6266782563"><ele>158.27</ele><time>2026-08-21T14:22:48Z</time></trkpt><trkpt lat="59.3546814099" lon="34.6266646776"><ele>158.27</ele><time>2026-08-21T14:22:59Z</time></trkpt><trkpt lat="59.3547612056" lon="34.6266424656"><ele>158.27</ele><time>2026-08-21T14:23:10Z</time></trkpt><trkpt lat="59.3548360560" lon="34.6266174037"><ele>158.27</ele><time>2026-08-21T14:23:22Z</time></trkpt><trkpt lat="59.3548915442" lon="34.6266414598"><ele>158.27</ele><time>2026-08-21T14:23:29Z</time></trkpt><trkpt lat="59.3550078012" lon="34.6266706288"><ele>157.79</ele><time>2026-08-21T14:23:43Z</time></trkpt><trkpt lat="59.3550766166" lon="34.6266635880"><ele>157.79</ele><time>2026-08-21T14:23:51Z</time></trkpt><trkpt lat="59.3551595975" lon="34.6267210040"><ele>157.79</ele><time>2026-08-21T14:24:03Z</time></trkpt><trkpt lat="59.3552008364" lon="34.6267505921"><ele>157.79</ele><time>2026-08-21T14:24:14Z</time></trkpt><trkpt lat="59.3552487809" lon="34.6268050745"><ele>157.79</ele><time>2026-08-21T14:24:24Z</time></trkpt><trkpt lat="59.3552540615" lon="34.6268083435"><ele>157.79</ele><time>2026-08-21T14:24:27Z</time></trkpt><trkpt lat="59.3553211167" lon="34.6267680265"><ele>157.79</ele><time>2026-08-21T14:24:37Z</time></trkpt><trkpt lat="59.3554226216" lon="34.6267008036"><ele>157.79</ele><time>2026-08-21T14:24:48Z</time></trkpt><trkpt lat="59.3554595858" lon="34.6266428009"><ele>157.79</ele><time>2026-08-21T14:24:52Z</time></trkpt><trkpt lat="59.3555726577" lon="34.6265025716"><ele>157.79</ele><time>2026-08-21T14:25:05Z</time></trkpt><trkpt lat="59.3556195963" lon="34.6263878234"><ele>157.31</ele><time>2026-08-21T14:25:17Z</time></trkpt><trkpt lat="59.3556540459" lon="34.6263344306"><ele>157.31</ele><time>2026-08-21T14:25:37Z</time></trkpt><trkpt lat="59.3556714803" lon="34.6262879949"><ele>157.31</ele><time>2026-08-21T14:25:53Z</time></trkpt><trkpt lat="59.3557057623" lon="34.6262698900"><ele>157.31</ele><time>2026-08-21T14:26:18Z</time></trkpt><trkpt lat="59.3557197601" lon="34.6262442414"><ele>157.31</ele><time>2026-08-21T14:26:44Z</time></trkpt><trkpt lat="59.3557237834" lon="34.6262370329"><ele>157.31</ele><time>2026-08-21T14:27:05Z</time></trkpt><trkpt lat="59.3557414692" lon="34.6262400504"><ele>157.31</ele><time>2026-08-21T14:27:22Z</time></trkpt><trkpt lat="59.3557763379" lon="34.6261616796"><ele>157.31</ele><time>2026-08-21T14:27:41Z</time></trkpt><trkpt lat="59.3558882363" lon="34.6259850729"><ele>158.75</ele><time>2026-08-21T14:27:58Z</time></trkpt><trkpt lat="59.3559535313" lon="34.6257908642"><ele>159.24</ele><time>2026-08-21T14:28:18Z</time></trkpt><trkpt lat="59.3559753243" lon="34.6256373916"><ele>159.24</ele><time>2026-08-21T14:28:33Z</time></trkpt><trkpt lat="59.3560216762" lon="34.6255250741"><ele>159.24</ele><time>2026-08-21T14:28:50Z</time></trkpt><trkpt lat="59.3560671899" lon="34.6254515648"><ele>160.20</ele><time>2026-08-21T14:29:06Z</time></trkpt><trkpt lat="59.3561147153" lon="34.6253878623"><ele>161.16</ele><time>2026-08-21T14:29:20Z</time></trkpt><trkpt lat="59.3560769968" lon="34.6251090802"><ele>161.16</ele><time>2026-08-21T14:29:32Z</time></trkpt><trkpt lat="59.3560875580" lon="34.6249048132"><ele>162.12</ele><time>2026-08-21T14:29:49Z</time></trkpt><trkpt lat="59.3561101053" lon="34.6247062460"><ele>162.60</ele><time>2026-08-21T14:30:05Z</time></trkpt><trkpt lat="59.3561254442" lon="34.6246437170"><ele>162.60</ele><time>2026-08-21T14:30:22Z</time></trkpt><trkpt lat="59.3561509252" lon="34.6244904120"><ele>162.60</ele><time>2026-08-21T14:30:37Z</time></trkpt><trkpt lat="59.3562313076" lon="34.6243254561"><ele>161.16</ele><time>2026-08-21T14:30:51Z</time></trkpt><trkpt lat="59.3562489096" lon="34.6242998075"><ele>161.64</ele><time>2026-08-21T14:31:07Z</time></trkpt><trkpt lat="59.3562810961" lon="34.6242030803"><ele>161.64</ele><time>2026-08-21T14:31:24Z</time></trkpt><trkpt lat="59.3562701158" lon="34.6241358574"><ele>161.64</ele><time>2026-08-21T14:31:30Z</time></trkpt><trkpt lat="59.3562311400" lon="34.6238339413"><ele>160.20</ele><time>2026-08-21T14:31:43Z</time></trkpt><trkpt lat="59.3562257756" lon="34.6237632819"><ele>160.20</ele><time>2026-08-21T14:31:56Z</time></trkpt><trkpt lat="59.3561945949" lon="34.6236334462"><ele>160.20</ele><time>2026-08-21T14:32:08Z</time></trkpt><trkpt lat="59.3561431300" lon="34.6235044487"><ele>159.72</ele><time>2026-08-21T14:32:25Z</time></trkpt><trkpt lat="59.3560777511" lon="34.6233635489"><ele>159.72</ele><time>2026-08-21T14:32:41Z</time></trkpt><trkpt lat="59.3560194969" lon="34.6232194640"><ele>159.72</ele><time>2026-08-21T14:32:56Z</time></trkpt><trkpt lat="59.3559639249" lon="34.6230649017"><ele>161.16</ele><time>2026-08-21T14:33:09Z</time></trkpt><trkpt lat="59.3559224345" lon="34.6229709405"><ele>161.16</ele><time>2026-08-21T14:33:23Z</time></trkpt><trkpt lat="59.3558486737" lon="34.6228260174"><ele>161.16</ele><time>2026-08-21T14:33:37Z</time></trkpt><trkpt lat="59.3557889108" lon="34.6227452159"><ele>161.16</ele><time>2026-08-21T14:33:49Z</time></trkpt><trkpt lat="59.3557490967" lon="34.6226554457"><ele>161.16</ele><time>2026-08-21T14:34:04Z</time></trkpt><trkpt lat="59.3556475081" lon="34.6225206647"><ele>160.20</ele><time>2026-08-21T14:34:19Z</time></trkpt><trkpt lat="59.3555905949" lon="34.6224146336"><ele>159.72</ele><time>2026-08-21T14:34:33Z</time></trkpt><trkpt lat="59.3555710651" lon="34.6222784277"><ele>159.72</ele><time>2026-08-21T14:34:50Z</time></trkpt><trkpt lat="59.3555869069" lon="34.6222043317"><ele>159.72</ele><time>2026-08-21T14:35:06Z</time></trkpt><trkpt lat="59.3556069396" lon="34.6220654435"><ele>160.68</ele><time>2026-08-21T14:35:20Z</time></trkpt><trkpt lat="59.3556978833" lon="34.6218884178"><ele>160.68</ele><time>2026-08-21T14:35:34Z</time></trkpt><trkpt lat="59.3557176646" lon="34.6217087097"><ele>162.12</ele><time>2026-08-21T14:35:48Z</time></trkpt><trkpt lat="59.3557159882" lon="34.6215992421"><ele>162.60</ele><time>2026-08-21T14:35:59Z</time></trkpt><trkpt lat="59.3557045888" lon="34.6214781236"><ele>162.60</ele><time>2026-08-21T14:36:10Z</time></trkpt><trkpt lat="59.3557062652" lon="34.6214445960"><ele>162.60</ele><time>2026-08-21T14:36:30Z</time></trkpt><trkpt lat="59.3556770124" lon="34.6213939693"><ele>163.08</ele><time>2026-08-21T14:36:49Z</time></trkpt><trkpt lat="59.3555856496" lon="34.6212328691"><ele>162.12</ele><time>2026-08-21T14:37:04Z</time></trkpt><trkpt lat="59.3555209413" lon="34.6211385727"><ele>161.64</ele><time>2026-08-21T14:37:15Z</time></trkpt><trkpt lat="59.3555043451" lon="34.6210831683"><ele>161.64</ele><time>2026-08-21T14:37:29Z</time></trkpt><trkpt lat="59.3554437440" lon="34.6210011933"><ele>161.64</ele><time>2026-08-21T14:37:56Z</time></trkpt><trkpt lat="59.3554074503" lon="34.6208690107"><ele>161.16</ele><time>2026-08-21T14:38:12Z</time></trkpt><trkpt lat="59.3553998228" lon="34.6208560187"><ele>161.16</ele><time>2026-08-21T14:38:40Z</time></trkpt><trkpt lat="59.3554000743" lon="34.6208625566"><ele>161.16</ele><time>2026-08-21T14:39:11Z</time></trkpt><trkpt lat="59.3553965539" lon="34.6208716091"><ele>161.16</ele><time>2026-08-21T14:39:36Z</time></trkpt><trkpt lat="59.3553477712" lon="34.6206573676"><ele>161.16</ele><time>2026-08-21T14:39:48Z</time></trkpt><trkpt lat="59.3552942108" lon="34.6204541065"><ele>161.16</ele><time>2026-08-21T14:40:03Z</time></trkpt><trkpt lat="59.3552428298" lon="34.6202337462"><ele>161.16</ele><time>2026-08-21T14:40:17Z</time></trkpt><trkpt lat="59.3551909458" lon="34.6200932655"><ele>161.16</ele><time>2026-08-21T14:40:35Z</time></trkpt><trkpt lat="59.3551145867" lon="34.6197609231"><ele>161.16</ele><time>2026-08-21T14:40:49Z</time></trkpt><trkpt lat="59.3550600205" lon="34.6195385512"><ele>161.16</ele><time>2026-08-21T14:41:03Z</time></trkpt><trkpt lat="59.3549565040" lon="34.6193526406"><ele>160.68</ele><time>2026-08-21T14:41:16Z</time></trkpt><trkpt lat="59.3549120799" lon="34.6192713361"><ele>161.16</ele><time>2026-08-21T14:41:31Z</time></trkpt><trkpt lat="59.3548256624" lon="34.6191745251"><ele>160.68</ele><time>2026-08-21T14:41:47Z</time></trkpt><trkpt lat="59.3547923025" lon="34.6191378124"><ele>160.68</ele><time>2026-08-21T14:42:00Z</time></trkpt><trkpt lat="59.3547787238" lon="34.6191730164"><ele>160.68</ele><time>2026-08-21T14:42:32Z</time></trkpt><trkpt lat="59.3547751196" lon="34.6191675682"><ele>160.68</ele><time>2026-08-21T14:43:05Z</time></trkpt><trkpt lat="59.3547630496" lon="34.6191415004"><ele>161.16</ele><time>2026-08-21T14:43:29Z</time></trkpt><trkpt lat="59.3547403347" lon="34.6190995071"><ele>161.16</ele><time>2026-08-21T14:43:53Z</time></trkpt><trkpt lat="59.3547105789" lon="34.6190876886"><ele>161.16</ele><time>2026-08-21T14:44:20Z</time></trkpt><trkpt lat="59.3546446133" lon="34.6191134211"><ele>161.16</ele><time>2026-08-21T14:44:34Z</time></trkpt><trkpt lat="59.3545843475" lon="34.6191217192"><ele>161.16</ele><time>2026-08-21T14:44:50Z</time></trkpt><trkpt lat="59.3545338884" lon="34.6191145107"><ele>161.16</ele><time>2026-08-21T14:45:03Z</time></trkpt><trkpt lat="59.3544733711" lon="34.6191360522"><ele>161.16</ele><time>2026-08-21T14:45:15Z</time></trkpt><trkpt lat="59.3543792423" lon="34.6191016864"><ele>161.16</ele><time>2026-08-21T14:45:29Z</time></trkpt><trkpt lat="59.3542890530" lon="34.6190690808"><ele>161.16</ele><time>2026-08-21T14:45:41Z</time></trkpt><trkpt lat="59.3542132806" lon="34.6189365629"><ele>161.16</ele><time>2026-08-21T14:45:54Z</time></trkpt><trkpt lat="59.3540964369" lon="34.6187298652"><ele>161.16</ele><time>2026-08-21T14:46:08Z</time></trkpt><trkpt lat="59.3540422060" lon="34.6186224930"><ele>161.16</ele><time>2026-08-21T14:46:20Z</time></trkpt><trkpt lat="59.3540412001" lon="34.6186193917"><ele>161.16</ele><time>2026-08-21T14:46:21Z</time></trkpt><trkpt lat="59.3539646734" lon="34.6184826829"><ele>161.16</ele><time>2026-08-21T14:46:33Z</time></trkpt><trkpt lat="59.3539278768" lon="34.6183838602"><ele>161.16</ele><time>2026-08-21T14:46:45Z</time></trkpt><trkpt lat="59.3538504280" lon="34.6182393562"><ele>161.16</ele><time>2026-08-21T14:47:02Z</time></trkpt><trkpt lat="59.3537999690" lon="34.6180805191"><ele>161.16</ele><time>2026-08-21T14:47:18Z</time></trkpt><trkpt lat="59.3537611607" lon="34.6179069299"><ele>161.16</ele><time>2026-08-21T14:47:30Z</time></trkpt><trkpt lat="59.3537306506" lon="34.6177346818"><ele>161.16</ele><time>2026-08-21T14:47:42Z</time></trkpt><trkpt lat="59.3537259568" lon="34.6175060235"><ele>162.60</ele><time>2026-08-21T14:47:56Z</time></trkpt><trkpt lat="59.3537048344" lon="34.6173178498"><ele>162.60</ele><time>2026-08-21T14:48:09Z</time></trkpt><trkpt lat="59.3537117913" lon="34.6171936300"><ele>162.60</ele><time>2026-08-21T14:48:27Z</time></trkpt><trkpt lat="59.3537659384" lon="34.6169035323"><ele>163.08</ele><time>2026-08-21T14:48:47Z</time></trkpt><trkpt lat="59.3537659384" lon="34.6168736927"><ele>163.08</ele><time>2026-08-21T14:49:11Z</time></trkpt><trkpt lat="59.3537703808" lon="34.6168400813"><ele>163.08</ele><time>2026-08-21T14:49:37Z</time></trkpt><trkpt lat="59.3538043275" lon="34.6167539153"><ele>163.08</ele><time>2026-08-21T14:49:54Z</time></trkpt><trkpt lat="59.3538228516" lon="34.6165367402"><ele>163.08</ele><time>2026-08-21T14:50:10Z</time></trkpt><trkpt lat="59.3537859712" lon="34.6162867919"><ele>162.12</ele><time>2026-08-21T14:50:23Z</time></trkpt><trkpt lat="59.3537730630" lon="34.6159979515"><ele>162.12</ele><time>2026-08-21T14:50:36Z</time></trkpt><trkpt lat="59.3537445646" lon="34.6158377733"><ele>161.64</ele><time>2026-08-21T14:50:50Z</time></trkpt><trkpt lat="59.3536782637" lon="34.6156718116"><ele>161.64</ele><time>2026-08-21T14:51:05Z</time></trkpt><trkpt lat="59.3536303192" lon="34.6155281458"><ele>161.64</ele><time>2026-08-21T14:51:18Z</time></trkpt><trkpt lat="59.3535839673" lon="34.6153538022"><ele>162.60</ele><time>2026-08-21T14:51:35Z</time></trkpt><trkpt lat="59.3535564747" lon="34.6151716635"><ele>162.60</ele><time>2026-08-21T14:51:50Z</time></trkpt><trkpt lat="59.3535118829" lon="34.6149865072"><ele>163.08</ele><time>2026-08-21T14:52:03Z</time></trkpt><trkpt lat="59.3534965441" lon="34.6148154326"><ele>163.08</ele><time>2026-08-21T14:52:18Z</time></trkpt><trkpt lat="59.3534457497" lon="34.6145364828"><ele>163.08</ele><time>2026-08-21T14:52:32Z</time></trkpt><trkpt lat="59.3534225319" lon="34.6144043002"><ele>163.08</ele><time>2026-08-21T14:52:44Z</time></trkpt><trkpt lat="59.3533610087" lon="34.6141349897"><ele>163.08</ele><time>2026-08-21T14:52:59Z</time></trkpt><trkpt lat="59.3533178419" lon="34.6139452234"><ele>163.08</ele><time>2026-08-21T14:53:11Z</time></trkpt><trkpt lat="59.3532996532" lon="34.6138509270"><ele>163.08</ele><time>2026-08-21T14:53:22Z</time></trkpt><trkpt lat="59.3532895949" lon="34.6136885695"><ele>163.08</ele><time>2026-08-21T14:53:36Z</time></trkpt><trkpt lat="59.3532894272" lon="34.6136388648"><ele>163.08</ele><time>2026-08-21T14:53:57Z</time></trkpt><trkpt lat="59.3532774411" lon="34.6134679578"><ele>163.08</ele><time>2026-08-21T14:54:12Z</time></trkpt><trkpt lat="59.3532310892" lon="34.6131536365"><ele>163.08</ele><time>2026-08-21T14:54:25Z</time></trkpt><trkpt lat="59.3531869166" lon="34.6129044425"><ele>161.64</ele><time>2026-08-21T14:54:39Z</time></trkpt><trkpt lat="59.3531787861" lon="34.6127235610"><ele>161.16</ele><time>2026-08-21T14:54:49Z</time></trkpt><trkpt lat="59.3531861622" lon="34.6126304381"><ele>161.16</ele><time>2026-08-21T14:55:02Z</time></trkpt><trkpt lat="59.3531767745" lon="34.6124371514"><ele>161.16</ele><time>2026-08-21T14:55:16Z</time></trkpt><trkpt lat="59.3531824742" lon="34.6123267617"><ele>161.16</ele><time>2026-08-21T14:55:28Z</time></trkpt><trkpt lat="59.3531789538" lon="34.6120964270"><ele>160.68</ele><time>2026-08-21T14:55:39Z</time></trkpt><trkpt lat="59.3531734217" lon="34.6119856182"><ele>160.68</ele><time>2026-08-21T14:55:46Z</time></trkpt><trkpt lat="59.3531947117" lon="34.6117329877"><ele>160.68</ele><time>2026-08-21T14:56:00Z</time></trkpt><trkpt lat="59.3531905208" lon="34.6116035711"><ele>160.68</ele><time>2026-08-21T14:56:11Z</time></trkpt><trkpt lat="59.3531854078" lon="34.6115550399"><ele>161.64</ele><time>2026-08-21T14:56:31Z</time></trkpt><trkpt lat="59.3531990703" lon="34.6113892458"><ele>161.64</ele><time>2026-08-21T14:56:46Z</time></trkpt><trkpt lat="59.3532090448" lon="34.6111924388"><ele>161.64</ele><time>2026-08-21T14:57:02Z</time></trkpt><trkpt lat="59.3532269821" lon="34.6109372098"><ele>162.60</ele><time>2026-08-21T14:57:15Z</time></trkpt><trkpt lat="59.3532527983" lon="34.6107989922"><ele>163.08</ele><time>2026-08-21T14:57:27Z</time></trkpt><trkpt lat="59.3532712385" lon="34.6104958188"><ele>163.56</ele><time>2026-08-21T14:57:43Z</time></trkpt><trkpt lat="59.3533113878" lon="34.6102328785"><ele>164.04</ele><time>2026-08-21T14:57:57Z</time></trkpt><trkpt lat="59.3533252180" lon="34.6100958344"><ele>164.04</ele><time>2026-08-21T14:58:10Z</time></trkpt><trkpt lat="59.3533512019" lon="34.6099479776"><ele>164.04</ele><time>2026-08-21T14:58:22Z</time></trkpt><trkpt lat="59.3533481844" lon="34.6097365022"><ele>164.52</ele><time>2026-08-21T14:58:36Z</time></trkpt><trkpt lat="59.3533050176" lon="34.6095101070"><ele>164.52</ele><time>2026-08-21T14:58:52Z</time></trkpt><trkpt lat="59.3532643653" lon="34.6093961969"><ele>164.52</ele><time>2026-08-21T14:59:05Z</time></trkpt><trkpt lat="59.3531966396" lon="34.6092378628"><ele>163.56</ele><time>2026-08-21T14:59:18Z</time></trkpt><trkpt lat="59.3531244714" lon="34.6090671234"><ele>163.56</ele><time>2026-08-21T14:59:30Z</time></trkpt><trkpt lat="59.3530369643" lon="34.6089656185"><ele>163.56</ele><time>2026-08-21T14:59:44Z</time></trkpt><trkpt lat="59.3529649638" lon="34.6088308375"><ele>163.08</ele><time>2026-08-21T14:59:57Z</time></trkpt><trkpt lat="59.3529321905" lon="34.6085859183"><ele>163.08</ele><time>2026-08-21T15:00:11Z</time></trkpt><trkpt lat="59.3529098108" lon="34.6082937252"><ele>163.08</ele><time>2026-08-21T15:00:25Z</time></trkpt><trkpt lat="59.3529079668" lon="34.6082607005"><ele>163.08</ele><time>2026-08-21T15:00:28Z</time></trkpt><trkpt lat="59.3529000878" lon="34.6081068926"><ele>163.08</ele><time>2026-08-21T15:00:39Z</time></trkpt><trkpt lat="59.3529026862" lon="34.6079838462"><ele>163.08</ele><time>2026-08-21T15:00:46Z</time></trkpt><trkpt lat="59.3528860062" lon="34.6077155415"><ele>164.52</ele><time>2026-08-21T15:00:59Z</time></trkpt><trkpt lat="59.3528557476" lon="34.6074182354"><ele>165.00</ele><time>2026-08-21T15:01:11Z</time></trkpt><trkpt lat="59.3528494611" lon="34.6074155532"><ele>165.48</ele><time>2026-08-21T15:01:28Z</time></trkpt><trkpt lat="59.3528487906" lon="34.6074489970"><ele>165.48</ele><time>2026-08-21T15:01:54Z</time></trkpt><trkpt lat="59.3528502155" lon="34.6074603125"><ele>165.96</ele><time>2026-08-21T15:02:25Z</time></trkpt><trkpt lat="59.3528459407" lon="34.6074577142"><ele>165.96</ele><time>2026-08-21T15:02:48Z</time></trkpt><trkpt lat="59.3528477848" lon="34.6074579656"><ele>165.96</ele><time>2026-08-21T15:03:08Z</time></trkpt><trkpt lat="59.3528550770" lon="34.6074486617"><ele>165.96</ele><time>2026-08-21T15:03:29Z</time></trkpt><trkpt lat="59.3528470304" lon="34.6073656809"><ele>165.96</ele><time>2026-08-21T15:03:51Z</time></trkpt><trkpt lat="59.3528491259" lon="34.6072970331"><ele>165.96</ele><time>2026-08-21T15:04:03Z</time></trkpt><trkpt lat="59.3528313562" lon="34.6071574744"><ele>165.96</ele><time>2026-08-21T15:04:16Z</time></trkpt><trkpt lat="59.3528231420" lon="34.6070014033"><ele>164.52</ele><time>2026-08-21T15:04:30Z</time></trkpt><trkpt lat="59.3527697492" lon="34.6066910215"><ele>164.52</ele><time>2026-08-21T15:04:48Z</time></trkpt><trkpt lat="59.3527663965" lon="34.6064870898"><ele>164.52</ele><time>2026-08-21T15:05:01Z</time></trkpt><trkpt lat="59.3527302705" lon="34.6062983293"><ele>165.48</ele><time>2026-08-21T15:05:13Z</time></trkpt><trkpt lat="59.3526808172" lon="34.6060406696"><ele>165.48</ele><time>2026-08-21T15:05:25Z</time></trkpt><trkpt lat="59.3526827451" lon="34.6059085708"><ele>165.48</ele><time>2026-08-21T15:05:38Z</time></trkpt><trkpt lat="59.3526800629" lon="34.6057637315"><ele>165.48</ele><time>2026-08-21T15:05:48Z</time></trkpt><trkpt lat="59.3526831642" lon="34.6056804154"><ele>165.48</ele><time>2026-08-21T15:06:00Z</time></trkpt><trkpt lat="59.3526774645" lon="34.6056332253"><ele>165.48</ele><time>2026-08-21T15:06:15Z</time></trkpt><trkpt lat="59.3526708428" lon="34.6055965126"><ele>164.04</ele><time>2026-08-21T15:06:21Z</time></trkpt><trkpt lat="59.3525309488" lon="34.6053914074"><ele>163.08</ele><time>2026-08-21T15:06:36Z</time></trkpt><trkpt lat="59.3524022028" lon="34.6050456539"><ele>162.12</ele><time>2026-08-21T15:06:52Z</time></trkpt><trkpt lat="59.3523335550" lon="34.6048879065"><ele>161.16</ele><time>2026-08-21T15:07:08Z</time></trkpt><trkpt lat="59.3522581179" lon="34.6046185121"><ele>160.68</ele><time>2026-08-21T15:07:23Z</time></trkpt><trkpt lat="59.3521969300" lon="34.6044401452"><ele>160.68</ele><time>2026-08-21T15:07:36Z</time></trkpt><trkpt lat="59.3521490693" lon="34.6043533087"><ele>161.16</ele><time>2026-08-21T15:07:54Z</time></trkpt><trkpt lat="59.3521265220" lon="34.6042827331"><ele>161.16</ele><time>2026-08-21T15:08:09Z</time></trkpt><trkpt lat="59.3521079980" lon="34.6042433381"><ele>161.16</ele><time>2026-08-21T15:08:23Z</time></trkpt><trkpt lat="59.3520049006" lon="34.6040111594"><ele>161.16</ele><time>2026-08-21T15:08:40Z</time></trkpt><trkpt lat="59.3519408628" lon="34.6037503984"><ele>161.16</ele><time>2026-08-21T15:08:53Z</time></trkpt><trkpt lat="59.3518671859" lon="34.6035246737"><ele>161.16</ele><time>2026-08-21T15:09:07Z</time></trkpt><trkpt lat="59.3518135417" lon="34.6033142041"><ele>161.16</ele><time>2026-08-21T15:09:20Z</time></trkpt><trkpt lat="59.3517813552" lon="34.6031405311"><ele>161.16</ele><time>2026-08-21T15:09:36Z</time></trkpt><trkpt lat="59.3517674413" lon="34.6031035669"><ele>161.16</ele><time>2026-08-21T15:09:40Z</time></trkpt><trkpt lat="59.3516924232" lon="34.6029154770"><ele>161.16</ele><time>2026-08-21T15:09:52Z</time></trkpt><trkpt lat="59.3516402040" lon="34.6027565561"><ele>161.16</ele><time>2026-08-21T15:10:02Z</time></trkpt><trkpt lat="59.3515669461" lon="34.6024807077"><ele>161.16</ele><time>2026-08-21T15:10:15Z</time></trkpt><trkpt lat="59.3514803611" lon="34.6022445057"><ele>161.64</ele><time>2026-08-21T15:10:30Z</time></trkpt><trkpt lat="59.3514650222" lon="34.6022253949"><ele>161.64</ele><time>2026-08-21T15:10:56Z</time></trkpt><trkpt lat="59.3514644355" lon="34.6021706611"><ele>161.16</ele><time>2026-08-21T15:11:27Z</time></trkpt><trkpt lat="59.3514638487" lon="34.6022147499"><ele>161.16</ele><time>2026-08-21T15:11:58Z</time></trkpt><trkpt lat="59.3514605798" lon="34.6022097208"><ele>161.64</ele><time>2026-08-21T15:12:26Z</time></trkpt><trkpt lat="59.3513897527" lon="34.6021377202"><ele>161.64</ele><time>2026-08-21T15:12:41Z</time></trkpt><trkpt lat="59.3513666186" lon="34.6021148376"><ele>161.64</ele><time>2026-08-21T15:12:43Z</time></trkpt><trkpt lat="59.3511926103" lon="34.6019451041"><ele>161.64</ele><time>2026-08-21T15:12:59Z</time></trkpt><trkpt lat="59.3510512076" lon="34.6018008515"><ele>161.64</ele><time>2026-08-21T15:13:12Z</time></trkpt><trkpt lat="59.3509599287" lon="34.6016928088"><ele>161.64</ele><time>2026-08-21T15:13:26Z</time></trkpt><trkpt lat="59.3508520536" lon="34.6016060561"><ele>161.64</ele><time>2026-08-21T15:13:40Z</time></trkpt><trkpt lat="59.3507830705" lon="34.6015559323"><ele>161.64</ele><time>2026-08-21T15:13:56Z</time></trkpt><trkpt lat="59.3506346270" lon="34.6012340672"><ele>162.12</ele><time>2026-08-21T15:14:17Z</time></trkpt><trkpt lat="59.3505592737" lon="34.6011250187"><ele>162.12</ele><time>2026-08-21T15:14:34Z</time></trkpt><trkpt lat="59.3504650611" lon="34.6009503398"><ele>162.12</ele><time>2026-08-21T15:14:54Z</time></trkpt><trkpt lat="59.3503831699" lon="34.6008367650"><ele>162.12</ele><time>2026-08-21T15:15:09Z</time></trkpt><trkpt lat="59.3503588624" lon="34.6007369366"><ele>161.16</ele><time>2026-08-21T15:15:25Z</time></trkpt><trkpt lat="59.3503499776" lon="34.6006529499"><ele>160.68</ele><time>2026-08-21T15:15:49Z</time></trkpt><trkpt lat="59.3503399193" lon="34.6006169915"><ele>160.68</ele><time>2026-08-21T15:16:17Z</time></trkpt><trkpt lat="59.3503565993" lon="34.6006583981"><ele>161.16</ele><time>2026-08-21T15:16:37Z</time></trkpt><trkpt lat="59.3503577728" lon="34.6006907523"><ele>162.12</ele><time>2026-08-21T15:17:02Z</time></trkpt><trkpt lat="59.3503634725" lon="34.6007086895"><ele>162.12</ele><time>2026-08-21T15:17:25Z</time></trkpt><trkpt lat="59.3502443656" lon="34.6005962044"><ele>162.60</ele><time>2026-08-21T15:17:41Z</time></trkpt><trkpt lat="59.3501043878" lon="34.6004363615"><ele>162.60</ele><time>2026-08-21T15:17:54Z</time></trkpt><trkpt lat="59.3500512466" lon="34.6003645286"><ele>162.60</ele><time>2026-08-21T15:18:09Z</time></trkpt><trkpt lat="59.3500483967" lon="34.6003761794"><ele>162.60</ele><time>2026-08-21T15:18:30Z</time></trkpt><trkpt lat="59.3500501569" lon="34.6003812086"><ele>163.08</ele><time>2026-08-21T15:18:56Z</time></trkpt><trkpt lat="59.3500545993" lon="34.6003723238"><ele>163.08</ele><time>2026-08-21T15:19:19Z</time></trkpt><trkpt lat="59.3500574492" lon="34.6003791131"><ele>163.08</ele><time>2026-08-21T15:19:40Z</time></trkpt><trkpt lat="59.3500615563" lon="34.6003720723"><ele>163.08</ele><time>2026-08-21T15:20:00Z</time></trkpt><trkpt lat="59.3500633165" lon="34.6003771853"><ele>162.12</ele><time>2026-08-21T15:20:27Z</time></trkpt><trkpt lat="59.3500612210" lon="34.6003720723"><ele>162.12</ele><time>2026-08-21T15:20:52Z</time></trkpt><trkpt lat="59.3500617240" lon="34.6003860701"><ele>162.60</ele><time>2026-08-21T15:21:19Z</time></trkpt><trkpt lat="59.3500285316" lon="34.6003826335"><ele>162.60</ele><time>2026-08-21T15:21:39Z</time></trkpt><trkpt lat="59.3498929124" lon="34.6003547218"><ele>162.60</ele><time>2026-08-21T15:21:52Z</time></trkpt><trkpt lat="59.3498034775" lon="34.6002445836"><ele>162.60</ele><time>2026-08-21T15:22:02Z</time></trkpt><trkpt lat="59.3497619871" lon="34.6000435017"><ele>162.60</ele><time>2026-08-21T15:22:13Z</time></trkpt><trkpt lat="59.3497525156" lon="34.5998888556"><ele>162.60</ele><time>2026-08-21T15:22:25Z</time></trkpt><trkpt lat="59.3497526832" lon="34.5997977443"><ele>162.60</ele><time>2026-08-21T15:22:35Z</time></trkpt><trkpt lat="59.3497309741" lon="34.5996142644"><ele>162.60</ele><time>2026-08-21T15:22:47Z</time></trkpt><trkpt lat="59.3497319799" lon="34.5995758753"><ele>164.04</ele><time>2026-08-21T15:22:49Z</time></trkpt><trkpt lat="59.3497204129" lon="34.5994570199"><ele>164.04</ele><time>2026-08-21T15:22:59Z</time></trkpt><trkpt lat="59.3496622425" lon="34.5993317105"><ele>164.04</ele><time>2026-08-21T15:23:10Z</time></trkpt><trkpt lat="59.3496434670" lon="34.5992639847"><ele>164.04</ele><time>2026-08-21T15:23:25Z</time></trkpt><trkpt lat="59.3495664373" lon="34.5991581213"><ele>164.04</ele><time>2026-08-21T15:23:40Z</time></trkpt><trkpt lat="59.3494539522" lon="34.5989101008"><ele>164.04</ele><time>2026-08-21T15:23:54Z</time></trkpt><trkpt lat="59.3494503479" lon="34.5988720469"><ele>164.04</ele><time>2026-08-21T15:24:16Z</time></trkpt><trkpt lat="59.3494572211" lon="34.5988329872"><ele>164.04</ele><time>2026-08-21T15:24:51Z</time></trkpt><trkpt lat="59.3494703807" lon="34.5988272037"><ele>164.04</ele><time>2026-08-21T15:25:26Z</time></trkpt><trkpt lat="59.3494301476" lon="34.5987996273"><ele>164.04</ele><time>2026-08-21T15:25:45Z</time></trkpt><trkpt lat="59.3492774293" lon="34.5986200869"><ele>164.04</ele><time>2026-08-21T15:26:00Z</time></trkpt><trkpt lat="59.3491661176" lon="34.5985102002"><ele>164.04</ele><time>2026-08-21T15:26:15Z</time></trkpt><trkpt lat="59.3491276447" lon="34.5984980464"><ele>164.04</ele><time>2026-08-21T15:26:19Z</time></trkpt><trkpt lat="59.3489956297" lon="34.5984289795"><ele>164.04</ele><time>2026-08-21T15:26:34Z</time></trkpt><trkpt lat="59.3488809653" lon="34.5983080287"><ele>164.04</ele><time>2026-08-21T15:26:48Z</time></trkpt><trkpt lat="59.3488067854" lon="34.5982317533"><ele>164.04</ele><time>2026-08-21T15:27:00Z</time></trkpt><trkpt lat="59.3487549014" lon="34.5981900115"><ele>164.04</ele><time>2026-08-21T15:27:08Z</time></trkpt><trkpt lat="59.3487248942" lon="34.5981701463"><ele>164.04</ele><time>2026-08-21T15:27:11Z</time></trkpt><trkpt lat="59.3486060388" lon="34.5981252193"><ele>163.56</ele><time>2026-08-21T15:27:21Z</time></trkpt><trkpt lat="59.3485212978" lon="34.5980727486"><ele>163.56</ele><time>2026-08-21T15:27:31Z</time></trkpt><trkpt lat="59.3483762071" lon="34.5980256423"><ele>164.52</ele><time>2026-08-21T15:27:46Z</time></trkpt><trkpt lat="59.3483717646" lon="34.5980184339"><ele>164.52</ele><time>2026-08-21T15:28:09Z</time></trkpt><trkpt lat="59.3483680766" lon="34.5980170090"><ele>164.52</ele><time>2026-08-21T15:28:34Z</time></trkpt><trkpt lat="59.3483687472" lon="34.5980247203"><ele>164.52</ele><time>2026-08-21T15:29:02Z</time></trkpt><trkpt lat="59.3483512290" lon="34.5980300847"><ele>164.52</ele><time>2026-08-21T15:29:22Z</time></trkpt><trkpt lat="59.3483362254" lon="34.5980381314"><ele>164.52</ele><time>2026-08-21T15:29:45Z</time></trkpt><trkpt lat="59.3483444396" lon="34.5980440825"><ele>164.52</ele><time>2026-08-21T15:30:07Z</time></trkpt><trkpt lat="59.3483430147" lon="34.5980548114"><ele>164.52</ele><time>2026-08-21T15:30:40Z</time></trkpt><trkpt lat="59.3483089842" lon="34.5980354492"><ele>164.52</ele><time>2026-08-21T15:30:57Z</time></trkpt><trkpt lat="59.3481967505" lon="34.5979988202"><ele>164.52</ele><time>2026-08-21T15:31:10Z</time></trkpt><trkpt lat="59.3480577786" lon="34.5979772788"><ele>163.56</ele><time>2026-08-21T15:31:23Z</time></trkpt><trkpt lat="59.3479238357" lon="34.5979167614"><ele>163.08</ele><time>2026-08-21T15:31:37Z</time></trkpt><trkpt lat="59.3478055671" lon="34.5978523884"><ele>162.60</ele><time>2026-08-21T15:31:49Z</time></trkpt><trkpt lat="59.3477075826" lon="34.5977927931"><ele>162.12</ele><time>2026-08-21T15:32:01Z</time></trkpt><trkpt lat="59.3476352468" lon="34.5976909529"><ele>162.12</ele><time>2026-08-21T15:32:16Z</time></trkpt><trkpt lat="59.3475530203" lon="34.5974967442"><ele>162.12</ele><time>2026-08-21T15:32:30Z</time></trkpt><trkpt lat="59.3475435488" lon="34.5974327065"><ele>162.12</ele><time>2026-08-21T15:32:36Z</time></trkpt><trkpt lat="59.3475421239" lon="34.5973305311"><ele>162.12</ele><time>2026-08-21T15:32:46Z</time></trkpt><trkpt lat="59.3474998791" lon="34.5972013660"><ele>163.08</ele><time>2026-08-21T15:33:02Z</time></trkpt><trkpt lat="59.3474075105" lon="34.5971110091"><ele>163.56</ele><time>2026-08-21T15:33:16Z</time></trkpt><trkpt lat="59.3474049121" lon="34.5971084107"><ele>163.56</ele><time>2026-08-21T15:33:17Z</time></trkpt><trkpt lat="59.3472760823" lon="34.5970079117"><ele>165.00</ele><time>2026-08-21T15:33:30Z</time></trkpt><trkpt lat="59.3472231086" lon="34.5969033893"><ele>165.48</ele><time>2026-08-21T15:33:37Z</time></trkpt><trkpt lat="59.3471418042" lon="34.5967019722"><ele>165.48</ele><time>2026-08-21T15:33:50Z</time></trkpt><trkpt lat="59.3470862322" lon="34.5965397824"><ele>165.48</ele><time>2026-08-21T15:34:02Z</time></trkpt><trkpt lat="59.3470283970" lon="34.5963624213"><ele>165.48</ele><time>2026-08-21T15:34:16Z</time></trkpt><trkpt lat="59.3469452485" lon="34.5961428154"><ele>165.48</ele><time>2026-08-21T15:34:30Z</time></trkpt><trkpt lat="59.3469340168" lon="34.5961222798"><ele>165.48</ele><time>2026-08-21T15:34:31Z</time></trkpt><trkpt lat="59.3468798697" lon="34.5959299989"><ele>164.04</ele><time>2026-08-21T15:34:43Z</time></trkpt><trkpt lat="59.3468170054" lon="34.5957621932"><ele>163.56</ele><time>2026-08-21T15:34:53Z</time></trkpt><trkpt lat="59.3467468489" lon="34.5955843292"><ele>163.56</ele><time>2026-08-21T15:35:05Z</time></trkpt><trkpt lat="59.3466823921" lon="34.5953985024"><ele>163.08</ele><time>2026-08-21T15:35:17Z</time></trkpt><trkpt lat="59.3466161750" lon="34.5952943154"><ele>163.08</ele><time>2026-08-21T15:35:29Z</time></trkpt><trkpt lat="59.3466106430" lon="34.5952778868"><ele>163.08</ele><time>2026-08-21T15:35:30Z</time></trkpt><trkpt lat="59.3465282489" lon="34.5951397531"><ele>163.08</ele><time>2026-08-21T15:35:43Z</time></trkpt><trkpt lat="59.3464304321" lon="34.5949708577"><ele>163.08</ele><time>2026-08-21T15:35:57Z</time></trkpt><trkpt lat="59.3463125825" lon="34.5948856976"><ele>163.08</ele><time>2026-08-21T15:36:11Z</time></trkpt><trkpt lat="59.3462270033" lon="34.5947543532"><ele>163.08</ele><time>2026-08-21T15:36:22Z</time></trkpt><trkpt lat="59.3461626302" lon="34.5946427900"><ele>163.08</ele><time>2026-08-21T15:36:34Z</time></trkpt><trkpt lat="59.3460769672" lon="34.5944883116"><ele>163.08</ele><time>2026-08-21T15:36:45Z</time></trkpt><trkpt lat="59.3460666575" lon="34.5944749843"><ele>163.08</ele><time>2026-08-21T15:36:46Z</time></trkpt><trkpt lat="59.3459398393" lon="34.5943348389"><ele>163.08</ele><time>2026-08-21T15:36:59Z</time></trkpt><trkpt lat="59.3458222412" lon="34.5942515228"><ele>163.08</ele><time>2026-08-21T15:37:12Z</time></trkpt><trkpt lat="59.3457272742" lon="34.5941507723"><ele>163.08</ele><time>2026-08-21T15:37:23Z</time></trkpt><trkpt lat="59.3456232548" lon="34.5940944459"><ele>162.60</ele><time>2026-08-21T15:37:34Z</time></trkpt><trkpt lat="59.3455484044" lon="34.5940595772"><ele>162.60</ele><time>2026-08-21T15:37:41Z</time></trkpt><trkpt lat="59.3454057444" lon="34.5939402189"><ele>162.60</ele><time>2026-08-21T15:37:56Z</time></trkpt><trkpt lat="59.3453011382" lon="34.5938210282"><ele>162.60</ele><time>2026-08-21T15:38:09Z</time></trkpt><trkpt lat="59.3452759087" lon="34.5937895961"><ele>162.60</ele><time>2026-08-21T15:38:12Z</time></trkpt><trkpt lat="59.3452509306" lon="34.5937398914"><ele>163.56</ele><time>2026-08-21T15:38:15Z</time></trkpt><trkpt lat="59.3450873997" lon="34.5935646258"><ele>163.56</ele><time>2026-08-21T15:38:31Z</time></trkpt><trkpt lat="59.3450186681" lon="34.5934687369"><ele>163.56</ele><time>2026-08-21T15:38:42Z</time></trkpt><trkpt lat="59.3449140619" lon="34.5933575090"><ele>163.56</ele><time>2026-08-21T15:38:56Z</time></trkpt><trkpt lat="59.3448372837" lon="34.5933113247"><ele>163.56</ele><time>2026-08-21T15:39:12Z</time></trkpt><trkpt lat="59.3448178377" lon="34.5933000930"><ele>164.04</ele><time>2026-08-21T15:39:37Z</time></trkpt><trkpt lat="59.3448068574" lon="34.5932933036"><ele>164.04</ele><time>2026-08-21T15:40:06Z</time></trkpt><trkpt lat="59.3448104616" lon="34.5933014341"><ele>164.04</ele><time>2026-08-21T15:40:28Z</time></trkpt><trkpt lat="59.3448029179" lon="34.5933194552"><ele>164.04</ele><time>2026-08-21T15:40:55Z</time></trkpt><trkpt lat="59.3447935302" lon="34.5933187846"><ele>164.04</ele><time>2026-08-21T15:40:56Z</time></trkpt><trkpt lat="59.3447558116" lon="34.5932695828"><ele>164.04</ele><time>2026-08-21T15:41:01Z</time></trkpt><trkpt lat="59.3446549773" lon="34.5931483805"><ele>163.08</ele><time>2026-08-21T15:41:13Z</time></trkpt><trkpt lat="59.3445243035" lon="34.5929519925"><ele>162.12</ele><time>2026-08-21T15:41:26Z</time></trkpt><trkpt lat="59.3444018438" lon="34.5928144455"><ele>161.16</ele><time>2026-08-21T15:41:40Z</time></trkpt><trkpt lat="59.3442667276" lon="34.5927257650"><ele>160.68</ele><time>2026-08-21T15:41:56Z</time></trkpt><trkpt lat="59.3441623729" lon="34.5926171355"><ele>160.68</ele><time>2026-08-21T15:42:08Z</time></trkpt><trkpt lat="59.3440928031" lon="34.5925598033"><ele>160.68</ele><time>2026-08-21T15:42:18Z</time></trkpt><trkpt lat="59.3439544179" lon="34.5924101025"><ele>160.68</ele><time>2026-08-21T15:42:32Z</time></trkpt><trkpt lat="59.3438329641" lon="34.5924199931"><ele>160.68</ele><time>2026-08-21T15:42:46Z</time></trkpt><trkpt lat="59.3437789846" lon="34.5924453903"><ele>160.68</ele><time>2026-08-21T15:43:01Z</time></trkpt><trkpt lat="59.3437455408" lon="34.5924440492"><ele>160.20</ele><time>2026-08-21T15:43:16Z</time></trkpt><trkpt lat="59.3437225744" lon="34.5924690273"><ele>160.20</ele><time>2026-08-21T15:43:31Z</time></trkpt><trkpt lat="59.3437156174" lon="34.5924898144"><ele>160.20</ele><time>2026-08-21T15:43:33Z</time></trkpt><trkpt lat="59.3435992766" lon="34.5927188918"><ele>160.20</ele><time>2026-08-21T15:43:47Z</time></trkpt><trkpt lat="59.3434838578" lon="34.5928890444"><ele>160.20</ele><time>2026-08-21T15:44:00Z</time></trkpt><trkpt lat="59.3434745539" lon="34.5929001924"><ele>160.20</ele><time>2026-08-21T15:44:13Z</time></trkpt><trkpt lat="59.3434791639" lon="34.5928951632"><ele>160.20</ele><time>2026-08-21T15:44:30Z</time></trkpt><trkpt lat="59.3434842769" lon="34.5928819198"><ele>160.20</ele><time>2026-08-21T15:44:57Z</time></trkpt><trkpt lat="59.3434810080" lon="34.5928929001"><ele>160.20</ele><time>2026-08-21T15:45:22Z</time></trkpt><trkpt lat="59.3434770685" lon="34.5928853564"><ele>160.20</ele><time>2026-08-21T15:45:44Z</time></trkpt><trkpt lat="59.3434757274" lon="34.5928770583"><ele>160.68</ele><time>2026-08-21T15:46:03Z</time></trkpt><trkpt lat="59.3435327243" lon="34.5927465521"><ele>160.68</ele><time>2026-08-21T15:46:17Z</time></trkpt><trkpt lat="59.3435390946" lon="34.5927224960"><ele>159.72</ele><time>2026-08-21T15:46:34Z</time></trkpt><trkpt lat="59.3435540982" lon="34.5927001163"><ele>159.72</ele><time>2026-08-21T15:46:54Z</time></trkpt><trkpt lat="59.3435638212" lon="34.5927151199"><ele>159.72</ele><time>2026-08-21T15:47:12Z</time></trkpt><trkpt lat="59.3435123563" lon="34.5928807463"><ele>159.72</ele><time>2026-08-21T15:47:26Z</time></trkpt><trkpt lat="59.3434894737" lon="34.5928841829"><ele>159.72</ele><time>2026-08-21T15:47:37Z</time></trkpt><trkpt lat="59.3434903119" lon="34.5928893797"><ele>159.72</ele><time>2026-08-21T15:47:39Z</time></trkpt><trkpt lat="59.3435080815" lon="34.5929416828"><ele>159.72</ele><time>2026-08-21T15:47:42Z</time></trkpt><trkpt lat="59.3434597179" lon="34.5932614524"><ele>159.72</ele><time>2026-08-21T15:47:56Z</time></trkpt><trkpt lat="59.3434393499" lon="34.5933964010"><ele>159.72</ele><time>2026-08-21T15:48:09Z</time></trkpt><trkpt lat="59.3434413616" lon="34.5933956467"><ele>159.72</ele><time>2026-08-21T15:48:24Z</time></trkpt><trkpt lat="59.3434401043" lon="34.5933926292"><ele>159.72</ele><time>2026-08-21T15:48:43Z</time></trkpt><trkpt lat="59.3434435409" lon="34.5933965687"><ele>159.72</ele><time>2026-08-21T15:49:20Z</time></trkpt><trkpt lat="59.3434452172" lon="34.5933962334"><ele>159.72</ele><time>2026-08-21T15:49:39Z</time></trkpt><trkpt lat="59.3434496596" lon="34.5933991671"><ele>159.72</ele><time>2026-08-21T15:50:02Z</time></trkpt><trkpt lat="59.3434525095" lon="34.5933961496"><ele>159.72</ele><time>2026-08-21T15:50:19Z</time></trkpt><trkpt lat="59.3434545211" lon="34.5934001729"><ele>159.72</ele><time>2026-08-21T15:50:43Z</time></trkpt><trkpt lat="59.3434486538" lon="34.5934015140"><ele>160.20</ele><time>2026-08-21T15:51:14Z</time></trkpt><trkpt lat="59.3434489891" lon="34.5933966525"><ele>160.20</ele><time>2026-08-21T15:51:39Z</time></trkpt><trkpt lat="59.3434520066" lon="34.5933974907"><ele>160.20</ele><time>2026-08-21T15:52:08Z</time></trkpt><trkpt lat="59.3434537668" lon="34.5934101474"><ele>160.20</ele><time>2026-08-21T15:52:29Z</time></trkpt><trkpt lat="59.3434494920" lon="34.5933997538"><ele>160.20</ele><time>2026-08-21T15:52:44Z</time></trkpt><trkpt lat="59.3434440438" lon="34.5934076328"><ele>160.20</ele><time>2026-08-21T15:53:07Z</time></trkpt><trkpt lat="59.3434466422" lon="34.5934056211"><ele>160.68</ele><time>2026-08-21T15:53:21Z</time></trkpt><trkpt lat="59.3434484862" lon="34.5934088901"><ele>160.68</ele><time>2026-08-21T15:53:46Z</time></trkpt><trkpt lat="59.3434504140" lon="34.5934195351"><ele>160.68</ele><time>2026-08-21T15:54:07Z</time></trkpt><trkpt lat="59.3434533477" lon="34.5934102312"><ele>160.68</ele><time>2026-08-21T15:54:33Z</time></trkpt><trkpt lat="59.3434454687" lon="34.5934169367"><ele>160.68</ele><time>2026-08-21T15:54:51Z</time></trkpt><trkpt lat="59.3434493244" lon="34.5934100635"><ele>161.16</ele><time>2026-08-21T15:55:06Z</time></trkpt><trkpt lat="59.3434509169" lon="34.5933898631"><ele>160.68</ele><time>2026-08-21T15:55:34Z</time></trkpt><trkpt lat="59.3434589636" lon="34.5933787152"><ele>160.68</ele><time>2026-08-21T15:56:00Z</time></trkpt><trkpt lat="59.3434702791" lon="34.5933724288"><ele>160.68</ele><time>2026-08-21T15:56:30Z</time></trkpt><trkpt lat="59.3434720393" lon="34.5933677349"><ele>161.16</ele><time>2026-08-21T15:57:01Z</time></trkpt><trkpt lat="59.3434736319" lon="34.5933638792"><ele>161.16</ele><time>2026-08-21T15:57:27Z</time></trkpt><trkpt lat="59.3434863724" lon="34.5933142584"><ele>161.16</ele><time>2026-08-21T15:57:54Z</time></trkpt><trkpt lat="59.3434624001" lon="34.5930942334"><ele>161.16</ele><time>2026-08-21T15:58:07Z</time></trkpt><trkpt lat="59.3434494920" lon="34.5930710156"><ele>161.64</ele><time>2026-08-21T15:58:26Z</time></trkpt><trkpt lat="59.3434453011" lon="34.5932538249"><ele>161.64</ele><time>2026-08-21T15:58:38Z</time></trkpt><trkpt lat="59.3434468098" lon="34.5932725165"><ele>161.64</ele><time>2026-08-21T15:58:39Z</time></trkpt><trkpt lat="59.3434548564" lon="34.5933569223"><ele>161.64</ele><time>2026-08-21T15:58:52Z</time></trkpt><trkpt lat="59.3434536830" lon="34.5933746919"><ele>161.64</ele><time>2026-08-21T15:59:13Z</time></trkpt><trkpt lat="59.3434555270" lon="34.5933790505"><ele>161.64</ele><time>2026-08-21T15:59:28Z</time></trkpt><trkpt lat="59.3434595503" lon="34.5933767036"><ele>161.64</ele><time>2026-08-21T15:59:44Z</time></trkpt><trkpt lat="59.3434360810" lon="34.5934924576"><ele>161.64</ele><time>2026-08-21T15:59:56Z</time></trkpt><trkpt lat="59.3434288725" lon="34.5936473552"><ele>162.60</ele><time>2026-08-21T16:00:11Z</time></trkpt><trkpt lat="59.3433704507" lon="34.5938507002"><ele>163.08</ele><time>2026-08-21T16:00:30Z</time></trkpt><trkpt lat="59.3433669303" lon="34.5942534506"><ele>163.56</ele><time>2026-08-21T16:00:50Z</time></trkpt><trkpt lat="59.3433316424" lon="34.5944418758"><ele>164.04</ele><time>2026-08-21T16:01:04Z</time></trkpt><trkpt lat="59.3432422914" lon="34.5946715400"><ele>164.04</ele><time>2026-08-21T16:01:23Z</time></trkpt><trkpt lat="59.3432339933" lon="34.5946802571"><ele>164.04</ele><time>2026-08-21T16:01:49Z</time></trkpt><trkpt lat="59.3432464823" lon="34.5947722904"><ele>164.04</ele><time>2026-08-21T16:02:06Z</time></trkpt><trkpt lat="59.3431836180" lon="34.5950887073"><ele>164.04</ele><time>2026-08-21T16:02:24Z</time></trkpt><trkpt lat="59.3431851268" lon="34.5951233245"><ele>164.04</ele><time>2026-08-21T16:02:28Z</time></trkpt><trkpt lat="59.3431229331" lon="34.5953995921"><ele>164.04</ele><time>2026-08-21T16:02:37Z</time></trkpt><trkpt lat="59.3431205861" lon="34.5957351197"><ele>164.04</ele><time>2026-08-21T16:02:52Z</time></trkpt><trkpt lat="59.3431110308" lon="34.5959602576"><ele>164.04</ele><time>2026-08-21T16:03:06Z</time></trkpt><trkpt lat="59.3430719711" lon="34.5962286461"><ele>163.08</ele><time>2026-08-21T16:03:20Z</time></trkpt><trkpt lat="59.3429710530" lon="34.5966323186"><ele>162.60</ele><time>2026-08-21T16:03:35Z</time></trkpt><trkpt lat="59.3428992201" lon="34.5968540199"><ele>161.64</ele><time>2026-08-21T16:03:50Z</time></trkpt><trkpt lat="59.3427817058" lon="34.5971454587"><ele>161.64</ele><time>2026-08-21T16:04:02Z</time></trkpt><trkpt lat="59.3426942825" lon="34.5972867776"><ele>161.64</ele><time>2026-08-21T16:04:12Z</time></trkpt><trkpt lat="59.3425878324" lon="34.5974177029"><ele>161.64</ele><time>2026-08-21T16:04:24Z</time></trkpt><trkpt lat="59.3425015826" lon="34.5975920465"><ele>161.64</ele><time>2026-08-21T16:04:37Z</time></trkpt><trkpt lat="59.3424632773" lon="34.5976254065"><ele>161.64</ele><time>2026-08-21T16:04:44Z</time></trkpt><trkpt lat="59.3423058651" lon="34.5978835691"><ele>161.64</ele><time>2026-08-21T16:04:58Z</time></trkpt><trkpt lat="59.3422856648" lon="34.5978975669"><ele>161.16</ele><time>2026-08-21T16:05:10Z</time></trkpt><trkpt lat="59.3422143348" lon="34.5980451722"><ele>161.16</ele><time>2026-08-21T16:05:23Z</time></trkpt><trkpt lat="59.3420737702" lon="34.5983059332"><ele>161.16</ele><time>2026-08-21T16:05:40Z</time></trkpt><trkpt lat="59.3419109937" lon="34.5985419676"><ele>161.16</ele><time>2026-08-21T16:05:55Z</time></trkpt><trkpt lat="59.3417623825" lon="34.5987215918"><ele>161.16</ele><time>2026-08-21T16:06:09Z</time></trkpt><trkpt lat="59.3417427689" lon="34.5987544488"><ele>161.16</ele><time>2026-08-21T16:06:12Z</time></trkpt><trkpt lat="59.3416773900" lon="34.5988522656"><ele>161.16</ele><time>2026-08-21T16:06:25Z</time></trkpt><trkpt lat="59.3415463809" lon="34.5989258587"><ele>161.16</ele><time>2026-08-21T16:06:37Z</time></trkpt><trkpt lat="59.3413677625" lon="34.5989104360"><ele>161.16</ele><time>2026-08-21T16:06:48Z</time></trkpt><trkpt lat="59.3413121067" lon="34.5988889784"><ele>161.16</ele><time>2026-08-21T16:06:53Z</time></trkpt><trkpt lat="59.3411499169" lon="34.5988702867"><ele>161.16</ele><time>2026-08-21T16:07:04Z</time></trkpt><trkpt lat="59.3410177343" lon="34.5989098493"><ele>160.68</ele><time>2026-08-21T16:07:15Z</time></trkpt><trkpt lat="59.3409332447" lon="34.5990284532"><ele>160.68</ele><time>2026-08-21T16:07:29Z</time></trkpt><trkpt lat="59.3407811970" lon="34.5992036350"><ele>160.68</ele><time>2026-08-21T16:07:45Z</time></trkpt><trkpt lat="59.3406571448" lon="34.5993436966"><ele>160.68</ele><time>2026-08-21T16:07:59Z</time></trkpt><trkpt lat="59.3405931070" lon="34.5994012803"><ele>160.68</ele><time>2026-08-21T16:08:09Z</time></trkpt><trkpt lat="59.3404116388" lon="34.5994231571"><ele>160.68</ele><time>2026-08-21T16:08:22Z</time></trkpt><trkpt lat="59.3403512053" lon="34.5994713530"><ele>160.68</ele><time>2026-08-21T16:08:27Z</time></trkpt><trkpt lat="59.3402383011" lon="34.5995786414"><ele>160.68</ele><time>2026-08-21T16:08:41Z</time></trkpt><trkpt lat="59.3402090482" lon="34.5996077266"><ele>160.68</ele><time>2026-08-21T16:08:47Z</time></trkpt><trkpt lat="59.3400454335" lon="34.5997099020"><ele>160.68</ele><time>2026-08-21T16:08:58Z</time></trkpt><trkpt lat="59.3398960680" lon="34.5998357981"><ele>160.68</ele><time>2026-08-21T16:09:11Z</time></trkpt><trkpt lat="59.3398451060" lon="34.5998940524"><ele>160.68</ele><time>2026-08-21T16:09:17Z</time></trkpt><trkpt lat="59.3397824094" lon="34.5999932941"><ele>160.68</ele><time>2026-08-21T16:09:24Z</time></trkpt><trkpt lat="59.3396933097" lon="34.6001301706"><ele>160.20</ele><time>2026-08-21T16:09:36Z</time></trkpt><trkpt lat="59.3396229856" lon="34.6002667118"><ele>160.20</ele><time>2026-08-21T16:09:46Z</time></trkpt><trkpt lat="59.3395704310" lon="34.6003653668"><ele>161.64</ele><time>2026-08-21T16:09:53Z</time></trkpt><trkpt lat="59.3395470455" lon="34.6004004870"><ele>161.16</ele><time>2026-08-21T16:09:55Z</time></trkpt><trkpt lat="59.3394616339" lon="34.6005060151"><ele>161.64</ele><time>2026-08-21T16:10:03Z</time></trkpt><trkpt lat="59.3393877055" lon="34.6005724836"><ele>161.64</ele><time>2026-08-21T16:10:10Z</time></trkpt><trkpt lat="59.3392454647" lon="34.6006656066"><ele>162.12</ele><time>2026-08-21T16:10:21Z</time></trkpt><trkpt lat="59.3391836062" lon="34.6007206757"><ele>162.12</ele><time>2026-08-21T16:10:27Z</time></trkpt><trkpt lat="59.3390786648" lon="34.6008818597"><ele>162.12</ele><time>2026-08-21T16:10:40Z</time></trkpt><trkpt lat="59.3390291277" lon="34.6009415388"><ele>162.60</ele><time>2026-08-21T16:10:45Z</time></trkpt><trkpt lat="59.3389232643" lon="34.6010971069"><ele>163.08</ele><time>2026-08-21T16:10:59Z</time></trkpt><trkpt lat="59.3388487492" lon="34.6011679340"><ele>163.08</ele><time>2026-08-21T16:11:11Z</time></trkpt><trkpt lat="59.3387757428" lon="34.6013781521"><ele>163.08</ele><time>2026-08-21T16:11:24Z</time></trkpt><trkpt lat="59.3387174048" lon="34.6015035454"><ele>161.64</ele><time>2026-08-21T16:11:40Z</time></trkpt><trkpt lat="59.3385837972" lon="34.6017041244"><ele>161.64</ele><time>2026-08-21T16:11:54Z</time></trkpt><trkpt lat="59.3384893332" lon="34.6017702576"><ele>161.64</ele><time>2026-08-21T16:12:03Z</time></trkpt><trkpt lat="59.3383562285" lon="34.6019000094"><ele>161.64</ele><time>2026-08-21T16:12:16Z</time></trkpt><trkpt lat="59.3382386304" lon="34.6019757818"><ele>161.64</ele><time>2026-08-21T16:12:28Z</time></trkpt><trkpt lat="59.3381130695" lon="34.6021190286"><ele>161.64</ele><time>2026-08-21T16:12:41Z</time></trkpt><trkpt lat="59.3380192760" lon="34.6023508720"><ele>161.64</ele><time>2026-08-21T16:12:54Z</time></trkpt><trkpt lat="59.3378787115" lon="34.6025568992"><ele>161.64</ele><time>2026-08-21T16:13:09Z</time></trkpt><trkpt lat="59.3376893643" lon="34.6026268881"><ele>160.68</ele><time>2026-08-21T16:13:25Z</time></trkpt><trkpt lat="59.3375809863" lon="34.6026682947"><ele>160.68</ele><time>2026-08-21T16:13:36Z</time></trkpt><trkpt lat="59.3374533299" lon="34.6026567277"><ele>160.68</ele><time>2026-08-21T16:13:52Z</time></trkpt><trkpt lat="59.3373213150" lon="34.6026558895"><ele>160.68</ele><time>2026-08-21T16:14:06Z</time></trkpt><trkpt lat="59.3372141104" lon="34.6027579810"><ele>162.12</ele><time>2026-08-21T16:14:19Z</time></trkpt><trkpt lat="59.3369914033" lon="34.6026469208"><ele>162.12</ele><time>2026-08-21T16:14:36Z</time></trkpt><trkpt lat="59.3367795087" lon="34.6027107909"><ele>162.12</ele><time>2026-08-21T16:14:51Z</time></trkpt><trkpt lat="59.3366775848" lon="34.6028366033"><ele>162.12</ele><time>2026-08-21T16:15:03Z</time></trkpt><trkpt lat="59.3365765829" lon="34.6029565483"><ele>161.64</ele><time>2026-08-21T16:15:17Z</time></trkpt><trkpt lat="59.3364589848" lon="34.6031070873"><ele>161.64</ele><time>2026-08-21T16:15:31Z</time></trkpt><trkpt lat="59.3364135548" lon="34.6032783296"><ele>161.64</ele><time>2026-08-21T16:15:45Z</time></trkpt><trkpt lat="59.3363646884" lon="34.6034251805"><ele>161.64</ele><time>2026-08-21T16:15:53Z</time></trkpt><trkpt lat="59.3363518640" lon="34.6035877056"><ele>161.64</ele><time>2026-08-21T16:16:04Z</time></trkpt><trkpt lat="59.3363033328" lon="34.6038655657"><ele>161.64</ele><time>2026-08-21T16:16:16Z</time></trkpt><trkpt lat="59.3362466712" lon="34.6039664000"><ele>161.64</ele><time>2026-08-21T16:16:22Z</time></trkpt><trkpt lat="59.3362015765" lon="34.6041437611"><ele>161.64</ele><time>2026-08-21T16:16:29Z</time></trkpt><trkpt lat="59.3361569010" lon="34.6044030134"><ele>160.68</ele><time>2026-08-21T16:16:43Z</time></trkpt><trkpt lat="59.3360765185" lon="34.6045737527"><ele>160.68</ele><time>2026-08-21T16:16:57Z</time></trkpt><trkpt lat="59.3359787017" lon="34.6047742479"><ele>160.68</ele><time>2026-08-21T16:17:12Z</time></trkpt><trkpt lat="59.3357785419" lon="34.6051215101"><ele>160.68</ele><time>2026-08-21T16:17:30Z</time></trkpt><trkpt lat="59.3357031886" lon="34.6053405292"><ele>160.68</ele><time>2026-08-21T16:17:44Z</time></trkpt><trkpt lat="59.3356152624" lon="34.6055893041"><ele>161.16</ele><time>2026-08-21T16:17:57Z</time></trkpt><trkpt lat="59.3355181161" lon="34.6058369055"><ele>161.16</ele><time>2026-08-21T16:18:12Z</time></trkpt><trkpt lat="59.3354256637" lon="34.6061044559"><ele>162.60</ele><time>2026-08-21T16:18:28Z</time></trkpt><trkpt lat="59.3353267573" lon="34.6063259896"><ele>163.08</ele><time>2026-08-21T16:18:44Z</time></trkpt><trkpt lat="59.3352653179" lon="34.6064620279"><ele>164.04</ele><time>2026-08-21T16:18:56Z</time></trkpt><trkpt lat="59.3351985980" lon="34.6066621039"><ele>164.52</ele><time>2026-08-21T16:19:08Z</time></trkpt><trkpt lat="59.3351685070" lon="34.6067218669"><ele>164.52</ele><time>2026-08-21T16:19:12Z</time></trkpt><trkpt lat="59.3350850232" lon="34.6068902593"><ele>165.00</ele><time>2026-08-21T16:19:23Z</time></trkpt><trkpt lat="59.3349965103" lon="34.6070235316"><ele>165.00</ele><time>2026-08-21T16:19:34Z</time></trkpt><trkpt lat="59.3348881323" lon="34.6071683709"><ele>165.00</ele><time>2026-08-21T16:19:46Z</time></trkpt><trkpt lat="59.3347399402" lon="34.6072916687"><ele>165.00</ele><time>2026-08-21T16:19:58Z</time></trkpt><trkpt lat="59.3346774951" lon="34.6074546967"><ele>163.56</ele><time>2026-08-21T16:20:09Z</time></trkpt><trkpt lat="59.3346694484" lon="34.6075125318"><ele>163.56</ele><time>2026-08-21T16:20:13Z</time></trkpt><trkpt lat="59.3346068356" lon="34.6077351552"><ele>163.08</ele><time>2026-08-21T16:20:26Z</time></trkpt><trkpt lat="59.3345586397" lon="34.6079840139"><ele>162.60</ele><time>2026-08-21T16:20:38Z</time></trkpt><trkpt lat="59.3345736433" lon="34.6082083974"><ele>162.60</ele><time>2026-08-21T16:20:50Z</time></trkpt><trkpt lat="59.3345742300" lon="34.6082288492"><ele>162.60</ele><time>2026-08-21T16:20:51Z</time></trkpt><trkpt lat="59.3345337454" lon="34.6085028537"><ele>162.12</ele><time>2026-08-21T16:21:07Z</time></trkpt><trkpt lat="59.3345400319" lon="34.6087611839"><ele>161.64</ele><time>2026-08-21T16:21:19Z</time></trkpt><trkpt lat="59.3345350027" lon="34.6089107171"><ele>161.64</ele><time>2026-08-21T16:21:30Z</time></trkpt><trkpt lat="59.3344906624" lon="34.6090492699"><ele>161.64</ele><time>2026-08-21T16:21:37Z</time></trkpt><trkpt lat="59.3344303966" lon="34.6093218494"><ele>161.64</ele><time>2026-08-21T16:21:51Z</time></trkpt><trkpt lat="59.3344082683" lon="34.6095584705"><ele>161.16</ele><time>2026-08-21T16:22:04Z</time></trkpt><trkpt lat="59.3343468290" lon="34.6097492427"><ele>160.68</ele><time>2026-08-21T16:22:16Z</time></trkpt><trkpt lat="59.3342078570" lon="34.6100391727"><ele>160.68</ele><time>2026-08-21T16:22:33Z</time></trkpt><trkpt lat="59.3340765964" lon="34.6101623029"><ele>160.68</ele><time>2026-08-21T16:22:45Z</time></trkpt><trkpt lat="59.3340096250" lon="34.6103172842"><ele>160.68</ele><time>2026-08-21T16:22:59Z</time></trkpt><trkpt lat="59.3339374568" lon="34.6104520652"><ele>160.68</ele><time>2026-08-21T16:23:15Z</time></trkpt><trkpt lat="59.3338449206" lon="34.6107535623"><ele>160.68</ele><time>2026-08-21T16:23:30Z</time></trkpt><trkpt lat="59.3337740097" lon="34.6110352781"><ele>159.72</ele><time>2026-08-21T16:23:45Z</time></trkpt><trkpt lat="59.3337615207" lon="34.6110960469"><ele>159.72</ele><time>2026-08-21T16:23:47Z</time></trkpt><trkpt lat="59.3337126542" lon="34.6113235317"><ele>159.24</ele><time>2026-08-21T16:24:00Z</time></trkpt><trkpt lat="59.3336233869" lon="34.6114785131"><ele>158.75</ele><time>2026-08-21T16:24:12Z</time></trkpt><trkpt lat="59.3335719220" lon="34.6115807723"><ele>158.75</ele><time>2026-08-21T16:24:24Z</time></trkpt><trkpt lat="59.3335461896" lon="34.6116145514"><ele>158.75</ele><time>2026-08-21T16:24:27Z</time></trkpt><trkpt lat="59.3334315252" lon="34.6117076743"><ele>158.75</ele><time>2026-08-21T16:24:39Z</time></trkpt><trkpt lat="59.3333748635" lon="34.6119048167"><ele>158.75</ele><time>2026-08-21T16:24:51Z</time></trkpt><trkpt lat="59.3333705887" lon="34.6120705269"><ele>158.75</ele><time>2026-08-21T16:24:59Z</time></trkpt><trkpt lat="59.3333562557" lon="34.6122503188"><ele>158.75</ele><time>2026-08-21T16:25:08Z</time></trkpt><trkpt lat="59.3333532382" lon="34.6124164481"><ele>158.75</ele><time>2026-08-21T16:25:15Z</time></trkpt><trkpt lat="59.3333779648" lon="34.6126681566"><ele>159.72</ele><time>2026-08-21T16:25:30Z</time></trkpt><trkpt lat="59.3333486281" lon="34.6128235571"><ele>159.24</ele><time>2026-08-21T16:25:46Z</time></trkpt><trkpt lat="59.3332941458" lon="34.6130531374"><ele>159.24</ele><time>2026-08-21T16:26:02Z</time></trkpt><trkpt lat="59.3332693353" lon="34.6134221926"><ele>159.24</ele><time>2026-08-21T16:26:16Z</time></trkpt><trkpt lat="59.3332573492" lon="34.6138172317"><ele>159.24</ele><time>2026-08-21T16:26:30Z</time></trkpt><trkpt lat="59.3332613725" lon="34.6140450519"><ele>159.24</ele><time>2026-08-21T16:26:41Z</time></trkpt><trkpt lat="59.3332550861" lon="34.6141768992"><ele>157.79</ele><time>2026-08-21T16:26:47Z</time></trkpt><trkpt lat="59.3332366459" lon="34.6144853532"><ele>157.79</ele><time>2026-08-21T16:26:59Z</time></trkpt><trkpt lat="59.3332531583" lon="34.6146560088"><ele>157.79</ele><time>2026-08-21T16:27:10Z</time></trkpt><trkpt lat="59.3332490511" lon="34.6147184540"><ele>157.79</ele><time>2026-08-21T16:27:13Z</time></trkpt><trkpt lat="59.3332269229" lon="34.6149327792"><ele>157.79</ele><time>2026-08-21T16:27:25Z</time></trkpt><trkpt lat="59.3332289346" lon="34.6152081247"><ele>157.79</ele><time>2026-08-21T16:27:40Z</time></trkpt><trkpt lat="59.3332171161" lon="34.6153922752"><ele>157.79</ele><time>2026-08-21T16:27:52Z</time></trkpt><trkpt lat="59.3332008552" lon="34.6155818738"><ele>157.79</ele><time>2026-08-21T16:28:06Z</time></trkpt><trkpt lat="59.3331798166" lon="34.6157791000"><ele>158.75</ele><time>2026-08-21T16:28:14Z</time></trkpt><trkpt lat="59.3331549224" lon="34.6160480753"><ele>159.24</ele><time>2026-08-21T16:28:26Z</time></trkpt><trkpt lat="59.3331561796" lon="34.6161096822"><ele>159.24</ele><time>2026-08-21T16:28:30Z</time></trkpt><trkpt lat="59.3331595324" lon="34.6162038948"><ele>159.24</ele><time>2026-08-21T16:28:36Z</time></trkpt><trkpt lat="59.3331393320" lon="34.6164154541"><ele>159.72</ele><time>2026-08-21T16:28:48Z</time></trkpt><trkpt lat="59.3330752943" lon="34.6166795678"><ele>159.72</ele><time>2026-08-21T16:29:01Z</time></trkpt><trkpt lat="59.3330253381" lon="34.6169183683"><ele>160.20</ele><time>2026-08-21T16:29:13Z</time></trkpt><trkpt lat="59.3329603784" lon="34.6171920374"><ele>160.20</ele><time>2026-08-21T16:29:27Z</time></trkpt><trkpt lat="59.3329417706" lon="34.6173278242"><ele>160.20</ele><time>2026-08-21T16:29:40Z</time></trkpt><trkpt lat="59.3328130245" lon="34.6175483521"><ele>159.24</ele><time>2026-08-21T16:29:54Z</time></trkpt><trkpt lat="59.3326693587" lon="34.6177641861"><ele>158.75</ele><time>2026-08-21T16:30:08Z</time></trkpt><trkpt lat="59.3325706199" lon="34.6179521084"><ele>158.75</ele><time>2026-08-21T16:30:21Z</time></trkpt><trkpt lat="59.3324536085" lon="34.6182704531"><ele>158.75</ele><time>2026-08-21T16:30:37Z</time></trkpt><trkpt lat="59.3323534448" lon="34.6184406057"><ele>158.75</ele><time>2026-08-21T16:30:52Z</time></trkpt><trkpt lat="59.3322915025" lon="34.6186949126"><ele>158.75</ele><time>2026-08-21T16:31:08Z</time></trkpt><trkpt lat="59.3321860582" lon="34.6188827511"><ele>158.75</ele><time>2026-08-21T16:31:21Z</time></trkpt><trkpt lat="59.3321566377" lon="34.6189786401"><ele>158.27</ele><time>2026-08-21T16:31:39Z</time></trkpt><trkpt lat="59.3321207631" lon="34.6190463658"><ele>158.27</ele><time>2026-08-21T16:31:56Z</time></trkpt><trkpt lat="59.3320383690" lon="34.6191751957"><ele>158.27</ele><time>2026-08-21T16:32:13Z</time></trkpt><trkpt lat="59.3318004906" lon="34.6193393134"><ele>158.27</ele><time>2026-08-21T16:32:29Z</time></trkpt><trkpt lat="59.3316913582" lon="34.6194751002"><ele>158.27</ele><time>2026-08-21T16:32:41Z</time></trkpt><trkpt lat="59.3316792045" lon="34.6194891818"><ele>158.27</ele><time>2026-08-21T16:32:42Z</time></trkpt><trkpt lat="59.3315844890" lon="34.6195823886"><ele>159.24</ele><time>2026-08-21T16:32:49Z</time></trkpt><trkpt lat="59.3314424157" lon="34.6197746694"><ele>159.72</ele><time>2026-08-21T16:33:05Z</time></trkpt><trkpt lat="59.3314636219" lon="34.6198899206"><ele>159.72</ele><time>2026-08-21T16:33:23Z</time></trkpt><trkpt lat="59.3314399011" lon="34.6200298145"><ele>160.20</ele><time>2026-08-21T16:33:38Z</time></trkpt><trkpt lat="59.3314429186" lon="34.6202038229"><ele>160.68</ele><time>2026-08-21T16:34:04Z</time></trkpt><trkpt lat="59.3314218801" lon="34.6202599816"><ele>160.68</ele><time>2026-08-21T16:34:23Z</time></trkpt><trkpt lat="59.3312908709" lon="34.6204781625"><ele>160.68</ele><time>2026-08-21T16:34:40Z</time></trkpt><trkpt lat="59.3312028609" lon="34.6207344811"><ele>160.68</ele><time>2026-08-21T16:34:54Z</time></trkpt><trkpt lat="59.3311557546" lon="34.6210497245"><ele>160.68</ele><time>2026-08-21T16:35:09Z</time></trkpt><trkpt lat="59.3311011884" lon="34.6212338749"><ele>160.68</ele><time>2026-08-21T16:35:20Z</time></trkpt><trkpt lat="59.3312146794" lon="34.6213079710"><ele>160.20</ele><time>2026-08-21T16:35:41Z</time></trkpt><trkpt lat="59.3311518151" lon="34.6212536562"><ele>160.20</ele><time>2026-08-21T16:35:58Z</time></trkpt><trkpt lat="59.3311744463" lon="34.6213177778"><ele>160.20</ele><time>2026-08-21T16:36:20Z</time></trkpt><trkpt lat="59.3311891984" lon="34.6213373076"><ele>160.20</ele><time>2026-08-21T16:36:41Z</time></trkpt><trkpt lat="59.3311800621" lon="34.6213170234"><ele>160.20</ele><time>2026-08-21T16:37:01Z</time></trkpt><trkpt lat="59.3311663158" lon="34.6213461086"><ele>160.20</ele><time>2026-08-21T16:37:18Z</time></trkpt><trkpt lat="59.3311635498" lon="34.6212782990"><ele>160.20</ele><time>2026-08-21T16:37:38Z</time></trkpt><trkpt lat="59.3311270885" lon="34.6212902013"><ele>160.20</ele><time>2026-08-21T16:37:55Z</time></trkpt><trkpt lat="59.3312019389" lon="34.6212915424"><ele>160.20</ele><time>2026-08-21T16:38:20Z</time></trkpt><trkpt lat="59.3312058784" lon="34.6213496290"><ele>160.68</ele><time>2026-08-21T16:38:46Z</time></trkpt><trkpt lat="59.3311586045" lon="34.6213411633"><ele>160.68</ele><time>2026-08-21T16:39:15Z</time></trkpt><trkpt lat="59.3311306927" lon="34.6213379782"><ele>160.68</ele><time>2026-08-21T16:39:44Z</time></trkpt><trkpt lat="59.3311217241" lon="34.6213228907"><ele>161.16</ele><time>2026-08-21T16:40:12Z</time></trkpt><trkpt lat="59.3311210535" lon="34.6213166881"><ele>161.16</ele><time>2026-08-21T16:40:42Z</time></trkpt><trkpt lat="59.3311187904" lon="34.6213010978"><ele>161.64</ele><time>2026-08-21T16:41:03Z</time></trkpt><trkpt lat="59.3311083969" lon="34.6212834120"><ele>161.64</ele><time>2026-08-21T16:41:24Z</time></trkpt><trkpt lat="59.3311206345" lon="34.6212844178"><ele>161.64</ele><time>2026-08-21T16:41:43Z</time></trkpt><trkpt lat="59.3311125040" lon="34.6213148441"><ele>161.64</ele><time>2026-08-21T16:42:07Z</time></trkpt><trkpt lat="59.3310513999" lon="34.6213811450"><ele>162.12</ele><time>2026-08-21T16:42:21Z</time></trkpt><trkpt lat="59.3309748732" lon="34.6215032693"><ele>162.12</ele><time>2026-08-21T16:42:34Z</time></trkpt></trkseg></trk></gpx>